     2              OBSERVATION DATA    GPS                 RINEX VERSION / TYPE
teqc 1999Jul19 19991123 03:15:59UTC                         PGM / RUN BY / DATE
                                                            COMMENT
Original Marker Name: CORR                                  COMMENT
Campaign Name: HPGN 1991                                    COMMENT
4-Character Station Name: CORR                              COMMENT
6-Character Antenna Code: TRMSST                            COMMENT
Vertical Measurement Point: BPA                             COMMENT
Vertical Offset to Rinex Ref. Point: 0.0000                 COMMENT
Radial Measurement Point: RRP                               COMMENT
Radial Offset to Rinex Ref. Point: 0.0000                   COMMENT
Antenna Height from Field Measurement: 2.2200 m             COMMENT
                                                            COMMENT
Original XYZ: -2639581.3326 -4315112.2364 3872976.1717      COMMENT
New XYZ position is based on association with SCEC monument COMMENT
E1F8I3A8+0011. Position of that monument is believed to be  COMMENT
valid to within 1 m horizontally; vertical accuracy         COMMENT
should be no worse than 3-times this value.                 COMMENT
                                                            COMMENT
Revised Rinex header created by UCSD GPS archive for        COMMENT
GSAC on 10-Mar-2000 (2000:070) 17:34:15 GMT                 COMMENT
For assistance contact dagnew@ucsd.edu or hjohnson@ucsd.edu COMMENT
                                                            COMMENT
CORRAL                                                      MARKER NAME
CORR                                                        MARKER NUMBER
-Unknown- CALIF DEPT TRANSPORTATION                         OBSERVER / AGENCY
483 TRIMBLE 4000 SST NP 4.30 / SP 4.20                      REC # / TYPE / VERS
19 TR 4000SST L1/L2 GEO                                     ANT # / TYPE
 -2639481.6857 -4314884.5657  3872888.8252                  APPROX POSITION XYZ
        2.2200        0.0000        0.0000                  ANTENNA: DELTA H/E/N
     1     1     0                                          WAVELENGTH FACT L1/2
     5    C1    L1    L2    S1    S2                        # / TYPES OF OBSERV
     0                                                      INTERVAL
  1991     5    20    18     9   15.000000                  TIME OF FIRST OBS
  1991     5    20    23    41   30.000000                  TIME OF LAST OBS
                                                            END OF HEADER
 91  5 20 18  9 15.0000000  0  5G18G19G11G16G 2
  20875357.078          -0.18317        -0.03033        27.250           2.500
  20699034.250          -0.20916        -0.40132        19.500           1.750
  23942491.172          -0.73316        -0.05431        12.750           0.625
  24065475.164          -0.27815        -0.32031         8.250           0.375
  23653955.828          -0.56516                        12.500
 91  5 20 18  9 45.0000000  0  5G18G19G11G16G 2
  20885899.141       55394.422 7     43164.55622        27.250           2.375
  20700522.750        7827.685 6      6099.26522        19.250           1.875
  23931158.117      -59558.878 6    -46408.82121        12.750           0.594
  24055223.219      -53886.330 5    -41989.40921         8.250           0.313
  23636938.141      -89436.511 6    -34864.45221        12.750           0.625
 91  5 20 18 10  0.0000000  0  5G18G19G11G16G 2
  20891187.219       83187.474 7     64821.46222        27.000           2.375
  20701270.406       11758.964 6      9162.60422        19.500           1.813
  23925504.898      -89259.976 6    -69552.45121        12.750           0.594
  24050123.188      -80719.388 5    -62898.22621        10.000           0.375
  23628429.547     -134148.301 6    -69704.69121        12.500           0.656
 91  5 20 18 10 15.0000000  0  4G18G19G11G16
  20896480.047      110999.910 7     86493.47022        27.000           2.438
  20702013.305       15657.322 6     12200.29022        19.250           1.813
  23919852.203     -118952.890 6    -92689.70721        12.500           0.563
  24045022.016     -107523.154 5    -83784.26421         9.500           0.344
 91  5 20 18 10 30.0000000  0  4G18G19G11G16
  20901777.961      138838.585 7    108185.92522        27.000           2.438
  20702751.117       19529.571 6     15217.63322        19.250           1.781
  23914208.156     -148630.463 6   -115815.01221        13.000           0.594
  24039924.039     -134290.603 5   -104641.98721         8.750           0.313
 91  5 20 18 10 45.0000000  0  4G18G19G11G16
  20907081.898      166711.764 7    129905.26622        26.750           2.438
  20703483.484       23384.429 6     18221.41522        19.000           1.875
  23908562.781     -178283.621 6   -138921.27721        12.500           0.625
  24034843.266     -161012.745 5   -125464.40221        11.000           0.375
 91  5 20 18 11  0.0000000  0  4G18G19G11G16
  20912392.453      194620.629 7    151652.41522        26.750           2.375
  20704211.875       27222.854 7     21212.39722        20.250           1.750
  23902923.289     -207911.013 6   -162007.46721        12.750           0.563
  24029761.805     -187688.698 5   -146250.87821         8.500           0.438
 91  5 20 18 11 15.0000000  0  4G18G19G11G16
  20917710.039      222563.859 7    173426.33722        26.500           2.406
  20704941.180       31043.199 6     24189.29722        19.000           1.781
  23897293.344     -237513.807 6   -185074.49321        12.750           0.594
  24024700.805     -214319.520 5   -167002.10521        11.000           0.219
 91  5 20 18 11 30.0000000  0  4G18G19G11G16
  20923035.430      250547.696 7    195231.90322        26.750           2.344
  20705666.328       34852.363 6     27157.48122        19.000           1.813
  23891665.047     -267084.825 6   -208116.75021        12.750           0.625
  24019637.508     -240898.302 5   -187712.89221         9.000           0.344
 91  5 20 18 11 45.0000000  0  4G18G19G11G16
  20928367.305      278568.879 7    217066.57322        26.500           2.313
  20706388.695       38646.738 6     30114.14322        18.750           1.750
  23886044.008     -296627.099 6   -231136.61921        12.750           0.594
  24014592.938     -267428.261 5   -208385.49221        10.500           0.406
 91  5 20 18 12  0.0000000  0  4G18G19G11G16
  20933706.344      306627.229 7    238930.20122        26.500           2.344
  20707107.758       42426.278 6     33059.24322        18.750           1.844
  23880428.031     -326140.168 6   -254133.72521        13.000           0.563
  24009552.305     -293908.826 5   -229019.71821        10.000           0.344
 91  5 20 18 12 15.0000000  0  4G18G19G11G16
  20939053.492      334721.517 7    260821.82822        26.500           2.281
  20707823.633       46189.807 6     35991.86822        19.000           1.875
  23874818.656     -355624.978 6   -277108.81721        13.250           0.625
  24004519.070     -320341.268 5   -249616.41421         9.250           0.344
 91  5 20 18 12 30.0000000  0  4G18G19G11G16
  20944406.969      362855.958 7    282744.75622        26.500           2.313
  20708535.211       49941.532 6     38915.29722        19.500           1.813
  23869212.938     -385076.924 6   -300058.31221        13.000           0.625
  23999503.672     -346720.985 5   -270171.99621        10.500           0.406
 91  5 20 18 12 45.0000000  0  4G18G19G11G16
  20949768.734      391032.057 7    304700.13822        26.750           2.406
  20709249.320       53682.779 6     41830.55522        18.750           1.844
  23863614.867     -414494.268 6   -322980.81821        13.500           0.656
  23994489.906     -373046.067 5   -290685.05521         9.250           0.375
 91  5 20 18 13  0.0000000  0  4G18G19G11G16
  20955138.328      419249.484 7    326687.72022        26.500           2.313
  20709959.859       57413.634 6     44737.72022        18.250           1.750
  23858023.516     -443876.585 6   -345876.05721        13.250           0.594
  23989494.414     -399316.846 5   -311155.75221        10.500           0.375
 91  5 20 18 13 15.0000000  0  4G18G19G11G16
  20960515.984      447508.500 7    348707.70922        26.500           2.313
  20710667.281       61134.258 6     47636.91122        18.500           1.844
  23852437.852     -473223.180 6   -368743.45021        13.500           0.594
  23984504.938     -425532.669 5   -331583.68521        10.000           0.375
 91  5 20 18 13 30.0000000  0  4G18G19G11G16
  20965901.891      475810.680 7    370761.33222        26.750           2.344
  20711374.820       64846.158 6     50529.30622        18.250           1.781
  23846859.664     -502532.302 6   -391581.64821        13.250           0.688
  23979526.148     -451692.126 5   -351967.62421        10.250           0.344
 91  5 20 18 13 45.0000000  0  4G18G19G11G16
  20971295.867      504155.478 7    392848.16922        26.750           2.250
  20712078.875       68549.177 6     53414.78022        18.250           1.688
  23841290.750     -531803.911 6   -414390.61321        13.250           0.688
  23974560.563     -477794.718 5   -372307.33621        10.250           0.344
 91  5 20 18 14  0.0000000  0  4G18G19G11G16
  20976696.133      532535.186 7    414962.20322        26.750           2.313
  20712780.953       72235.611 6     56287.32822        18.000           1.813
  23835725.836     -561045.262 6   -437175.99321        13.500           0.719
  23969601.172     -503848.064 5   -392608.61421         9.750           0.406
 91  5 20 18 14 15.0000000  0  4G18G19G11G16
  20982105.273      560959.024 7    437110.62422        26.750           2.313
  20713479.430       75914.806 6     59154.24022        18.500           1.781
  23830170.125     -590246.327 6   -459929.97621        13.500           0.656
  23964655.352     -529842.442 5   -412863.94221        10.250           0.250
 91  5 20 18 14 30.0000000  0  4G18G19G11G16
  20987522.781      589426.737 7    459293.22922        26.500           2.281
  20714176.625       79586.258 6     62015.11622        19.000           1.813
  23824621.953     -619407.382 6   -482652.79921        13.500           0.594
  23959718.008     -555778.438 5   -433073.82021        10.250           0.344
 91  5 20 18 14 45.0000000  0  4G18G19G11G16
  20992947.969      617940.418 7    481511.66222        26.750           2.219
  20714876.297       83252.323 6     64871.79822        18.250           1.844
  23819077.703     -648525.671 6   -505342.29021        13.500           0.625
  23954795.742     -581653.328 5   -453236.03221        10.000           0.500
 91  5 20 18 15  0.0000000  0  4G18G19G11G16
  20998384.242      646503.997 7    503768.97122        26.500           2.188
  20715571.977       86917.102 6     67727.47622        18.750           1.844
  23813547.523     -677596.712 6   -527994.97121        13.750           0.563
  23949887.844     -607462.661 5   -473347.19321        11.000           0.375
 91  5 20 18 15 15.0000000  0  4G18G19G11G16
  21003827.938      675112.242 7    526061.08722        26.750           2.219
  20716270.227       90575.141 6     70577.90222        18.250           1.750
  23808023.992     -706625.436 6   -550614.67421        13.750           0.625
  23944982.063     -633211.504 5   -493411.20721         9.500           0.406
 91  5 20 18 15 30.0000000  0  4G18G19G11G16
  21009281.711      703767.592 7    548389.91022        26.500           2.250
  20716963.531       94228.972 6     73425.04822        18.750           1.906
  23802508.188     -735609.036 6   -573199.22121        13.750           0.531
  23940097.344     -658897.207 5   -513426.04721        10.750           0.469
 91  5 20 18 15 45.0000000  0  4G18G19G11G16
  21014747.703      732497.752 7    570777.01922        26.500           2.250
  20717664.922       97906.461 6     76290.63122        18.500           1.844
  23797006.023     -764519.278 6   -595726.60121        13.750           0.469
  23935224.500     -684491.667 5   -533369.75521         9.750           0.406
 91  5 20 18 16  0.0000000  0  4G18G19G11G16
  21020228.000      761292.922 7    593214.78622        26.500           2.281
  20718367.227      101597.700 6     79166.92822        18.500           1.875
  23791515.930     -793365.628 6   -618204.19221        13.750           0.531
  23930370.250     -710004.478 5   -553249.86221        10.000           0.375
 91  5 20 18 16 15.0000000  0  4G18G19G11G16
  21025717.953      790142.053 7    615694.60122        26.500           2.219
  20719070.422      105291.886 6     82045.52522        18.250           1.938
  23786038.938     -822158.645 6   -640640.24421        14.000           0.625
  23925533.945     -735446.472 5   -573074.77921        10.500           0.438
 91  5 20 18 16 30.0000000  0  4G18G19G11G16
  21031216.594      819040.355 7    638212.73722        26.500           2.250
  20719774.234      108984.374 6     84922.79222        18.000           1.875
  23780569.133     -850902.392 6   -663037.88221        14.000           0.594
  23920701.188     -760821.882 5   -592847.82521         9.500           0.469
 91  5 20 18 16 45.0000000  0  4G18G19G11G16
  21036725.789      847989.910 7    660770.80522        26.250           2.313
  20720475.305      112677.128 6     87800.27022        18.000           1.875
  23775107.789     -879594.587 6   -685395.35321        14.000           0.594
  23915885.742     -786128.526 5   -612567.25721        10.250           0.313
 91  5 20 18 17  0.0000000  0  4G18G19G11G16
  21042244.813      876991.129 7    683369.13322        26.500           2.375
  20721177.750      116370.529 6     90678.25122        18.250           1.844
  23769658.898     -908234.546 6   -707712.13921        13.750           0.594
  23911082.430     -811365.939 5   -632232.77121         9.750           0.469
 91  5 20 18 17 15.0000000  0  4G18G19G11G16
  21047773.750      906047.108 7    706010.12922        26.250           2.188
  20721882.688      120068.234 6     93559.58822        18.250           1.844
  23764218.688     -936818.259 6   -729985.10021        13.750           0.656
  23906297.742     -836530.644 5   -651841.59821        10.500           0.406
 91  5 20 18 17 30.0000000  0  4G18G19G11G16
  21053313.219      935156.913 7    728693.06822        26.500           2.281
  20722585.625      123769.092 6     96443.37622        18.500           1.875
  23758789.469     -965346.602 6   -752214.90321        13.750           0.625
  23901513.703     -861623.355 5   -671394.36721         8.750           0.438
 91  5 20 18 17 45.0000000  0  4G18G19G11G16
  21058863.578      964324.455 7    751420.99422        26.000           2.344
  20723292.141      127477.182 6     99332.80722        18.000           1.813
  23753371.336     -993814.942 6   -774397.95521        13.500           0.438
  23896762.992     -886639.145 5   -690887.16121        11.500           0.344
 91  5 20 18 18  0.0000000  0  4G18G19G11G16
  21064424.484      993552.161 7    774195.80322        26.250           2.406
  20723999.000      131194.628 6    102229.51822        18.250           1.813
  23747966.469    -1022220.663 6   -796532.21221        13.750           0.500
  23892007.172     -911575.624 5   -710318.19821         8.250           0.406
 91  5 20 18 18 15.0000000  0  4G18G19G11G16
  21069998.766     1022839.876 7    797017.37022        25.750           2.250
  20724709.156      134921.398 6    105133.50022        17.750           1.844
  23742572.945    -1050563.615 6   -818617.55221        13.750           0.594
  23887286.180     -936433.079 5   -729687.60221        11.750           0.438
 91  5 20 18 18 30.0000000  0  4G18G19G11G16
  21075582.906     1052186.354 7    819884.72922        26.000           2.344
  20725419.883      138656.660 6    108044.09722        17.750           1.844
  23737190.719    -1078844.197 6   -840654.30221        13.750           0.594
  23882561.109     -961212.129 5   -748995.99221         8.250           0.375
 91  5 20 18 18 45.0000000  0  4G18G19G11G16
  21081179.063     1081593.805 7    842799.59622        25.750           2.250
  20726133.211      142402.469 6    110962.91122        18.000           1.875
  23731822.805    -1107060.009 6   -862640.58621        13.750           0.500
  23877873.258     -985910.542 5   -768241.43621        11.000           0.406
 91  5 20 18 19  0.0000000  0  4G18G19G11G16
  21086787.531     1111066.983 7    865765.67622        26.000           2.313
  20726846.961      146163.739 6    113893.77522        18.500           1.813
  23726466.617    -1135205.839 6   -884572.32121        13.750           0.563
  23873184.820    -1010523.131 5   -787420.12921         9.500           0.469
 91  5 20 18 19 15.0000000  0  5G18G19G11G16G 6
  21092409.656     1140609.466 7    888785.76922        26.000           2.375
  20727567.594      149944.180 6    116839.57522        17.750           1.813
  23721124.727    -1163277.543 6   -906446.31221        13.750           0.594
  23868514.141    -1035045.841 5   -806528.68221         9.750           0.313
  24499092.914      -35657.442 3                         6.000
 91  5 20 18 19 30.0000000  0  5G18G19G11G16G 6
  21098043.039     1170213.476 7    911853.79922        25.750           2.438
  20728289.000      153735.909 6    119794.17222        18.000           1.781
  23715795.000    -1191282.386 6   -928268.20221        13.500           0.563
  23863869.734    -1059486.348 5   -825573.26821        10.250           0.281
  24492305.023      -71332.248 3                         5.750
 91  5 20 18 19 45.0000000  0  5G18G19G11G16G 6
  21103688.063     1199879.794 7    934970.38722        25.750           2.313
  20729012.594      157539.945 6    122758.35822        17.750           1.813
  23710479.375    -1219219.259 6   -950037.11521        13.500           0.563
  23859233.359    -1083843.415 5   -844552.76721        10.250           0.438
  24485513.781     -107024.508 4        -0.24731         6.250           0.156
 91  5 20 18 20  0.0000000  0  5G18G19G11G16G 6
  21109345.469     1229609.257 7    958136.16422        25.750           2.375
  20729738.609      161357.248 6    125732.87822        18.000           1.719
  23705177.352    -1247086.924 6   -971752.12021        13.500           0.500
  23854611.922    -1108116.227 5   -863466.65321        10.000           0.344
  24478719.016     -142733.339 3    -27825.26021         5.500           0.313
 91  5 20 18 20 15.0000000  0  5G18G19G11G16G 6
  21115014.594     1259402.032 7    981351.27922        25.750           2.406
  20730468.750      165188.002 6    128717.88322        17.750           1.750
  23699885.586    -1274884.803 6   -993412.74321        13.500           0.594
  23850014.453    -1132304.285 5   -882314.46421        10.500           0.375
  24471920.984     -178458.664 3    -55663.05621         6.000           0.281
 91  5 20 18 20 30.0000000  0  5G18G19G11G16G 6
  21120697.484     1289261.766 7   1004618.57122        25.500           2.344
  20731201.391      169035.864 6    131716.21522        17.500           1.844
  23694611.258    -1302608.633 6  -1015015.64721        13.250           0.563
  23845424.547    -1156403.426 5   -901093.03621        10.500           0.406
  24465120.086     -214196.531 4    -83510.63621         6.250           0.281
 91  5 20 18 20 45.0000000  0  5G18G19G11G16G 6
  21126392.352     1319187.289 7   1027937.12922        25.750           2.313
  20731935.656      172899.756 6    134727.03922        17.750           1.906
  23689349.570    -1330259.281 6  -1036561.53521        13.250           0.594
  23840849.727    -1180414.680 5   -919803.09921         9.000           0.313
  24458315.234     -249948.108 3   -111368.93021         5.500           0.219
 91  5 20 18 21  0.0000000  0  5G18G19G11G16G 6
  21132099.609     1349181.728 7   1051309.38922        25.500           2.406
  20732672.641      176783.037 6    137752.97422        18.000           1.906
  23684101.813    -1357833.075 6  -1058047.53721        13.250           0.594
  23836310.891    -1204334.433 5   -938441.82921        11.250           0.406
  24451510.016     -285710.108 4   -139235.31421         6.250           0.344
 91  5 20 18 21 15.0000000  0  5G18G19G11G16G 6
  21137819.773     1379241.219 7   1074732.33522        25.500           2.313
  20733416.516      180681.903 6    140791.05222        17.750           1.875
  23678867.594    -1385333.435 6  -1079476.30721        13.500           0.563
  23831762.852    -1228166.543 5   -957012.33121         9.500           0.344
  24444702.727     -321486.352 3   -167112.81621         5.750           0.344
 91  5 20 18 21 30.0000000  0  5G18G19G11G16G 6
  21143552.188     1409369.399 7   1098208.80522        25.500           2.438
  20734161.055      184599.843 6    143843.99422        17.750           1.844
  23673649.000    -1412756.317 6  -1100844.73321        13.500           0.625
  23827249.344    -1251906.923 5   -975511.32021        10.000           0.406
  24437891.383     -357273.171 3   -194998.52021         5.750           0.281
 91  5 20 18 21 45.0000000  0  5G18G19G11G16G 6
  21149299.195     1439567.198 7   1121739.52522        25.250           2.281
  20734911.398      188538.122 6    146912.78422        17.500           1.938
  23668447.195    -1440100.230 6  -1122151.60021        13.250           0.719
  23822754.977    -1275554.221 5   -993937.76521        11.250           0.406
  24431082.813     -393069.469 4   -222891.64421         6.250           0.281
 91  5 20 18 22  0.0000000  0  5G18G19G11G16G 6
  21155058.656     1469832.819 7   1145323.09522        25.000           2.375
  20735664.289      192494.599 6    149995.75522        18.000           1.813
  23663257.070    -1467366.860 6  -1143398.26421        13.500           0.594
  23818269.039    -1299110.172 5  -1012293.06221        10.250           0.438
  24424267.445     -428877.194 3   -250793.69421         6.000           0.313
 91  5 20 18 22 15.0000000  0  5G18G19G11G16G 6
  21160831.969     1500168.614 7   1168961.34222        25.250           2.406
  20736421.664      196472.142 6    153095.14322        17.750           1.875
  23658083.336    -1494553.028 6  -1164582.21821        13.500           0.594
  23813800.313    -1322571.983 5  -1030574.99321        10.000           0.344
  24417453.633     -464693.503 4   -278702.37321         6.500           0.406
 91  5 20 18 22 30.0000000  0  5G18G19G11G16G 6
  21166617.820     1530575.146 7   1192654.71022        25.000           2.281
  20737180.820      200471.375 6    156211.42822        18.000           1.938
  23652927.344    -1521657.844 6  -1185702.78721        13.250           0.625
  23809358.414    -1345938.709 5  -1048782.82721        11.250           0.438
  24410634.273     -500517.981 4   -306617.45321         6.500           0.281
 91  5 20 18 22 45.0000000  0  5G18G19G11G16G 6
  21172417.539     1561049.317 7   1216400.78222        25.000           2.250
  20737947.141      204489.588 6    159342.50022        17.500           1.938
  23647782.539    -1548683.871 6  -1206761.96321        13.500           0.594
  23804927.539    -1369213.397 5  -1066918.95521        10.250           0.344
  24403813.781     -536353.523 4   -334541.18721         6.250           0.250
 91  5 20 18 23  0.0000000  0  5G18G19G11G16G 6
  21178229.117     1591591.195 7   1240199.62022        25.000           2.281
  20738715.117      208526.650 6    162488.26422        17.500           1.906
  23642655.813    -1575630.856 6  -1227759.54621        13.750           0.594
  23800518.742    -1392395.879 5  -1084983.20321        10.750           0.375
  24396994.336     -572200.285 4   -362473.57321         6.750           0.344
 91  5 20 18 23 15.0000000  0  5G18G19G11G16G 6
  21184054.859     1622207.788 7   1264056.66722        25.000           2.406
  20739488.461      212589.542 6    165654.15022        17.500           1.844
  23637543.422    -1602491.315 6  -1248689.71021        14.000           0.563
  23796125.945    -1415478.763 5  -1102969.84921        11.000           0.375
  24390170.539     -608051.057 4   -390409.17221         6.500           0.219
 91  5 20 18 23 30.0000000  0  5G18G19G11G16G 6
  21189894.289     1652894.025 7   1287967.98922        24.750           2.313
  20740263.164      216673.304 6    168836.30022        18.250           1.813
  23632448.742    -1629269.915 6  -1269556.07821        14.000           0.594
  23791754.359    -1438466.519 5  -1120882.40021        11.250           0.344
  24383347.969     -643910.920 4   -418351.82421         6.750           0.250
 91  5 20 18 23 45.0000000  0  5G18G19G11G16G 6
  21195748.234     1683656.277 7   1311938.54122        25.000           2.281
  20741048.516      220784.664 6    172039.95822        17.500           1.906
  23627368.883    -1655959.492 6  -1290353.07621        14.250           0.594
  23787393.133    -1461352.486 5  -1138715.60421        10.250           0.438
  24376524.313     -679773.001 4   -446296.20621         7.000           0.250
 91  5 20 18 24  0.0000000  0  5G18G19G11G16G 6
  21201615.969     1714491.600 7   1335966.02322        25.000           2.281
  20741835.844      224920.724 6    175262.86022        17.250           1.906
  23622308.195    -1682562.724 6  -1311082.79721        14.500           0.469
  23783058.398    -1484139.520 5  -1156471.72021        10.750           0.438
  24369697.758     -715640.519 4   -474244.81321         6.500           0.219
 91  5 20 18 24 15.0000000  0  5G18G19G11G16G 6
  21207498.477     1745403.380 7   1360053.08922        25.000           2.313
  20742627.281      229084.782 6    178507.58222        17.500           1.813
  23617261.555    -1709075.980 6  -1331742.40921        14.500           0.625
  23778740.172    -1506824.453 5  -1174148.28921        10.750           0.281
  24362871.484     -751510.113 4   -502195.06121         7.000           0.250
 91  5 20 18 24 30.0000000  0  5G18G19G11G16G 6
  21213394.508     1776390.733 7   1384199.03822        25.000           2.281
  20743426.023      233276.074 6    181773.52222        17.000           1.750
  23612232.648    -1735499.546 6  -1352332.13121        14.750           0.594
  23774446.727    -1529407.279 5  -1191745.27621        11.000           0.469
  24356046.086     -787382.350 4   -530147.37221         6.750           0.344
 91  5 20 18 24 45.0000000  0  5G18G19G11G16G 6
  21219306.148     1807453.151 7   1408403.48122        25.250           2.344
  20744228.422      237494.168 6    185060.35522        17.250           1.844
  23607222.555    -1761833.442 6  -1372851.97721        15.000           0.594
  23770168.664    -1551888.000 5  -1209262.70921        11.000           0.406
  24349218.578     -823257.704 4   -558102.05221         6.750           0.313
 91  5 20 18 25  0.0000000  0  5G18G19G11G16G 6
  21225231.922     1838590.489 7   1432666.31122        25.000           2.375
  20745034.508      241739.088 6    188368.08622        18.000           1.813
  23602228.352    -1788077.302 6  -1393301.66721        15.000           0.656
  23765909.969    -1574266.707 5  -1226700.63821        11.250           0.313
  24342390.328     -859136.162 4   -586059.21821         7.000           0.313
 91  5 20 18 25 15.0000000  0  5G18G19G11G16G 6
  21231170.219     1869801.399 7   1456986.46422        25.250           2.313
  20745848.617      246009.558 6    191695.72922        17.500           1.906
  23597250.867    -1814232.169 6  -1413682.02321        15.000           0.594
  23761666.828    -1596544.656 5  -1244060.08821        10.500           0.375
  24335561.414     -895019.109 4   -614019.87121         6.500           0.281
 91  5 20 18 25 30.0000000  0  5G18G19G11G16G 6
  21237125.102     1901091.244 7   1481368.12222        25.500           2.375
  20746667.945      250311.110 6    195047.58922        17.250           1.875
  23592291.586    -1840292.184 6  -1433988.45121        15.000           0.563
  23757451.422    -1618716.356 5  -1261336.70621        11.000           0.313
  24328732.266     -930900.956 4   -641979.62621         7.000           0.281
 91  5 20 18 25 45.0000000  0  5G18G19G11G16G 6
  21243093.922     1932457.063 7   1505808.98322        25.750           2.344
  20747491.617      254640.697 6    198421.29322        17.750           1.875
  23587350.141    -1866260.028 6  -1454223.08421        15.000           0.594
  23753252.258    -1640784.246 5  -1278532.46821        11.000           0.313
  24321905.898     -966784.751 4   -669940.93621         6.500           0.250
 91  5 20 18 26  0.0000000  0  5G18G19G11G16G 6
  21249077.422     1963901.115 7   1530310.80422        25.750           2.313
  20748322.898      259001.068 6    201818.98522        17.250           1.813
  23582425.961    -1892132.766 6  -1474383.58321        14.750           0.531
  23749076.430    -1662745.618 5  -1295645.19721        11.500           0.406
  24315076.070    -1002667.958 4   -697901.79221         7.000           0.250
 91  5 20 18 26 15.0000000  0  5G18G19G11G16G 6
  21255077.133     1995425.074 7   1554874.88822        26.000           2.375
  20749156.203      263393.774 6    205241.87722        17.500           1.875
  23577521.430    -1917908.439 6  -1494468.45921        15.000           0.594
  23744911.914    -1684598.698 5  -1312673.59921        10.500           0.313
  24308249.414    -1038548.945 4   -725860.89521         7.000           0.281
 91  5 20 18 26 30.0000000  0  5G18G19G11G16G 6
  21261089.820     2027026.073 7   1579499.00822        25.750           2.250
  20750000.578      267816.003 6    208687.77022        17.000           1.813
  23572634.391    -1943589.454 6  -1514479.56821        15.000           0.594
  23740779.273    -1706346.124 5  -1329619.62021        10.750           0.281
  24301419.859    -1074430.556 4   -753820.50121         6.750           0.313
 91  5 20 18 26 45.0000000  0  5G18G19G11G16G 6
  21267120.242     2058711.954 7   1604189.26622        26.000           2.344
  20750847.039      272275.940 6    212163.04522        17.500           1.906
  23567767.617    -1969167.300 6  -1534410.29321        14.750           0.688
  23736662.422    -1727979.447 5  -1346476.75221        11.250           0.313
  24294595.656    -1110304.507 5   -781774.14921         7.500           0.219
 91  5 20 18 27  0.0000000  0  5G18G19G11G16G 6
  21273164.516     2090476.842 7   1628941.08822        25.750           2.375
  20751699.125      276767.730 6    215663.13922        18.500           1.906
  23562919.000    -1994647.610 6  -1554265.00821        14.500           0.625
  23732559.000    -1749504.428 5  -1363249.45521        10.750           0.281
  24287767.094    -1146176.831 4   -809726.51021         7.000           0.219
 91  5 20 18 27 15.0000000  0  5G18G19G11G16G 6
  21279224.773     2122321.157 7   1653754.80022        26.000           2.281
  20752562.078      281291.905 6    219188.47022        17.750           1.781
  23558087.992    -2020029.551 6  -1574043.07621        15.000           0.563
  23728485.516    -1770920.625 5  -1379937.42021        10.500           0.375
  24280941.172    -1182046.874 5   -837677.05421         7.500           0.250
 91  5 20 18 27 30.0000000  0  5G18G19G11G16G 6
  21285299.219     2154244.812 7   1678630.33822        26.000           2.281
  20753427.453      285848.379 6    222738.97022        18.500           1.844
  23553277.602    -2045312.785 6  -1593744.23921        14.500           0.531
  23724434.961    -1792227.762 5  -1396540.35021        10.250           0.344
  24274115.281    -1217914.879 4   -865626.09221         7.250           0.313
 91  5 20 18 27 45.0000000  0  5G18G19G11G16G 6
  21291388.555     2186245.545 7   1703565.93522        26.250           2.313
  20754303.055      290434.823 6    226312.81922        17.750           1.875
  23548484.516    -2070499.198 6  -1613369.94421        14.750           0.406
  23720387.938    -1813427.887 5  -1413059.94221         9.750           0.313
  24267292.016    -1253783.046 4   -893575.20521         7.250           0.281
 91  5 20 18 28  0.0000000  0  5G18G19G11G16G 6
  21297492.836     2218322.571 7   1728560.98722        26.000           2.281
  20755179.508      295050.939 6    229909.79922        18.000           1.906
  23543710.188    -2095589.000 6  -1632920.37921        14.500           0.563
  23716383.195    -1834521.087 5  -1429496.18321        10.500           0.313
  24260467.086    -1289651.728 5   -921524.71821         7.750           0.281
 91  5 20 18 28 15.0000000  0  5G18G19G11G16G 6
  21303612.047     2250476.612 7   1753616.04322        26.000           2.313
  20756064.836      299697.571 6    233530.54622        17.750           1.906
  23538954.727    -2120581.058 6  -1652394.64621        14.500           0.594
  23712390.273    -1855506.722 5  -1445848.63421        10.750           0.406
  24253639.023    -1325520.275 5   -949474.16721         7.500           0.156
 91  5 20 18 28 30.0000000  0  5G18G19G11G16G 6
  21309746.453     2282713.899 7   1778735.97022        26.250           2.344
  20756955.820      304380.988 6    237179.96422        18.000           1.938
  23534216.953    -2145468.622 6  -1671787.48421        14.500           0.594
  23708415.664    -1876378.305 5  -1462112.20921        10.000           0.438
  24246817.023    -1361382.194 5   -977418.38721         8.000           0.250
 91  5 20 18 28 45.0000000  0  5G18G19G11G16G 6
  21315896.898     2315033.416 7   1803919.96822        26.000           2.281
  20757854.375      309100.193 6    240857.26922        17.750           1.844
  23529501.273    -2170252.263 6  -1691099.35821        14.500           0.500
  23704463.391    -1897136.276 5  -1478287.23621         9.750           0.344
  24239991.266    -1397238.482 5  -1005358.27121         7.500           0.250
 91  5 20 18 29  0.0000000  0  5G18G19G11G16G 6
  21322062.297     2347433.607 7   1829166.82622        26.000           2.313
  20758759.641      313853.877 6    244561.43822        17.250           2.000
  23524805.109    -2194932.977 6  -1710331.01721        14.500           0.688
  23700538.133    -1917782.031 5  -1494374.82121        10.000           0.469
  24233169.891    -1433090.451 5  -1033294.76921         8.000           0.313
 91  5 20 18 29 15.0000000  0  5G18G19G11G16G 6
  21328243.875     2379917.952 7   1854479.26622        26.000           2.250
  20759670.820      318645.467 6    248295.14322        17.500           1.813
  23520128.188    -2219507.322 6  -1729479.79221        14.500           0.531
  23696632.664    -1938312.194 5  -1510372.36021        10.500           0.406
  24226346.688    -1468935.009 5  -1061225.48721         7.750           0.250
 91  5 20 18 29 30.0000000  0  5G18G19G11G16G 6
  21334440.703     2412483.580 7   1879855.03622        26.000           2.188
  20760587.484      323472.141 6    252056.19022        17.750           1.938
  23515473.133    -2243977.616 6  -1748547.48721        14.750           0.625
  23692747.000    -1958728.930 5  -1526281.49821        10.250           0.313
  24219527.875    -1504774.819 5  -1089152.50921         7.750           0.188
 91  5 20 18 29 45.0000000  0  5G18G19G11G16G 6
  21340653.789     2445131.669 7   1905295.06522        26.000           2.188
  20761514.836      328335.379 6    255845.72522        17.500           1.813
  23510835.820    -2268342.197 6  -1767532.82021        14.500           0.688
  23688880.344    -1979030.979 5  -1542101.27521        10.000           0.531
  24212709.266    -1540608.382 5  -1117074.65921         7.750           0.281
 91  5 20 18 30  0.0000000  0  5G18G19G11G16G 6
  21346882.344     2477861.822 7   1930799.03822        26.000           2.250
  20762446.063      333235.189 6    259663.76522        17.500           1.906
  23506220.242    -2292600.828 6  -1786435.58621        14.750           0.563
  23685040.438    -1999218.551 5  -1557831.84321         9.750           0.438
  24205892.023    -1576435.943 5  -1144992.12921         7.750           0.281
 91  5 20 18 30 15.0000000  0  5G18G19G11G16G 6
  21353126.156     2510677.292 7   1956369.49022        26.000           2.219
  20763386.914      338174.479 6    263512.56522        17.250           1.938
  23501623.797    -2316749.908 6  -1805252.99521        14.750           0.688
  23681223.781    -2019287.766 5  -1573470.19121        10.500           0.500
  24199074.953    -1612254.329 5  -1172902.49121         8.000           0.250
 91  5 20 18 30 30.0000000  0  5G18G19G11G16G 6
  21359387.148     2543577.127 7   1982005.68122        25.750           2.281
  20764334.016      343152.370 6    267391.44122        17.500           1.875
  23497050.688    -2340789.969 6  -1823985.45821        14.750           0.531
  23677430.500    -2039239.770 5  -1589017.19921        10.750           0.438
  24192258.891    -1648064.322 5  -1200806.28621         8.000           0.250
 91  5 20 18 30 45.0000000  0  5G18G19G11G16G 6
  21365663.211     2576560.035 7   2007706.60422        25.500           2.250
  20765289.156      348167.780 6    271299.55222        17.000           1.875
  23492496.305    -2364721.957 6  -1842633.69021        14.750           0.531
  23673649.383    -2059075.617 5  -1604473.71621        10.000           0.375
  24185448.305    -1683867.256 5  -1228704.56721         8.500           0.250
 91  5 20 18 31  0.0000000  0  5G18G19G11G16G 6
  21371956.469     2609631.193 7   2033476.29422        25.000           2.219
  20766251.133      353226.337 6    275241.28722        17.250           1.969
  23487963.313    -2388539.929 6  -1861193.10521        15.000           0.656
  23669898.055    -2078789.416 5  -1619835.12221         9.750           0.406
  24178636.906    -1719657.499 5  -1256592.96821         8.250           0.219
 91  5 20 18 31 15.0000000  0  5G18G19G11G16G 6
  21378265.117     2642781.310 7   2059307.50622        24.750           2.219
  20767220.000      358318.963 6    279209.56422        17.250           1.969
  23483450.953    -2412252.882 6  -1879670.67021        15.000           0.531
  23666168.477    -2098390.282 5  -1635108.52921         9.750           0.406
  24171829.133    -1755444.350 5  -1284478.73421         8.500           0.281
 91  5 20 18 31 30.0000000  0  5G18G19G11G16G 6
  21384590.523     2676020.143 7   2085207.84722        25.000           2.125
  20768196.094      363455.425 6    283212.00322        17.750           1.969
  23478958.898    -2435850.644 6  -1898058.48621        14.750           0.531
  23662460.297    -2117868.060 5  -1650286.01721        10.000           0.313
  24165019.938    -1791217.835 5  -1312354.07521         8.000           0.313
 91  5 20 18 31 45.0000000  0  5G18G19G11G16G 6
  21390931.695     2709348.607 7   2111178.03822        24.750           2.250
  20769184.148      368636.355 6    287249.09522        16.750           2.094
  23474492.570    -2459332.208 6  -1916355.75821        15.000           0.531
  23658782.664    -2137221.694 5  -1665366.77721        10.250           0.406
  24158214.508    -1826977.293 5  -1340218.49821         8.000           0.250
 91  5 20 18 32  0.0000000  0  5G18G19G11G16G 6
  21397291.109     2742764.191 7   2137216.10422        24.500           2.281
  20770176.594      373859.547 6    291319.11122        17.250           1.906
  23470045.250    -2482699.449 6  -1934563.94321        14.750           0.469
  23655123.008    -2156453.563 5  -1680352.64521        10.500           0.500
  24151411.539    -1862724.985 5  -1368073.73221         8.000           0.375
 91  5 20 18 32 15.0000000  0  5G18G19G11G16G 6
  21403666.828     2776269.466 7   2163324.06622        24.250           2.156
  20771179.953      379127.730 6    295424.18722        17.000           1.781
  23465621.070    -2505949.391 6  -1952680.73421        15.000           0.594
  23651489.813    -2175560.965 5  -1695241.54121        10.500           0.438
  24144611.313    -1898458.262 5  -1395917.75221         8.000           0.344
 91  5 20 18 32 30.0000000  0  5G18G19G11G16G 6
  21410058.359     2809856.831 7   2189495.99722        24.250           2.219
  20772188.625      384433.679 6    299558.68922        17.500           1.875
  23461216.859    -2529088.942 6  -1970711.50221        15.000           0.625
  23647871.773    -2194550.937 5  -1710038.92821        10.000           0.344
  24137814.461    -1934184.413 5  -1423756.20721         8.250           0.219
 91  5 20 18 32 45.0000000  0  5G18G19G11G16G 6
  21416466.984     2843531.811 7   2215736.19422        24.250           2.219
  20773207.734      389783.073 6    303727.04622        17.000           1.875
  23456835.922    -2552112.282 6  -1988651.72021        15.000           0.531
  23644280.203    -2213417.823 5  -1724740.40221        10.000           0.469
  24131018.055    -1969897.785 5  -1451584.71821         8.000           0.250
 91  5 20 18 33  0.0000000  0  5G18G19G11G16G 6
  21422891.211     2877292.899 7   2242043.48822        24.250           2.156
  20774234.625      395174.234 6    307927.95122        17.250           1.781
  23452476.000    -2575020.651 6  -2006502.34721        15.000           0.625
  23640717.883    -2232162.932 5  -1739346.97321        10.500           0.406
  24124224.422    -2005600.100 5  -1479404.60321         8.000           0.250
 91  5 20 18 33 15.0000000  0  5G18G19G11G16G 6
  21429332.391     2911139.997 7   2268417.80922        24.000           2.188
  20775268.367      400607.459 6    312161.62222        17.250           1.906
  23448138.508    -2597813.589 6  -2024263.03921        15.000           0.625
  23637174.641    -2250785.856 5  -1753858.34921        10.500           0.375
  24117431.844    -2041291.030 5  -1507215.61021         7.750           0.219
 91  5 20 18 33 30.0000000  0  5G18G19G11G16G 6
  21435790.375     2945077.450 7   2294862.53322        24.250           2.094
  20776309.047      406086.913 6    316431.32522        17.500           1.844
  23443824.797    -2620486.344 6  -2041930.06821        15.000           0.563
  23633647.805    -2269282.015 5  -1768270.94821        10.000           0.375
  24110642.750    -2076966.380 5  -1535014.50321         8.000           0.250
 91  5 20 18 33 45.0000000  0  5G18G19G11G16G 6
  21442266.039     2979109.074 7   2321380.63422        24.250           2.125
  20777362.883      411616.717 6    320740.26222        17.500           1.875
  23439534.063    -2643034.683 6  -2059500.16021        15.250           0.719
  23630153.117    -2287647.647 5  -1782581.81721         9.750           0.438
  24103857.852    -2112622.023 5  -1562798.04421         7.750           0.156
 91  5 20 18 34  0.0000000  0  5G18G19G11G16G 6
  21448762.531     3013244.534 7   2347979.64822        24.000           2.094
  20778425.813      417206.889 6    325096.23622        17.500           1.906
  23435268.469    -2665448.385 6  -2076965.34521        15.250           0.656
  23626694.547    -2305872.571 5  -1796783.05321        10.750           0.500
  24097077.633    -2148248.178 5  -1590558.57921         8.000           0.188
 91  5 20 18 34 15.0000000  0  5G18G19G11G16G 6
  21455275.883     3047471.841 7   2374650.23322        24.000           2.188
  20779499.570      422845.504 6    329489.95522        17.250           1.781
  23431026.063    -2687739.049 6  -2094334.65621        15.250           0.719
  23623248.492    -2323968.502 5  -1810883.76121        10.500           0.313
  24090301.906    -2183856.756 5  -1618305.44921         7.750           0.250
 91  5 20 18 34 30.0000000  0  5G18G19G11G16G 6
  21461806.016     3081791.517 7   2401392.79322        24.000           1.906
  20780581.016      428533.206 6    333921.93022        17.750           1.750
  23426808.242    -2709905.772 6  -2111607.38221        15.500           0.719
  23619824.430    -2341934.778 5  -1824883.47221        10.000           0.406
  24083527.672    -2219447.075 5  -1646038.05421         7.500           0.250
 91  5 20 18 34 45.0000000  0  5G18G19G11G16G 6
  21468354.953     3116205.099 7   2428208.52622        24.000           2.031
  20781673.680      434271.580 6    338393.39222        17.250           1.875
  23422613.617    -2731946.523 6  -2128781.94721        15.750           0.750
  23616427.789    -2359769.411 5  -1838780.58021        10.000           0.438
  24076761.242    -2255017.548 5  -1673755.20121         7.750           0.250
 91  5 20 18 35  0.0000000  0  5G18G19G11G16G 6
  21474920.141     3150705.910 7   2455092.22922        24.000           2.031
  20782773.719      440054.020 6    342899.18922        17.750           1.844
  23418442.414    -2753867.780 6  -2145863.40721        15.250           0.688
  23613060.570    -2377479.092 5  -1852580.33721        10.000           0.313
  24069994.992    -2290574.815 5  -1701462.07921         7.750           0.219
 91  5 20 18 35 15.0000000  0  5G18G19G11G16G 6
  21481502.039     3185295.769 7   2482045.31922        24.000           2.000
  20783884.570      445882.745 6    347441.05022        17.250           1.844
  23414295.086    -2775667.079 6  -2162849.83421        15.500           0.719
  23609715.586    -2395061.356 5  -1866280.80721        10.000           0.406
  24063229.758    -2326116.766 5  -1729157.01821         7.750           0.313
 91  5 20 18 35 30.0000000  0  5G18G19G11G16G 6
  21488102.898     3219974.951 7   2509068.00422        24.000           2.094
  20785002.289      451758.028 6    352019.18822        17.000           1.844
  23410169.344    -2797343.739 6  -2179740.69521        15.750           0.688
  23606396.750    -2412515.906 5  -1879881.75621        10.250           0.438
  24056469.867    -2361643.071 5  -1756839.75521         7.750           0.281
 91  5 20 18 35 45.0000000  0  5G18G19G11G16G 6
  21494718.438     3254745.916 7   2536162.21822        24.000           2.031
  20786129.344      457682.425 6    356635.60522        17.250           1.813
  23406069.852    -2818894.928 6  -2196533.79521        15.500           0.750
  23603102.352    -2429840.121 5  -1893381.13821        10.500           0.406
  24049713.102    -2397151.028 5  -1784508.20721         7.750           0.250
 91  5 20 18 36  0.0000000  0  5G18G19G11G16G 6
  21501352.266     3289604.880 7   2563325.00422        24.000           2.031
  20787263.242      463652.099 6    361287.29322        18.000           1.875
  23401990.547    -2840324.182 6  -2213231.87421        15.750           0.625
  23599829.906    -2447037.605 5  -1906781.78421        10.500           0.375
  24042957.836    -2432644.627 5  -1812165.47721         7.750           0.125
 91  5 20 18 36 15.0000000  0  5G18G19G11G16G 6
  21508002.398     3324551.403 7   2590556.01322        23.750           2.125
  20788410.305      469667.040 6    365974.25722        17.250           1.813
  23397936.383    -2861631.370 6  -2229834.83721        15.750           0.688
  23596581.484    -2464108.320 5  -1920083.64621        10.500           0.375
  24036207.281    -2468124.075 5  -1839811.70121         7.750           0.156
 91  5 20 18 36 30.0000000  0  5G18G19G11G16G 6
  21514669.859     3359585.808 7   2617855.50522        23.750           2.000
  20789563.445      475727.942 6    370697.03622        17.250           1.688
  23393905.039    -2882815.332 6  -2246341.78021        15.500           0.750
  23593358.484    -2481051.544 5  -1933286.16521        10.500           0.406
  24029459.242    -2503588.485 5  -1867446.21321         8.000           0.188
 91  5 20 18 36 45.0000000  0  5G18G19G11G16G 6
  21521352.539     3394708.260 7   2645223.60522        23.750           2.063
  20790725.625      481834.826 6    375455.64222        17.000           1.813
  23389897.141    -2903875.786 6  -2262752.49621        15.750           0.625
  23590152.531    -2497866.775 5  -1946388.94921        10.250           0.469
  24022712.711    -2539037.899 5  -1895069.04721         8.000           0.219
 91  5 20 18 37  0.0000000  0  5G18G19G11G16G 6
  21528053.219     3429918.223 7   2672659.89422        23.750           2.031
  20791896.297      487987.279 6    380249.75722        17.000           1.750
  23385912.297    -2924813.198 6  -2279067.31521        15.750           0.844
  23586973.953    -2514555.034 5  -1959392.78021        10.000           0.375
  24015970.148    -2574472.982 5  -1922680.72621         8.000           0.250
 91  5 20 18 37 15.0000000  0  5G18G19G11G16G 6
  21534769.547     3465215.057 7   2700163.86922        23.750           2.000
  20793076.430      494184.810 6    385078.99922        17.000           1.750
  23381951.922    -2945627.581 6  -2295286.27321        15.750           0.781
  23583822.344    -2531116.366 5  -1972297.71821        10.250           0.375
  24009228.445    -2609894.070 5  -1950281.44321         8.000           0.188
 91  5 20 18 37 30.0000000  0  5G18G19G11G16G 6
  21541503.305     3500599.788 7   2727736.34122        23.750           2.063
  20794260.680      500428.614 6    389944.29822        17.500           1.813
  23378015.281    -2966317.448 6  -2311408.21421        16.000           0.813
  23580696.125    -2547549.279 5  -1985102.57921        10.250           0.406
  24002491.203    -2645299.962 5  -1977870.37421         8.250           0.188
 91  5 20 18 37 45.0000000  0  5G18G19G11G16G 6
  21548253.727     3536074.561 7   2755378.97222        23.750           2.094
  20795460.891      506721.425 6    394847.78222        17.000           1.875
  23374102.422    -2986879.878 6  -2327430.84421        15.750           0.688
  23577594.930    -2563851.244 5  -1997805.41821        10.000           0.438
  23995756.070    -2680687.974 5  -2005445.36421         8.250           0.281
 91  5 20 18 38  0.0000000  0  5G18G19G11G16G 6
  21555021.227     3571635.757 7   2783088.94722        23.500           2.000
  20796667.789      513059.299 6    399786.38522        16.500           1.750
  23370212.570    -3007318.643 6  -2343357.12321        16.000           0.781
  23574520.063    -2580026.058 5  -2010409.17721        10.500           0.406
  23989025.188    -2716062.210 5  -2033009.60321         8.250           0.281
 91  5 20 18 38 15.0000000  0  5G18G19G11G16G 6
  21561805.047     3607285.668 7   2810868.04422        23.500           2.156
  20797883.211      519444.799 6    404762.10122        17.000           1.875
  23366347.414    -3027630.764 6  -2359184.70921        15.750           0.719
  23571467.539    -2596070.950 5  -2022911.69221        10.500           0.375
  23982297.727    -2751420.069 5  -2060561.10721         8.500           0.344
 91  5 20 18 38 30.0000000  0  5G18G19G11G16G 6
  21568605.828     3643023.694 7   2838715.81222        23.500           2.063
  20799108.203      525877.585 6    409774.66222        16.500           1.813
  23362506.992    -3047816.393 6  -2374913.73021        15.500           0.813
  23568438.305    -2611985.946 5  -2035312.98621        10.500           0.469
  23975571.898    -2786761.895 5  -2088100.08121         8.250           0.313
 91  5 20 18 38 45.0000000  0  5G18G19G11G16G 6
  21575423.625     3678849.768 7   2866632.18222        23.500           2.000
  20800339.711      532357.895 6    414824.25122        17.000           1.688
  23358689.195    -3067875.117 6  -2390543.87121        15.500           0.750
  23565429.586    -2627771.245 5  -2047613.22121        10.000           0.313
  23968848.711    -2822087.660 5  -2115626.55221         8.250           0.250
 91  5 20 18 39  0.0000000  0  5G18G19G11G16G 6
  21582257.000     3714760.482 7   2894614.50822        23.250           2.188
  20801582.336      538882.055 6    419908.01822        16.500           1.813
  23354895.516    -3087810.158 6  -2406077.63421        15.500           0.781
  23562455.352    -2643430.151 5  -2059814.96921        10.750           0.344
  23962129.242    -2857400.789 5  -2143143.17821         8.500           0.375
 91  5 20 18 39 15.0000000  0  5G18G19G11G16G 6
  21589107.492     3750758.014 7   2922664.47522        23.250           2.094
  20802831.273      545452.482 6    425027.82622        17.250           1.906
  23351126.258    -3107618.870 6  -2421512.95321        15.750           0.813
  23559500.984    -2658959.863 5  -2071916.05121        10.500           0.438
  23955412.086    -2892698.943 5  -2170648.14921         8.250           0.313
 91  5 20 18 39 30.0000000  0  5G18G19G11G16G 6
  21595974.883     3786845.199 7   2950784.31122        23.250           2.063
  20804088.156      552072.410 6    430186.21522        18.000           1.813
  23347381.516    -3127297.744 6  -2436847.11021        15.750           0.813
  23556573.281    -2674357.318 5  -2083914.07721        10.750           0.344
  23948700.516    -2927978.884 5  -2198138.90921         8.750           0.313
 91  5 20 18 39 45.0000000  0  5G18G19G11G16G 6
  21602856.914     3823012.635 7   2978966.67822        23.000           2.125
  20805358.234      558732.498 6    435375.89722        17.250           1.750
  23343659.109    -3146856.036 6  -2452087.29421        15.750           0.781
  23553662.164    -2689631.758 5  -2095816.23721        10.500           0.344
  23941988.727    -2963250.188 5  -2225622.95621         8.250           0.313
 91  5 20 18 40  0.0000000  0  5G18G19G11G16G 6
  21609755.469     3859263.076 7   3007213.71822        22.750           2.125
  20806632.680      565435.806 6    440599.25322        17.750           1.750
  23339960.563    -3166290.358 6  -2467230.89621        15.750           0.844
  23550779.555    -2704780.209 5  -2107620.21621        10.250           0.500
  23935277.953    -2998509.766 5  -2253097.83021         8.500           0.375
 91  5 20 18 40 15.0000000  0  5G18G19G11G16G 6
  21616668.742     3895596.101 7   3035525.11222        22.750           2.094
  20807918.406      572181.856 6    445855.91422        17.250           1.813
  23336285.844    -3185600.911 6  -2482278.04221        16.000           0.813
  23547919.414    -2719802.915 5  -2119326.22821        10.250           0.406
  23928571.352    -3033758.134 5  -2280563.99221         8.250           0.344
 91  5 20 18 40 30.0000000  0  5G18G19G11G16G 6
  21623597.703     3932006.697 7   3063896.95322        23.000           2.094
  20809208.305      578965.893 6    451142.17422        17.250           1.719
  23332634.063    -3204792.130 6  -2497232.20721        16.000           0.844
  23545085.680    -2734704.604 5  -2130937.91721        10.500           0.500
  23921863.539    -3068999.982 5  -2308025.09721         8.500           0.313
 91  5 20 18 40 45.0000000  0  5G18G19G11G16G 6
  21630543.172     3968499.218 7   3092332.62622        22.750           2.063
  20810508.281      585792.487 6    456461.59722        17.000           1.750
  23329006.266    -3223859.265 6  -2512089.68321        16.000           0.750
  23542277.953    -2749480.556 5  -2142451.65921        10.750           0.500
  23915159.047    -3104230.755 5  -2335477.54021         8.250           0.313
 91  5 20 18 41  0.0000000  0  5G18G19G11G16G 6
  21637502.797     4005077.084 7   3120834.80122        22.750           2.000
  20811815.383      592665.331 6    461817.05522        17.500           1.781
  23325402.156    -3242798.472 6  -2526847.47221        16.000           0.750
  23539483.883    -2764127.121 5  -2153864.57421        10.250           0.344
  23908456.602    -3139446.866 5  -2362918.57521         8.500           0.344
 91  5 20 18 41 15.0000000  0  5G18G19G11G16G 6
  21644479.695     4041741.339 7   3149404.29722        22.750           2.094
  20813132.914      599585.510 6    467209.40222        17.250           1.688
  23321822.367    -3261608.223 6  -2541504.38821        16.000           0.938
  23536718.133    -2778642.973 5  -2165175.62221         9.750           0.438
  23901758.063    -3174647.201 5  -2390347.30521         8.500           0.375
 91  5 20 18 41 30.0000000  0  5G18G19G11G16G 6
  21651472.523     4078488.884 7   3178038.68822        22.750           1.906
  20814459.477      606550.151 6    472636.39322        17.000           1.719
  23318267.297    -3280291.285 6  -2556062.58221        15.750           0.781
  23533986.492    -2793031.167 5  -2176387.20421        10.500           0.531
  23895062.727    -3209834.796 5  -2417766.11321         8.500           0.250
 91  5 20 18 41 45.0000000  0  5G18G19G11G16G 6
  21658481.219     4115320.832 7   3206738.85122        22.750           2.031
  20815792.555      613560.203 6    478098.77622        17.250           1.656
  23314737.203    -3298846.313 6  -2570521.00421        15.750           0.875
  23531276.000    -2807290.380 5  -2187498.28321        10.750           0.469
  23888369.695    -3245008.535 5  -2445174.12521         8.250           0.406
 91  5 20 18 42  0.0000000  0  5G18G19G11G16G 6
  21665506.500     4152236.997 7   3235504.64522        22.500           2.156
  20817134.609      620615.925 6    483596.73722        17.250           1.719
  23311230.320    -3317273.000 6  -2584879.42121        15.750           0.781
  23528586.531    -2821420.613 5  -2198508.87021        10.500           0.469
  23881680.625    -3280168.352 5  -2472571.28221         8.500           0.344
 91  5 20 18 42 15.0000000  0  5G18G19G11G16G 6
  21672548.172     4189235.519 7   3264334.59922        22.250           1.969
  20818485.258      627715.404 6    489128.79822        17.500           1.625
  23307746.813    -3335572.972 6  -2599139.10821        15.750           0.844
  23525924.586    -2835423.408 5  -2209420.14421        10.750           0.500
  23874988.656    -3315316.104 5  -2499959.06021         8.500           0.344
 91  5 20 18 42 30.0000000  0  5G18G19G11G16G 6
  21679602.891     4226316.384 7   3293228.71722        22.250           2.031
  20819845.453      634859.110 6    494695.32322        17.500           1.656
  23304288.898    -3353745.613 6  -2613299.56621        15.750           0.813
  23523280.258    -2849298.339 5  -2220231.78821        10.500           0.406
  23868303.695    -3350451.504 5  -2527337.20121         8.500           0.344
 91  5 20 18 42 45.0000000  0  5G18G19G11G16G 6
  21686676.492     4263481.376 7   3322188.39322        22.750           2.063
  20821213.109      642049.258 6    500298.03622        18.000           1.625
  23300856.742    -3371788.479 6  -2627358.90821        15.500           0.781
  23520664.203    -2863043.178 5  -2230942.04521        11.000           0.438
  23861620.703    -3385572.355 5  -2554704.00521         8.500           0.375
 91  5 20 18 43  0.0000000  0  5G18G19G11G16G 6
  21693764.742     4300728.647 7   3351212.17422        23.000           2.000
  20822589.898      649283.864 6    505935.38822        18.250           1.625
  23297447.102    -3389703.197 6  -2641318.39021        15.250           0.875
  23518070.453    -2876659.689 5  -2241552.31221        10.500           0.469
  23854939.078    -3420680.561 5  -2582060.96121         8.500           0.406
 91  5 20 18 43 15.0000000  0  5G18G19G11G16G 6
  21700868.773     4338063.149 7   3380303.92922        23.000           2.031
  20823976.141      656568.071 6    511611.39222        18.250           1.719
  23294063.109    -3407484.431 6  -2655173.85821        15.500           0.875
  23515502.258    -2890143.060 5  -2252058.83821        10.500           0.469
  23848262.953    -3455770.942 5  -2609404.01921         8.750           0.406
 91  5 20 18 43 30.0000000  0  5G18G19G11G16G 6
  21707988.672     4375479.401 7   3409459.38822        23.000           2.031
  20825371.602      663896.379 6    517321.76022        18.000           1.656
  23290704.164    -3425137.492 6  -2668929.45921        15.500           0.781
  23512964.125    -2903498.875 5  -2262465.96721        10.750           0.406
  23841587.492    -3490849.161 5  -2636737.61221         8.250           0.250
 91  5 20 18 43 45.0000000  0  5G18G19G11G16G 6
  21715123.633     4412974.357 7   3438676.17722        23.000           1.938
  20826773.453      671265.742 6    523064.12422        18.000           1.719
  23287368.102    -3442665.116 6  -2682587.30721        15.750           0.813
  23510449.227    -2916729.500 5  -2272775.53621        11.000           0.406
  23834913.617    -3525918.251 5  -2664064.08221         8.500           0.313
 91  5 20 18 44  0.0000000  0  5G18G19G11G16G 6
  21722274.063     4450551.974 7   3467957.37222        23.000           2.000
  20828182.547      678680.415 6    528841.78422        18.500           1.719
  23284057.516    -3460062.891 6  -2696143.98121        15.750           0.813
  23507953.914    -2929830.656 5  -2282984.23721        10.750           0.375
  23828243.922    -3560973.951 5  -2691380.12721         8.250           0.375
 91  5 20 18 44 15.0000000  0  5G18G19G11G16G 6
  21729442.430     4488215.356 7   3497305.39822        23.000           1.906
  20829605.078      686144.043 6    534657.59822        17.750           1.625
  23280772.547    -3477326.982 6  -2709596.47821        15.750           0.781
  23505481.391    -2942798.958 5  -2293089.39421        10.500           0.469
  23821572.727    -3596012.713 5  -2718682.97121         8.250           0.375
 91  5 20 18 44 30.0000000  0  5G18G19G11G16G 6
  21736625.961     4525962.686 7   3526718.83122        23.000           1.938
  20831032.750      693654.982 6    540510.27722        18.000           1.781
  23277512.547    -3494458.940 6  -2722946.02021        15.750           0.719
  23503043.352    -2955636.150 5  -2303092.41621        10.500           0.406
  23814911.320    -3631036.243 5  -2745973.94821         8.250           0.406
 91  5 20 18 44 45.0000000  0  5G18G19G11G16G 6
  21743823.211     4563791.040 7   3556195.41022        23.000           1.938
  20832471.359      701210.429 6    546397.63722        17.750           1.688
  23274276.586    -3511461.200 6  -2736194.49521        15.750           0.875
  23500625.266    -2968344.346 5  -2312994.89921        11.000           0.438
  23808247.195    -3666047.336 5  -2773255.22021         8.500           0.344
 91  5 20 18 45  0.0000000  0  5G18G19G11G16G 6
  21751037.906     4601699.925 7   3585734.73622        23.000           1.781
  20833916.672      708809.764 6    552319.19322        17.750           1.688
  23271065.453    -3528333.934 6  -2749342.05221        15.750           0.781
  23498230.492    -2980924.169 5  -2322797.34721        10.750           0.469
  23801586.383    -3701046.466 5  -2800527.17321         8.500           0.250
 91  5 20 18 45 15.0000000  0  5G18G19G11G16G 6
  21758267.195     4639687.418 7   3615335.31522        23.000           1.844
  20835371.281      716451.490 6    558273.78522        17.750           1.656
  23267880.094    -3545078.749 6  -2762389.92321        15.500           0.813
  23495861.617    -2993377.563 5  -2332501.32521        11.000           0.500
  23794929.758    -3736035.399 5  -2827791.17521         8.500           0.438
 91  5 20 18 45 30.0000000  0  5G18G19G11G16G 6
  21765511.180     4677757.243 7   3645000.05022        22.750           1.844
  20836835.242      724139.315 6    564264.29822        17.500           1.719
  23264719.289    -3561691.684 6  -2775335.03721        15.500           0.875
  23493515.242    -3005700.592 5  -2342103.71521        10.750           0.375
  23788273.688    -3771010.385 5  -2855044.33421         8.750           0.375
 91  5 20 18 45 45.0000000  0  5G18G19G11G16G 6
  21772770.992     4715907.612 7   3674727.54822        22.500           1.719
  20838305.984      731872.152 6    570289.87622        17.750           1.688
  23261582.297    -3578173.477 6  -2788177.96121        15.500           0.844
  23491199.328    -3017894.148 5  -2351605.18921        11.000           0.438
  23781620.336    -3805972.550 5  -2882287.46021         8.750           0.281
 91  5 20 18 46  0.0000000  0  5G18G19G11G16G 6
  21780046.078     4754139.084 7   3704518.24022        22.500           1.781
  20839785.453      739650.696 6    576351.07622        18.000           1.625
  23258470.914    -3594523.446 6  -2800918.16621        15.500           0.813
  23488900.773    -3029957.773 5  -2361005.40921        10.750           0.594
  23774969.172    -3840921.328 5  -2909520.20221         8.750           0.469
 91  5 20 18 46 15.0000000  0  5G18G19G11G16G 6
  21787337.211     4792451.230 7   3734371.78822        22.750           1.750
  20841274.836      747474.409 6    582447.47222        17.750           1.781
  23255384.172    -3610741.820 6  -2813555.82921        15.750           0.719
  23486630.688    -3041891.696 5  -2370304.57221        10.750           0.469
  23768323.422    -3875857.207 5  -2936742.86121         9.000           0.344
 91  5 20 18 46 30.0000000  0  5G18G19G11G16G 6
  21794643.609     4830847.183 7   3764290.64522        22.500           1.813
  20842772.016      755346.444 6    588581.52722        17.750           1.719
  23252324.563    -3626825.168 6  -2826088.28021        15.500           0.813
  23484383.398    -3053693.111 5  -2379500.51021        10.250           0.406
  23761675.680    -3910777.154 5  -2963953.12421         9.000           0.281
 91  5 20 18 46 45.0000000  0  5G18G19G11G16G 6
  21801964.719     4869321.736 7   3794270.75222        22.250           1.750
  20844279.258      763262.084 6    594749.55122        17.500           1.719
  23249287.984    -3642778.004 6  -2838519.02721        15.250           0.844
  23482164.305    -3065366.295 6  -2388596.46921        12.000           0.563
  23755034.188    -3945685.780 5  -2991154.57021         9.000           0.438
 91  5 20 18 47  0.0000000  0  5G18G19G11G16G 6
  21809300.969     4907872.462 7   3824310.21222        22.250           1.875
  20845793.008      771219.211 6    600949.90722        18.000           1.750
  23246276.578    -3658602.470 6  -2850849.74721        15.500           0.875
  23479966.844    -3076913.664 5  -2397594.46921        10.500           0.438
  23748393.008    -3980585.472 5  -3018349.05321         9.000           0.469
 91  5 20 18 47 15.0000000  0  5G18G19G11G16G 6
  21816652.188     4946503.521 7   3854412.27122        22.000           1.781
  20847317.313      779221.714 6    607185.62322        17.500           1.844
  23243290.789    -3674294.106 6  -2863076.96121        15.500           0.813
  23477793.148    -3088331.033 5  -2406491.12421        11.000           0.406
  23741753.813    -4015472.025 5  -3045533.30421         9.000           0.375
 91  5 20 18 47 30.0000000  0  5G18G19G11G16G 6
  21824021.781     4985230.401 7   3884588.99222        22.000           1.719
  20848849.813      787285.455 6    613469.04922        18.000           1.813
  23240333.125    -3689836.950 6  -2875188.23521        15.250           0.813
  23475648.023    -3099602.581 5  -2415274.14121        10.750           0.531
  23735119.367    -4050329.744 5  -3072695.07121         9.000           0.344
 91  5 20 18 47 45.0000000  0  5G18G19G11G16G 6
  21831406.266     5024034.307 7   3914825.73122        22.000           1.656
  20850393.156      795391.829 6    619785.70122        17.500           1.656
  23237400.281    -3705249.534 6  -2887198.00521        15.500           0.750
  23473526.797    -3110746.872 5  -2423958.02221        10.500           0.375
  23728490.594    -4085177.335 5  -3099848.97021         9.250           0.344
 91  5 20 18 48  0.0000000  0  5G18G19G11G16G 6
  21838804.938     5062917.016 7   3945123.87822        22.250           1.688
  20851944.594      803542.896 6    626137.17822        17.500           1.719
  23234492.883    -3720529.836 6  -2899104.69421        15.500           0.813
  23471431.633    -3121762.056 5  -2432541.26521        10.750           0.531
  23721860.914    -4120012.870 5  -3126993.46221         9.250           0.375
 91  5 20 18 48 15.0000000  0  5G18G19G11G16G 6
  21846217.828     5101869.900 7   3975476.70822        22.000           1.625
  20853502.266      811730.526 6    632517.14322        17.500           1.781
  23231608.180    -3735685.716 6  -2910914.44321        15.250           0.781
  23469357.398    -3132656.229 5  -2441030.25221        10.500           0.500
  23715231.688    -4154844.514 5  -3154134.91621         9.250           0.344
 91  5 20 18 48 30.0000000  0  5G18G19G11G16G 6
  21853644.109     5140894.744 7   4005885.60522        21.750           1.656
  20855066.172      819956.438 6    638926.93722        17.750           1.594
  23228748.203    -3750715.010 6  -2922625.54821        15.500           0.813
  23467307.602    -3143427.441 5  -2449423.42521        10.500           0.375
  23708605.156    -4189670.488 5  -3181271.96921         9.500           0.344
 91  5 20 18 48 45.0000000  0  5G18G19G11G16G 6
  21861083.266     5179988.065 7   4036347.86122        22.000           1.656
  20856639.914      828217.099 6    645363.81322        17.500           1.781
  23225912.492    -3765620.945 6  -2934240.52421        15.750           0.781
  23465280.711    -3154078.961 5  -2457723.32421        10.750           0.500
  23701977.906    -4224494.151 5  -3208407.21021         9.250           0.438
 91  5 20 18 49  0.0000000  0  5G18G19G11G16G 6
  21868535.320     5219151.151 7   4066864.48322        21.750           1.656
  20858219.836      836514.050 6    651828.96022        17.000           1.750
  23223099.477    -3780401.918 6  -2945758.13521        15.500           0.719
  23463276.695    -3164609.351 5  -2465928.81621        11.000           0.531
  23695351.031    -4259314.204 5  -3235539.65121         9.250           0.250
 91  5 20 18 49 15.0000000  0  5G18G19G11G16G 6
  21876001.906     5258386.691 7   4097437.56822        21.750           1.656
  20859806.078      844850.304 6    658324.73522        17.250           1.750
  23220310.727    -3795054.718 6  -2957175.87221        15.500           0.688
  23461297.555    -3175015.526 5  -2474037.53821        10.750           0.438
  23688726.547    -4294127.544 5  -3262666.85621         9.250           0.250
 91  5 20 18 49 30.0000000  0  5G18G19G11G16G 6
  21883480.688     5297689.053 7   4128062.72022        21.750           1.688
  20861399.328      853220.487 6    664846.94222        17.000           1.719
  23217545.883    -3809584.562 6  -2968497.79021        15.500           0.781
  23459340.289    -3185303.119 5  -2482053.85621        10.750           0.406
  23682102.102    -4328939.682 5  -3289793.14621         9.250           0.281
 91  5 20 18 49 45.0000000  0  5G18G19G11G16G 6
  21890972.953     5337057.142 7   4158739.09022        21.750           1.719
  20862997.586      861623.599 6    671394.81622        17.250           1.750
  23214803.953    -3823992.445 6  -2979724.68321        15.250           0.781
  23457402.719    -3195473.183 5  -2489978.58521        10.750           0.531
  23675476.313    -4363751.709 5  -3316919.31621         9.000           0.375
 91  5 20 18 50  0.0000000  0  5G18G19G11G16G 6
  21898477.398     5376496.938 7   4189471.32922        21.500           1.688
  20864601.742      870065.992 6    677973.29722        17.750           1.656
  23212086.359    -3838271.724 6  -2990851.36621        15.000           0.750
  23455494.039    -3205519.421 5  -2497806.83121        11.000           0.500
  23668854.805    -4398557.379 5  -3344040.54421         9.250           0.313
 91  5 20 18 50 15.0000000  0  5G18G19G11G16G 6
  21905995.250     5416004.104 7   4220256.07122        21.500           1.688
  20866216.234      878543.401 6    684579.06222        17.250           1.719
  23209392.594    -3852426.335 6  -3001880.90621        15.500           0.750
  23453604.734    -3215445.787 5  -2505541.68621        10.750           0.438
  23662231.055    -4433360.660 5  -3371159.90521         9.000           0.313
 91  5 20 18 50 30.0000000  0  5G18G19G11G16G 6
  21913527.633     5455581.051 7   4251095.18722        21.750           1.563
  20867838.414      887058.755 6    691214.39322        17.000           1.781
  23206723.375    -3866453.380 6  -3012811.03621        15.000           0.844
  23451738.805    -3225249.307 5  -2513180.79621        10.750           0.531
  23655611.063    -4468158.926 5  -3398275.36621         9.250           0.438
 91  5 20 18 50 45.0000000  0  5G18G19G11G16G 6
  21921072.102     5495228.607 7   4281989.32322        21.500           1.656
  20869465.344      895612.526 6    697879.66322        17.000           1.750
  23204078.641    -3880352.058 6  -3023641.14721        15.250           0.750
  23449895.875    -3234929.424 5  -2520723.75321        10.750           0.531
  23648989.125    -4502951.668 5  -3425386.50921         9.000           0.375
 91  5 20 18 51  0.0000000  0  5G18G19G11G16G 6
  21928628.188     5534941.805 7   4312934.60222        21.500           1.719
  20871100.289      904200.196 6    704571.34322        17.000           1.719
  23201457.406    -3894126.695 6  -3034374.60421        15.250           0.844
  23448074.813    -3244490.819 5  -2528174.19821        10.750           0.438
  23642367.734    -4537743.398 5  -3452496.87421         9.250           0.313
 91  5 20 18 51 15.0000000  0  5G18G19G11G16G 6
  21936198.039     5574717.769 7   4343928.79122        21.750           1.656
  20872739.477      912818.837 6    711287.16022        17.500           1.750
  23198860.008    -3907780.164 6  -3045013.64021        15.250           0.719
  23446278.594    -3253936.486 5  -2535534.47921        10.750           0.438
  23635749.469    -4572537.213 5  -3479608.86921         9.500           0.469
 91  5 20 18 51 30.0000000  0  5G18G19G11G16G 6
  21943780.758     5614559.865 7   4374974.50922        21.750           1.563
  20874387.953      921472.391 6    718030.17822        16.750           1.750
  23196284.820    -3921308.376 6  -3055555.08121        15.500           0.781
  23444504.531    -3263262.260 5  -2542801.33621        10.750           0.438
  23629126.227    -4607329.053 5  -3506719.32621         9.250           0.375
 91  5 20 18 51 45.0000000  0  5G18G19G11G16G 6
  21951374.648     5654468.883 7   4406072.37822        21.500           1.594
  20876039.898      930162.075 6    724801.35122        17.500           1.813
  23193734.867    -3934709.993 6  -3065997.87321        15.500           0.938
  23442749.367    -3272467.028 5  -2549973.88721        10.500           0.406
  23622508.992    -4642117.958 5  -3533827.48421         9.250           0.375
 91  5 20 18 52  0.0000000  0  5G18G19G11G16G 6
  21958981.289     5694446.633 7   4437223.81322        21.250           1.656
  20877698.680      938889.678 6    731602.07022        18.250           1.781
  23191209.695    -3947983.079 6  -3076340.51021        15.250           0.813
  23441026.289    -3281549.350 5  -2557051.04721        10.500           0.469
  23615884.461    -4676902.204 5  -3560932.03521         9.000           0.438
 91  5 20 18 52 15.0000000  0  5G18G19G11G16G 6
  21966603.117     5734493.766 7   4468429.30522        21.250           1.625
  20879370.289      947655.736 6    738432.75122        17.500           1.719
  23188707.141    -3961126.728 6  -3086582.29121        15.250           0.781
  23439319.852    -3290508.415 5  -2564032.14321        10.750           0.500
  23609268.828    -4711681.019 5  -3588032.33421         9.000           0.375
 91  5 20 18 52 30.0000000  0  5G18G19G11G16G 6
  21974237.297     5774614.948 7   4499692.50122        21.000           1.563
  20881043.539      956465.585 6    745297.55622        18.000           1.781
  23186231.922    -3974135.510 6  -3096718.97121        15.500           0.781
  23437640.367    -3299338.957 5  -2570913.09321        10.500           0.375
  23602652.922    -4746449.309 5  -3615124.43621         9.500           0.406
 91  5 20 18 52 45.0000000  0  5G18G19G11G16G 6
  21981885.156     5814806.934 7   4531010.86922        20.750           1.625
  20882729.633      965315.898 6    752193.89122        17.250           1.813
  23183781.766    -3987012.561 6  -3106753.00721        15.750           0.938
  23435984.188    -3308044.388 5  -2577696.56321        10.750           0.531
  23596039.477    -4781210.268 5  -3642210.82521         9.250           0.438
 91  5 20 18 53  0.0000000  0  5G18G19G11G16G 6
  21989548.406     5855072.488 7   4562386.56722        21.250           1.563
  20884419.570      974209.802 6    759124.19922        17.750           1.844
  23181357.477    -3999754.736 6  -3116681.94521        16.250           0.813
  23434349.750    -3316621.275 5  -2584379.85821        10.500           0.531
  23589423.195    -4815960.997 5  -3669289.22121         9.000           0.438
 91  5 20 18 53 15.0000000  0  5G18G19G11G16G 6
  21997224.742     5895413.404 7   4593820.98622        21.250           1.563
  20886123.195      983149.410 6    766090.11322        17.250           1.750
  23178958.391    -4012359.986 6  -3126504.19221        16.250           0.906
  23432744.289    -3325067.743 5  -2590961.53721        10.250           0.563
  23582816.219    -4850699.488 5  -3696358.11821         9.250           0.344
 91  5 20 18 53 30.0000000  0  5G18G19G11G16G 6
  22004915.016     5935826.399 7   4625311.56922        21.000           1.563
  20887831.219      992131.537 6    773089.17122        17.500           1.813
  23176585.047    -4024830.868 6  -3136221.74021        16.500           0.875
  23431158.047    -3333386.809 5  -2597443.93621        10.500           0.438
  23576203.836    -4885428.664 5  -3723419.73421         9.250           0.406
 91  5 20 18 53 45.0000000  0  5G18G19G11G16G 6
  22012621.383     5976318.340 7   4656863.66522        21.250           1.500
  20889551.109     1001163.147 6    780126.77622        17.250           1.875
  23174239.156    -4037160.520 6  -3145829.23621        16.500           0.906
  23429603.742    -3341571.787 5  -2603821.87621        10.500           0.438
  23569597.563    -4920141.757 5  -3750468.84621         9.250           0.406
 91  5 20 18 54  0.0000000  0  5G18G19G11G16G 6
  22020339.891     6016881.915 7   4688471.58422        21.000           1.531
  20891278.164     1010237.266 6    787197.50622        16.750           1.844
  23171918.297    -4049355.724 6  -3155331.97021        16.500           0.844
  23428071.070    -3349629.491 5  -2610100.61321        10.500           0.500
  23562998.164    -4954845.737 5  -3777510.84021         9.250           0.344
 91  5 20 18 54 15.0000000  0  5G18G19G11G16G 6
  22028074.016     6057523.792 7   4720140.51422        21.000           1.500
  20893013.563     1019360.604 6    794306.58722        17.250           1.844
  23169625.227    -4061409.518 6  -3164724.51421        16.500           0.875
  23426561.773    -3357553.249 5  -2616274.99021        10.750           0.500
  23556393.586    -4989533.861 5  -3804540.48421         9.250           0.375
 91  5 20 18 54 30.0000000  0  5G18G19G11G16G 6
  22035822.992     6098245.041 7   4751871.29621        21.000           1.469
  20894758.188     1028534.659 6    801455.19422        17.250           1.750
  23167358.016    -4073320.340 6  -3174005.64821        16.500           0.719
  23425079.242    -3365341.635 5  -2622343.88421        10.750           0.563
  23549801.648    -5024204.820 5  -3831556.73521         9.500           0.438
 91  5 20 18 54 45.0000000  0  5G18G19G11G16G 6
  22043588.195     6139048.573 7   4783666.18822        21.250           1.500
  20896515.844     1037762.625 6    808645.80722        17.000           1.844
  23165118.516    -4085084.958 6  -3183172.86321        16.250           0.875
  23423624.078    -3372991.430 5  -2628304.78221        10.750           0.531
  23543201.828    -5058855.466 5  -3858557.17021         9.250           0.375
 91  5 20 18 55  0.0000000  0  5G18G19G11G16G 6
  22051367.438     6179933.470 7   4815524.48422        21.000           1.500
  20898280.633     1047043.535 6    815877.67722        17.250           1.875
  23162908.773    -4096704.041 6  -3192226.67121        16.500           0.875
  23422193.547    -3380503.779 5  -2634158.57121        10.750           0.500
  23536611.469    -5093486.692 5  -3885542.47121         9.250           0.313
 91  5 20 18 55 15.0000000  0  5G18G19G11G16G 6
  22059164.109     6220899.441 7   4847445.95321        20.750           1.469
  20900057.328     1056377.535 6    823150.91422        17.250           1.875
  23160724.461    -4108177.452 6  -3201166.97021        16.500           0.844
  23420794.563    -3387878.288 5  -2639904.96521        11.000           0.438
  23530028.141    -5128098.477 5  -3912512.62821         9.500           0.375
 91  5 20 18 55 30.0000000  0  5G18G19G11G16G 6
  22066974.125     6261949.614 7   4879433.02921        20.750           1.469
  20901843.297     1065768.148 6    830468.26522        17.250           1.781
  23158569.430    -4119501.541 6  -3209990.91621        16.500           0.875
  23419416.047    -3395111.661 5  -2645541.38221        11.000           0.531
  23523447.117    -5162687.422 5  -3939464.99021         9.500           0.375
 91  5 20 18 55 45.0000000  0  5G18G19G11G16G 6
  22074802.836     6303086.267 7   4911487.49921        20.750           1.469
  20903642.922     1075217.474 6    837831.36922        17.000           1.844
  23156444.680    -4130673.862 6  -3218696.60121        16.500           0.750
  23418063.773    -3402201.700 5  -2651066.10821        10.750           0.469
  23516867.953    -5197251.231 5  -3966397.76321         9.250           0.438
 91  5 20 18 56  0.0000000  0  5G18G19G11G16G 6
  22082648.266     6344312.964 7   4943612.13322        20.500           1.500
  20905454.289     1084729.323 6    845243.18722        17.000           1.813
  23154347.313    -4141690.520 6  -3227280.99321        16.750           0.781
  23416743.359    -3409144.723 5  -2656476.27521        11.000           0.406
  23510294.266    -5231786.159 5  -3993308.03321         9.250           0.344
 91  5 20 18 56 15.0000000  0  5G18G19G11G16G 6
  22090510.461     6385628.308 7   4975805.84621        20.750           1.375
  20907274.953     1094302.641 6    852702.90922        17.250           1.813
  23152280.055    -4152552.316 6  -3235744.71021        16.750           0.875
  23415450.750    -3415941.777 5  -2661772.70221        11.000           0.406
  23503729.648    -5266293.286 5  -4020196.64521         9.000           0.375
 91  5 20 18 56 30.0000000  0  5G18G19G11G16G 6
  22098390.570     6427035.993 7   5008071.49622        20.250           1.594
  20909106.336     1103941.302 6    860213.54422        17.750           1.844
  23150243.938    -4163255.395 6  -3244084.76321        16.750           0.906
  23414185.992    -3422588.969 5  -2666952.35621        11.000           0.469
  23497169.117    -5300768.819 5  -4047060.62721         9.500           0.406
 91  5 20 18 56 45.0000000  0  5G18G19G11G16G 6
  22106287.375     6468538.236 7   5040410.85021        20.250           1.438
  20910955.859     1113647.770 6    867777.01622        17.250           1.844
  23148237.625    -4173797.146 6  -3252299.09221        17.000           0.844
  23412948.719    -3429083.624 5  -2672013.14121        10.750           0.313
  23490614.367    -5335210.382 5  -4073898.14721         9.500           0.406
 91  5 20 18 57  0.0000000  0  5G18G19G11G16G 6
  22114203.219     6510136.390 7   5072824.92821        20.000           1.406
  20912815.266     1123423.337 6    875394.33522        17.500           1.813
  23146262.336    -4184176.017 6  -3260386.50621        17.000           0.813
  23411741.938    -3435424.531 5  -2676954.14021        10.500           0.531
  23484066.727    -5369616.578 5  -4100708.11321         9.500           0.375
 91  5 20 18 57 15.0000000  0  5G18G19G11G16G 6
  22122139.547     6551836.682 6   5105318.59021        19.750           1.375
  20914690.820     1133274.762 6    883070.75522        17.250           1.813
  23144319.672    -4194385.290 6  -3268341.76121        17.250           0.844
  23410570.141    -3441605.280 5  -2681770.31421        11.000           0.531
  23477524.805    -5403980.834 5  -4127485.40621         9.500           0.406
 91  5 20 18 57 30.0000000  0  5G18G19G11G16G 6
  22130092.781     6593636.711 6   5137889.97321        19.750           1.406
  20916578.734     1143199.721 6    890804.47922        17.500           1.938
  23142408.813    -4204427.068 6  -3276166.50621        17.250           0.844
  23409422.617    -3447628.122 5  -2686463.45421        10.750           0.406
  23470997.586    -5438305.363 5  -4154231.72921         9.500           0.344
 91  5 20 18 57 45.0000000  0  5G18G19G11G16G 6
  22138066.664     6635537.592 6   5170539.93121        19.500           1.313
  20918483.148     1153199.722 6    898596.68022        17.250           1.781
  23140530.477    -4214299.627 6  -3283859.39021        17.000           0.844
  23408306.836    -3453491.316 5  -2691032.19921        10.750           0.438
  23464468.781    -5472588.794 5  -4180946.02721         9.250           0.406
 91  5 20 18 58  0.0000000  0  5G18G19G11G16G 6
  22146059.078     6677538.892 6   5203268.14521        19.500           1.375
  20920400.875     1163274.441 6    906447.09722        17.500           1.969
  23138683.859    -4224003.272 6  -3291420.65221        17.250           0.844
  23407222.219    -3459195.406 5  -2695476.96521        11.000           0.469
  23457953.180    -5506831.372 5  -4207628.47921         9.250           0.406
 91  5 20 18 58 15.0000000  0  5G18G19G11G16G 6
  22154072.031     6719645.085 6   5236078.09521        19.250           1.344
  20922332.578     1173428.611 6    914359.42222        17.500           2.000
  23136870.750    -4233533.131 6  -3298846.50321        17.250           0.844
  23406167.555    -3464735.689 5  -2699794.08621        10.750           0.375
  23451448.961    -5541028.506 5  -4234275.54421         9.250           0.344
 91  5 20 18 58 30.0000000  0  5G18G19G11G16G 6
  22162104.930     6761858.054 6   5268971.23721        19.250           1.375
  20924279.102     1183664.592 6    922335.49922        17.750           1.813
  23135090.680    -4242886.965 6  -3306135.18521        17.250           0.844
  23405142.484    -3470110.231 5  -2703982.06021        10.750           0.531
  23444950.484    -5575178.126 5  -4260885.57121         9.500           0.469
 91  5 20 18 58 45.0000000  0  5G18G19G11G16G 6
  22170158.203     6804180.049 6   5301949.34021        19.250           1.313
  20926244.469     1193984.584 6    930377.04022        17.500           1.875
  23133344.164    -4252062.391 6  -3313284.85721        17.250           0.969
  23404152.367    -3475316.707 5  -2708039.07421        11.000           0.438
  23438464.977    -5609277.847 5  -4287456.72421         9.500           0.469
 91  5 20 18 59  0.0000000  0  5G18G19G11G16G 6
  22178232.477     6846610.375 6   5335011.85621        19.000           1.375
  20928222.883     1204388.385 6    938483.88822        18.000           1.938
  23131632.961    -4261059.417 6  -3320295.50321        17.250           0.781
  23403192.391    -3480355.321 5  -2711965.28321        11.000           0.375
  23431978.594    -5643327.960 5  -4313989.21621         9.250           0.375
 91  5 20 18 59 15.0000000  0  5G18G19G11G16G 6
  22186329.852     6889158.786 6   5368166.38521        19.000           1.344
  20930220.938     1214885.929 6    946663.78322        17.750           1.875
  23129955.711    -4269867.941 6  -3327159.27721        17.250           0.938
  23402270.500    -3485216.269 5  -2715753.06321        11.000           0.500
  23425512.453    -5677318.483 5  -4340475.26321         9.500           0.438
 91  5 20 18 59 30.0000000  0  5G18G19G11G16G 6
  22194448.383     6931818.757 6   5401407.84721        18.750           1.344
  20932233.492     1225470.797 6    954911.72522        18.000           1.906
  23128314.906    -4278494.245 6  -3333881.05821        17.250           0.813
  23401377.094    -3489905.641 5  -2719407.13421        11.000           0.469
  23419056.102    -5711255.814 5  -4366919.86921         9.500           0.375
 91  5 20 18 59 45.0000000  0  5G18G19G11G16G 6
  22202587.203     6974594.187 6   5434739.27621        19.000           1.406
  20934267.719     1236147.019 6    963230.85422        17.750           2.000
  23126708.305    -4286934.309 6  -3340457.71221        17.250           0.875
  23400516.633    -3494419.979 5  -2722924.83021        10.750           0.500
  23412606.828    -5745136.243 5  -4393320.13121         9.750           0.375
 91  5 20 19  0  0.0000000  0  5G18G19G11G16G 6
  22210750.688     7017489.709 6   5468164.27721        19.250           1.375
  20936315.719     1246919.688 6    971625.12922        18.000           2.000
  23125138.797    -4295182.962 6  -3346885.22221        17.250           0.906
  23399692.578    -3498754.170 5  -2726302.13821        10.750           0.406
  23406170.891    -5778954.498 5  -4419671.96221         9.500           0.469
 91  5 20 19  0 15.0000000  0  5G18G19G11G16G 6
  22218936.734     7060506.336 6   5501683.64921        19.000           1.375
  20938386.047     1257789.915 6    980095.42922        17.750           2.000
  23123605.648    -4303238.801 6  -3353162.48221        17.250           0.969
  23398903.633    -3502906.738 5  -2729537.94121        11.000           0.406
  23399746.344    -5812709.422 5  -4445974.43921         9.750           0.469
 91  5 20 19  0 30.0000000  0  5G18G19G11G16G 6
  22227144.805     7103642.980 6   5535296.54021        19.000           1.250
  20940473.047     1268756.971 6    988641.18222        17.750           1.938
  23122109.195    -4311102.663 6  -3359290.14821        17.250           0.813
  23398145.586    -3506878.717 5  -2732633.01121        10.750           0.438
  23393333.969    -5846402.023 5  -4472228.36321         9.500           0.469
 91  5 20 19  0 45.0000000  0  5G18G19G11G16G 6
  22235378.727     7146906.827 6   5569008.54621        19.000           1.281
  20942579.867     1279828.068 6    997267.99722        18.000           2.031
  23120650.883    -4318766.935 6  -3365262.29121        17.250           0.906
  23397424.586    -3510662.779 5  -2735581.65821        10.750           0.406
  23386937.172    -5880024.922 5  -4498427.97221         9.750           0.469
 91  5 20 19  1  0.0000000  0  5G18G19G11G16G 6
  22243636.422     7190306.139 6   5602826.10721        19.000           1.344
  20944706.039     1291011.623 6   1005982.44522        18.500           2.031
  23119231.680    -4326223.206 6  -3371072.36021        17.250           0.875
  23396744.133    -3514250.725 5  -2738377.49021        11.250           0.469
  23380559.320    -5913569.783 5  -4524566.75821        10.000           0.438
 91  5 20 19  1 15.0000000  0  5G18G19G11G16G 6
  22251922.656     7233841.030 6   5636749.31521        18.750           1.406
  20946857.320     1302308.122 6   1014784.90122        17.750           2.031
  23117852.898    -4333471.025 6  -3376719.99321        17.250           0.875
  23396100.039    -3517642.068 5  -2741020.09721        11.000           0.375
  23374189.633    -5947036.113 5  -4550644.37121        10.000           0.531
 91  5 20 19  1 30.0000000  0  5G18G19G11G16G 6
  22260233.734     7277519.959 6   5670784.76221        18.500           1.281
  20949030.672     1313726.519 6   1023682.34422        17.500           1.906
  23116514.547    -4340501.497 6  -3382198.27321        17.250           0.875
  23395490.164    -3520828.336 5  -2743502.94221        10.750           0.375
  23367834.758    -5980415.241 5  -4576654.01521         9.750           0.406
 91  5 20 19  1 45.0000000  0  5G18G19G11G16G 6
  22268572.898     7321344.418 6   5704933.61121        18.750           1.313
  20951227.516     1325268.334 6   1032675.95922        17.750           1.938
  23115219.203    -4347312.799 6  -3387505.75921        17.500           0.875
  23394924.656    -3523807.836 5  -2745824.64621        10.750           0.469
  23361500.625    -6013705.498 5  -4602594.42021        10.250           0.469
 91  5 20 19  2  0.0000000  0  5G18G19G11G16G 6
  22276941.336     7365321.921 6   5739201.71821        18.250           1.313
  20953448.734     1336941.348 6   1041771.80322        17.250           1.969
  23113966.852    -4353897.108 6  -3392636.37521        17.000           0.781
  23394396.320    -3526572.503 5  -2747978.94721        10.750           0.344
  23355184.711    -6046899.126 5  -4628459.51021        10.000           0.500
 91  5 20 19  2 15.0000000  0  5G18G19G11G16G 6
  22285340.461     7409456.449 6   5773592.18021        18.250           1.344
  20955695.547     1348749.477 6   1050972.93822        17.500           1.969
  23112757.320    -4360250.232 6  -3397586.85021        17.250           0.813
  23393913.852    -3529118.695 5  -2749963.03421        10.750           0.438
  23348884.727    -6079992.295 5  -4654246.33421        10.500           0.438
 91  5 20 19  2 30.0000000  0  5G18G19G11G16G 6
  22293770.570     7453756.446 6   5808111.57421        18.000           1.375
  20957966.641     1360701.550 6   1060286.23522        18.250           2.063
  23111594.469    -4366363.355 6  -3402350.29921        17.000           0.781
  23393472.992    -3531437.652 5  -2751770.04121        10.750           0.531
  23342611.586    -6112976.069 5  -4679947.90121        10.500           0.469
 91  5 20 19  2 45.0000000  0  5G18G19G11G16G 6
  22302233.930     7498230.943 6   5842766.94621        18.250           1.313
  20960273.641     1372807.154 6   1069719.16522        17.500           2.000
  23110477.188    -4372226.864 6  -3406919.25821        17.250           0.875
  23393078.320    -3533519.810 5  -2753392.51621        10.750           0.500
  23336356.172    -6145840.995 5  -4705556.89121        10.250           0.500
 91  5 20 19  3  0.0000000  0  5G18G19G11G16G 6
  22310730.563     7542881.575 6   5877559.55821        18.000           1.250
  20962607.781     1385068.223 6   1079273.23022        17.250           2.000
  23109410.617    -4377838.695 6  -3411292.09621        17.250           0.875
  23392724.063    -3535363.398 5  -2754829.10821        10.750           0.500
  23330126.039    -6178585.329 5  -4731071.88421        10.250           0.406
 91  5 20 19  3 15.0000000  0  5G18G19G11G16G 6
  22319262.039     7587714.522 6   5912494.23621        18.000           1.438
  20964970.555     1397491.020 6   1088953.31922        17.500           2.000
  23108390.195    -4383192.632 6  -3415463.98821        17.250           0.844
  23392418.883    -3536962.400 5  -2756075.10221        10.250           0.406
  23323919.898    -6211202.784 5  -4756488.02121        10.500           0.375
 91  5 20 19  3 30.0000000  0  5G18G19G11G16G 6
  22327829.781     7632738.250 6   5947577.56921        17.750           1.156
  20967368.414     1410084.012 6   1098766.03622        17.250           1.938
  23107423.977    -4388279.939 6  -3419428.10221        17.250           0.844
  23392168.641    -3538308.260 5  -2757123.83821        11.000           0.469
  23317736.047    -6243684.767 5  -4781798.61021        10.500           0.469
 91  5 20 19  3 45.0000000  0  5G18G19G11G16G 6
  22336434.242     7677960.405 6   5982815.53021        17.750           1.250
  20969797.359     1422855.033 6   1108717.47422        17.500           2.063
  23106506.516    -4393092.763 6  -3423178.34321        17.250           0.875
  23391959.469    -3539393.236 5  -2757969.31921        11.000           0.469
  23311579.531    -6276023.441 5  -4806997.51521        10.500           0.563
 91  5 20 19  4  0.0000000  0  5G18G19G11G16G 6
  22345078.203     7723381.778 6   6018208.72721        17.500           1.313
  20972262.500     1435805.127 6   1118808.44422        17.250           2.063
  23105643.750    -4397629.920 6  -3426713.77621        17.500           0.813
  23391804.555    -3540216.379 5  -2758610.74621        11.250           0.469
  23305455.008    -6308217.948 5  -4832084.08721        11.000           0.531
 91  5 20 19  4 15.0000000  0  5G18G19G11G16G 6
  22353759.555     7769002.300 6   6053757.09721        17.500           1.344
  20974760.523     1448934.819 6   1129039.36422        18.000           1.969
  23104833.133    -4401890.857 6  -3430033.97421        17.750           0.750
  23391694.133    -3540776.936 5  -2759047.55621        10.750           0.469
  23299362.297    -6340267.640 5  -4857057.81121        11.250           0.469
 91  5 20 19  4 30.0000000  0  5G18G19G11G16G 6
  22362481.891     7814833.983 6   6089470.01021        17.250           1.281
  20977292.898     1462256.208 6   1139419.65422        19.000           2.094
  23104076.023    -4405863.504 6  -3433129.53221        17.750           0.844
  23391644.445    -3541063.118 5  -2759270.58821        11.000           0.656
  23293285.969    -6372160.603 5  -4881909.40521        11.000           0.531
 91  5 20 19  4 45.0000000  0  5G18G19G11G16G 6
  22371242.570     7860875.472 6   6125346.40621        17.250           1.281
  20979866.375     1475768.306 6   1149948.54922        18.250           1.969
  23103375.352    -4409548.737 6  -3436001.12621        17.500           0.781
  23391640.828    -3541076.132 5                        11.250
  23287248.211    -6403897.888 5  -4906639.70421        11.250           0.469
 91  5 20 19  5  0.0000000  0  5G18G19G11G16G 6
  22380043.516     7907124.500 6   6161384.52121        17.500           1.188
  20982471.781     1489469.047 6   1160624.43922        18.750           2.063
  23102727.977    -4412948.598 6  -3438650.36121        17.250           0.875
  23391692.352    -3540818.322 5                        11.250
  23281236.875    -6435481.670 5  -4931250.38621        11.250           0.594
 91  5 20 19  5 15.0000000  0  5G18G19G11G16G 6
  22388883.211     7953578.710 6   6197582.52521        17.250           1.250
  20985115.664     1503356.282 6   1171445.65022        18.000           2.000
  23102134.992    -4416065.108 6  -3441078.79921        17.500           0.844
  23391790.195    -3540291.589 5                        11.000
  23275257.508    -6466914.056 5  -4955743.09221        11.750           0.500
 91  5 20 19  5 30.0000000  0  5G18G19G11G16G 6
  22397762.047     8000239.138 6   6233941.21021        17.250           1.281
  20987793.898     1517431.234 6   1182413.13322        18.250           2.063
  23101596.852    -4418897.016 6  -3443285.46821        17.250           0.875
  23391940.203    -3539494.872 5  -2758048.67321        11.250           0.438
  23269302.883    -6498193.863 5  -4980116.90921        11.750           0.500
 91  5 20 19  5 45.0000000  0  5G18G19G11G16G 6
  22406680.852     8047102.161 6   6270457.76621        17.250           1.219
  20990508.609     1531690.525 6   1193524.26022        18.000           1.906
  23101111.508    -4421447.573 6  -3445272.90321        17.500           0.813
  23392142.844    -3538431.593 5  -2757220.16121        11.000           0.438
  23263379.578    -6529324.409 5  -5004374.41421        11.750           0.563
 91  5 20 19  6  0.0000000  0  5G18G19G11G16G 6
  22415636.039     8094164.793 6   6307129.85821        17.250           1.250
  20993255.781     1546131.472 6   1204776.92922        18.000           2.063
  23100679.164    -4423719.353 6  -3447043.11221        17.500           0.813
  23392398.430    -3537104.582 5  -2756186.16821        11.250           0.469
  23257484.234    -6560308.483 5  -5028517.78921        11.750           0.406
 91  5 20 19  6 15.0000000  0  5G18G19G11G16G 6
  22424627.195     8141412.593 6   6343946.24021        17.000           1.188
  20996035.516     1560740.195 6   1216160.33722        17.750           1.906
  23100297.898    -4425726.293 6  -3448606.94221        17.500           0.875
  23392695.617    -3535528.126 5  -2754957.78521        11.250           0.406
  23251616.477    -6591160.034 6  -5052557.90021        12.000           0.469
 91  5 20 19  6 30.0000000  0  5G18G19G11G16G 6
  22433654.148     8188843.455 6   6380905.26921        17.500           1.094
  20998848.477     1575514.417 6   1227672.71022        17.500           1.938
  23099966.195    -4427470.500 6  -3449966.06121        17.500           0.844
  23393044.039    -3533704.241 5  -2753536.60321        11.250           0.469
  23245764.688    -6621881.347 5  -5076496.53221        11.750           0.531
 91  5 20 19  6 45.0000000  0  5G18G19G11G16G 6
  22442713.391     8236445.040 6   6417997.32521        17.500           1.125
  21001688.242     1590442.167 6   1239304.70722        17.750           1.875
  23099680.328    -4428963.898 6  -3451129.72821        17.500           0.781
  23393430.844    -3531645.132 5  -2751932.12521        10.750           0.406
  23239942.055    -6652484.258 5  -5100342.89021        11.750           0.469
 91  5 20 19  7  0.0000000  0  5G18G19G11G16G 6
  22451801.742     8284212.324 6   6455218.49821        17.000           1.063
  21004555.891     1605518.607 6   1251052.57122        18.000           2.000
  23099444.719    -4430211.419 6  -3452101.81521        17.500           0.844
  23393869.906    -3529355.701 5  -2750148.19021        11.500           0.531
  23234139.273    -6682973.931 5  -5124101.02421        11.750           0.531
 91  5 20 19  7 15.0000000  0  5G18G19G11G16G 6
  22460920.813     8332136.344 6   6492561.80721        17.250           1.219
  21007452.391     1620735.114 6   1262909.57722        17.750           2.031
  23099251.883    -4431221.461 6  -3452888.84121        17.500           0.781
  23394346.633    -3526844.593 5  -2748191.49521        11.000           0.438
  23228360.508    -6713358.824 6  -5147777.49721        12.250           0.594
 91  5 20 19  7 30.0000000  0  5G18G19G11G16G 6
  22470067.492     8380202.849 6   6530016.13521        17.500           1.094
  21010371.617     1636077.549 6   1274864.71122        18.250           2.000
  23099100.250    -4432008.023 6  -3453501.74421        17.750           0.844
  23394864.688    -3524126.117 5  -2746073.23321        11.000           0.438
  23222593.125    -6743653.092 6  -5171383.37221        12.250           0.625
 91  5 20 19  7 45.0000000  0  5G18G19G11G16G 6
  22479241.336     8428402.154 6   6567573.94321        17.500           1.094
  21013314.195     1651536.724 6   1286910.81122        18.000           2.000
  23098992.086    -4432580.524 6  -3453947.83821        17.500           0.813
  23395419.078    -3521209.555 5  -2743800.61421        11.250           0.469
  23216846.117    -6773866.094 6  -5194925.90821        12.250           0.500
 91  5 20 19  8  0.0000000  0  5G18G19G11G16G 6
  22488437.281     8476729.290 6   6605231.36421        17.500           1.125
  21016276.313     1667107.581 6   1299043.93522        18.250           1.969
  23098924.477    -4432943.757 6  -3454230.87421        17.500           0.750
  23396009.227    -3518099.946 5  -2741377.55321        11.250           0.344
  23211113.813    -6804002.661 6  -5218408.89621        12.250           0.563
 91  5 20 19  8 15.0000000  0  5G18G19G11G16G 6
  22497655.070     8525175.703 6   6642981.72721        17.250           1.094
  21019260.164     1682782.070 6   1311257.81122        18.000           1.875
  23098893.813    -4433105.784 6                        17.500
  23396641.000    -3514805.544 5  -2738810.51621        11.250           0.469
  23205394.406    -6834071.029 6  -5241838.73921        12.500           0.563
 91  5 20 19  8 30.0000000  0  5G18G19G11G16G 6
  22506895.914     8573730.976 6   6680816.90921        17.250           1.094
  21022260.258     1698549.939 6   1323544.45222        18.000           2.000
  23098898.414    -4433076.816 6                        17.500
  23397299.750    -3511336.827 5  -2736107.63721        11.250           0.406
  23199681.398    -6864081.476 6  -5265223.44121        12.250           0.563
 91  5 20 19  8 45.0000000  0  5G18G19G11G16G 6
  22516154.320     8622383.972 6   6718728.24921        17.250           1.156
  21025276.805     1714400.445 6   1335895.49122        18.000           1.906
  23098937.758    -4432867.578 6                        17.500
  23397992.188    -3507704.376 5  -2733277.18621        11.250           0.406
  23193978.688    -6894044.897 6  -5288571.51521        12.000           0.719
 91  5 20 19  9  0.0000000  0  5G18G19G11G16G 6
  22525430.664     8671127.846 6   6756710.39121        17.250           1.156
  21028305.789     1730326.936 6   1348305.73422        18.500           1.969
  23099010.906    -4432484.700 6                        17.500
  23398708.039    -3503915.334 5  -2730324.72221        11.000           0.375
  23188284.680    -6923967.971 6  -5311888.15021        12.250           0.719
 91  5 20 19  9 15.0000000  0  5G18G19G11G16G 6
  22534723.078     8719962.486 6   6794763.26621        17.250           0.969
  21031352.063     1746329.560 6   1360775.30022        18.000           1.938
  23099118.172    -4431928.222 6  -3453439.50121        17.250           0.938
  23399460.961    -3499969.504 5  -2727250.06621        11.250           0.406
  23182598.156    -6953850.592 6  -5335173.25321        12.250           0.563
 91  5 20 19  9 30.0000000  0  5G18G19G11G16G 6
  22544031.336     8768878.456 6   6832879.51221        17.000           1.000
  21034409.406     1762398.887 6   1373296.84522        18.250           2.031
  23099254.711    -4431207.302 6  -3452877.72921        17.250           0.938
  23400239.805    -3495876.364 5  -2724060.63721        10.750           0.469
  23176917.242    -6983702.224 6  -5358434.21221        12.250           0.594
 91  5 20 19  9 45.0000000  0  5G18G19G11G16G 6
  22553352.969     8817867.603 6   6871052.78221        17.000           1.000
  21037480.922     1778527.328 6   1385864.44922        18.000           1.969
  23099419.023    -4430329.455 6  -3452193.68321        17.250           0.906
  23401050.000    -3491643.650 5  -2720762.45721        11.500           0.344
  23171237.688    -7013530.337 6  -5381676.83821        12.250           0.500
 91  5 20 19 10  0.0000000  0  5G18G19G11G16G 6
  22562687.406     8866918.816 6   6909274.41721        16.750           1.031
  21040557.000     1794704.077 6   1398469.69522        18.000           1.938
  23099615.336    -4429305.540 6  -3451395.82321        17.250           0.906
  23401879.180    -3487282.321 5  -2717364.05021        11.250           0.313
  23165562.008    -7043345.867 6  -5404909.65921        12.250           0.469
 91  5 20 19 10 15.0000000  0  5G18G19G11G16G 6
  22572033.141     8916027.727 6   6947541.00221        16.750           1.063
  21043644.883     1810925.007 6   1411109.36622        17.750           1.906
  23099837.742    -4428139.675 6  -3450487.34421        17.500           0.875
  23402730.422    -3482796.776 5  -2713868.85421        11.250           0.313
  23159892.688    -7073152.970 6  -5428135.91821        12.000           0.500
 91  5 20 19 10 30.0000000  0  5G18G19G11G16G 6
  22581389.055     8965193.303 6   6985851.75021        16.500           1.031
  21046739.773     1827189.306 6   1423782.83622        17.750           2.000
  23100086.734    -4426832.627 6  -3449468.86521        17.250           0.875
  23403608.516    -3478187.801 5  -2710277.46521        11.500           0.375
  23154225.766    -7102952.523 6  -5451356.29421        12.000           0.500
 91  5 20 19 10 45.0000000  0  5G18G19G11G16G 6
  22590755.398     9014409.846 6   7024202.20321        17.000           0.969
  21049842.422     1843491.449 6   1436485.79322        17.500           1.906
  23100360.531    -4425389.912 6  -3448344.66121        17.250           0.844
  23404508.383    -3473461.116 5  -2706594.36721        11.000           0.438
  23148551.125    -7132750.061 6  -5474575.09121        12.000           0.688
 91  5 20 19 11  0.0000000  0  5G18G19G11G16G 6
  22600129.477     9063673.513 6   7062589.38921        17.000           1.031
  21052949.648     1859827.915 6   1449215.49722        18.000           1.938
  23100659.734    -4423815.171 6  -3447117.58521        17.250           0.938
  23405424.258    -3468620.480 5  -2702822.46521        10.750           0.438
  23142878.500    -7162549.184 6  -5497795.14021        12.250           0.625
 91  5 20 19 11 15.0000000  0  5G18G19G11G16G 6
  22609511.539     9112980.120 6   7101010.02921        17.000           1.063
  21056065.273     1876194.761 6   1461968.87622        17.750           1.906
  23100984.344    -4422112.189 6  -3445790.57921        17.250           0.969
  23406370.609    -3463669.862 5  -2698964.87621        11.000           0.406
  23137210.844    -7192353.851 6  -5521019.50121        12.000           0.656
 91  5 20 19 11 30.0000000  0  5G18G19G11G16G 6
  22618902.508     9162321.610 6   7139457.84921        17.000           1.000
  21059182.039     1892583.990 6   1474739.68322        17.750           1.969
  23101331.359    -4420288.750 6  -3444369.71421        17.250           0.844
  23407332.484    -3458616.868 5  -2695027.51621        11.000           0.375
  23131532.563    -7222171.911 6  -5544254.29521        12.000           0.594
 91  5 20 19 11 45.0000000  0  5G18G19G11G16G 6
  22628297.859     9211698.922 6   7177933.57821        16.750           0.969
  21062308.000     1908996.682 6   1487528.78722        17.500           1.875
  23101700.688    -4418343.776 6  -3442854.14221        17.500           0.844
  23408314.938    -3453461.020 5  -2691009.99121        11.250           0.313
  23125859.523    -7252002.213 6  -5567498.63021        12.250           0.563
 91  5 20 19 12  0.0000000  0  5G18G19G11G16G 6
  22637701.070     9261112.299 6   7216437.41721        16.750           0.969
  21065432.805     1925433.588 6   1500336.75022        18.000           1.906
  23102095.492    -4416276.702 6  -3441243.43121        17.750           0.875
  23409315.727    -3448201.696 5  -2686911.85921        11.250           0.406
  23120176.234    -7281844.411 6  -5590752.22921        12.250           0.531
 91  5 20 19 12 15.0000000  0  5G18G19G11G16G 6
  22647110.141     9310558.702 6   7254966.99121        16.750           1.000
  21068567.109     1941892.219 6   1513161.64922        17.500           2.000
  23102511.164    -4414089.893 6  -3439539.41821        17.750           0.906
  23410334.766    -3442841.511 5  -2682735.11821        11.000           0.375
  23114500.508    -7311700.917 6  -5614016.98221        12.500           0.531
 91  5 20 19 12 30.0000000  0  5G18G19G11G16G 6
  22656525.859     9360034.658 6   7293519.59421        16.500           0.906
  21071700.977     1958369.179 6   1526000.82222        17.750           1.844
  23102949.055    -4411786.746 6  -3437744.75421        17.750           0.938
  23411372.195    -3437384.362 5  -2678482.81721        10.750           0.438
  23108808.859    -7341575.122 6  -5637295.53121        12.250           0.438
 91  5 20 19 12 45.0000000  0  5G18G19G11G16G 6
  22665946.016     9409540.619 6   7332095.57721        16.750           0.906
  21074841.680     1974864.961 6   1538854.66822        17.500           1.906
  23103410.055    -4409366.636 6  -3435858.95421        17.750           0.875
  23412427.805    -3431829.405 5  -2674154.32621        10.750           0.406
  23103128.180    -7371466.365 6  -5660587.35521        12.500           0.500
 91  5 20 19 13  0.0000000  0  5G18G19G11G16G 6
  22675374.141     9459081.725 6   7370698.93921        16.750           0.938
  21077985.195     1991385.037 6   1551727.44622        17.250           1.875
  23103894.359    -4406824.160 6  -3433877.79821        17.750           0.875
  23413509.313    -3426171.365 5  -2669745.49121        11.000           0.406
  23097434.992    -7401369.344 6  -5683888.31421        12.500           0.531
 91  5 20 19 13 15.0000000  0  5G18G19G11G16G 6
  22684808.320     9508657.944 6   7409329.67121        16.500           0.938
  21081134.195     2007929.951 6   1564619.57422        17.250           1.875
  23104401.508    -4404158.984 6  -3431801.03921        18.000           0.938
  23414599.695    -3420409.950 5  -2665256.11121        10.750           0.438
  23091738.094    -7431283.751 6  -5707198.19321        12.500           0.531
 91  5 20 19 13 30.0000000  0  5G18G19G11G16G 6
  22694247.398     9558264.275 6   7447983.86121        16.500           0.875
  21084283.164     2024494.764 6   1577527.20422        18.000           1.875
  23104931.789    -4401375.877 6  -3429632.38621        18.000           0.906
  23415718.227    -3414550.234 5  -2660690.14721        11.000           0.406
  23086045.578    -7461214.391 6  -5730520.70121        12.250           0.719
 91  5 20 19 13 45.0000000  0  5G18G19G11G16G 6
  22703693.336     9607899.116 6   7486660.26721        16.500           0.875
  21087441.859     2041078.000 6   1590449.19222        17.250           1.969
  23105482.328    -4398476.292 6  -3427372.96621        18.000           0.875
  23416850.945    -3408593.946 5  -2656048.92021        10.750           0.375
  23080350.680    -7491162.790 6  -5753857.05021        12.500           0.563
 91  5 20 19 14  0.0000000  0  5G18G19G11G16G 6
  22713144.406     9657563.205 6   7525359.46121        16.500           0.813
  21090600.305     2057680.980 6   1603386.56522        17.000           1.906
  23106056.609    -4395458.909 6  -3425021.75821        17.750           0.906
  23418003.453    -3402539.754 5  -2651331.39521        10.500           0.313
  23074647.164    -7521127.698 6  -5777206.26921        12.750           0.563
 91  5 20 19 14 15.0000000  0  5G18G19G11G16G 6
  22722599.336     9707255.306 6   7564080.49221        16.250           0.875
  21093763.703     2074302.701 6   1616338.54522        17.250           2.000
  23106653.523    -4392324.800 6  -3422579.59521        18.000           0.844
  23419176.609    -3396388.813 5  -2646538.50121        11.000           0.375
  23068937.211    -7551110.176 6  -5800569.18721        12.500           0.625
 91  5 20 19 14 30.0000000  0  5G18G19G11G16G 6
  22732062.102     9756978.692 6   7602825.89821        16.250           0.875
  21096931.430     2090946.515 6   1629307.73622        17.000           1.938
  23107272.320    -4389070.525 6  -3420043.79421        18.000           0.813
  23420363.008    -3390137.852 5  -2641667.65521        10.500           0.344
  23063227.297    -7581106.870 6  -5823943.17621        12.000           0.563
 91  5 20 19 14 45.0000000  0  5G18G19G11G16G 6
  22741530.430     9806733.147 6   7641595.50521        16.250           0.969
  21100101.672     2107612.412 6   1642294.13522        17.000           1.875
  23107914.289    -4385696.005 6  -3417414.29721        18.000           0.750
  23421570.789    -3383787.050 5  -2636719.03121        10.750           0.375
  23057515.883    -7611117.630 6  -5847328.13021        12.000           0.531
 91  5 20 19 15  0.0000000  0  5G18G19G11G16G 6
  22751004.508     9856516.374 6   7680387.53421        16.250           0.781
  21103276.578     2124298.595 6   1655296.34122        17.750           1.906
  23108579.016    -4382203.059 6  -3414692.52521        18.000           0.844
  23422800.109    -3377338.338 5  -2631694.09921        10.750           0.344
  23051803.672    -7641144.328 6  -5870725.50321        12.000           0.594
 91  5 20 19 15 15.0000000  0  5G18G19G11G16G 6
  22760482.539     9906324.662 6   7719199.09021        16.000           1.031
  21106455.914     2141001.545 6   1668311.61322        17.250           1.938
  23109265.477    -4378595.360 6  -3411881.32321        18.000           0.844
  23424045.398    -3370795.478 5  -2626595.79821        10.750           0.469
  23046085.547    -7671190.678 6  -5894138.18021        12.000           0.656
 91  5 20 19 15 30.0000000  0  5G18G19G11G16G 6
  22769964.969     9956158.121 6   7758030.26521        16.000           0.906
  21109638.688     2157721.567 6   1681340.18322        16.750           1.844
  23109974.563    -4374872.645 6  -3408980.51521        18.000           0.875
  23425309.430    -3364158.767 5  -2621424.37821        11.000           0.406
  23040363.484    -7701256.379 5  -5917565.95421        11.750           0.531
 91  5 20 19 15 45.0000000  0  5G18G19G11G16G 6
  22779452.789    10006019.796 6   7796883.42521        15.750           0.750
  21112823.852     2174462.105 6   1694384.74322        17.000           1.938
  23110705.984    -4371031.446 6  -3405987.37221        18.000           0.875
  23426588.508    -3357424.482 5  -2616176.92721        11.000           0.438
  23034641.414    -7731338.025 5  -5941006.13521        11.750           0.531
 91  5 20 19 16  0.0000000  0  5G18G19G11G16G 6
  22788946.805    10055906.654 6   7835756.21121        15.750           0.844
  21116014.273     2191220.273 6   1707443.04122        16.500           1.813
  23111458.641    -4367074.705 6  -3402904.19721        18.000           0.844
  23427886.445    -3350595.424 5  -2610855.62321        10.750           0.438
  23028915.719    -7761438.448 6  -5964460.95321        12.000           0.625
 91  5 20 19 16 15.0000000  0  5G18G19G11G16G 6
  22798444.945    10105821.208 6   7874650.56921        15.750           0.875
  21119204.625     2207999.210 6   1720517.51922        17.000           1.813
  23112233.891    -4362999.448 6  -3399728.66821        18.000           0.906
  23429204.094    -3343668.902 5  -2605458.37221        10.750           0.438
  23023187.938    -7791554.794 5  -5987928.18721        11.750           0.563
 91  5 20 19 16 30.0000000  0  5G18G19G11G16G 6
  22807949.570    10155765.188 6   7913567.86121        15.750           0.875
  21122403.531     2224800.813 6   1733609.66622        16.500           1.813
  23113033.195    -4358803.580 6  -3396459.16121        18.000           0.969
  23430543.492    -3336643.281 5  -2599983.89021        11.000           0.594
  23017451.234    -7821685.016 5  -6011406.22821        11.500           0.719
 91  5 20 19 16 45.0000000  0  5G18G19G11G16G 6
  22817458.148    10205733.990 6   7952504.49421        15.500           0.813
  21125603.992     2241620.259 6   1746715.70822        16.750           1.781
  23113852.625    -4354491.801 6  -3393099.33221        18.250           0.906
  23431897.281    -3329523.355 5  -2594435.95521        10.750           0.375
  23011709.773    -7851833.802 5  -6034898.73321        11.750           0.563
 91  5 20 19 17  0.0000000  0  5G18G19G11G16G 6
  22826972.438    10255732.821 6   7991464.52721        15.500           0.844
  21128806.469     2258463.235 6   1759840.09122        17.750           1.688
  23114695.375    -4350058.531 6  -3389644.83721        18.000           0.781
  23433273.766    -3322303.642 5  -2588810.24921        11.000           0.406
  23005973.250    -7881995.545 5  -6058401.33221        11.750           0.531
 91  5 20 19 17 15.0000000  0  5G18G19G11G16G 6
  22836493.102    10305759.690 6   8030446.40921        15.750           0.844
  21132017.117     2275328.171 6   1772981.58422        17.000           1.906
  23115562.531    -4345505.441 6  -3386096.97421        18.000           0.906
  23434664.477    -3314985.691 5  -2583107.98221        10.750           0.406
  23000235.820    -7912171.845 5  -6081915.27121        11.750           0.563
 91  5 20 19 17 30.0000000  0  5G18G19G11G16G 6
  22846017.438    10355814.982 6   8069450.42521        15.500           0.781
  21135228.039     2292215.638 6   1786140.63322        17.500           1.719
  23116452.961    -4340831.906 6  -3382455.25821        18.000           0.813
  23436072.781    -3307569.482 5  -2577329.16621        10.750           0.438
  22994481.406    -7942362.201 5  -6105440.17521        11.750           0.563
 91  5 20 19 17 45.0000000  0  5G18G19G11G16G 6
  22855549.125    10405902.175 6   8108479.31121        15.250           0.844
  21138449.227     2309129.213 6   1799320.02722        17.000           1.813
  23117364.930    -4336034.391 6  -3378716.93221        17.750           0.875
  23437506.820    -3300051.414 5  -2571470.98421        11.000           0.375
  22988741.977    -7972563.006 6  -6128973.21221        12.000           0.656
 91  5 20 19 18  0.0000000  0  5G18G19G11G16G 6
  22865085.773    10456019.057 6   8147531.32321        15.500           0.813
  21141671.461     2326067.163 6   1812518.40822        17.250           1.906
  23118300.102    -4331114.698 6  -3374883.40521        17.500           0.906
  23438956.766    -3292433.399 5  -2565534.90321        11.000           0.469
  22982988.805    -8002776.170 6  -6152515.87721        12.000           0.563
 91  5 20 19 18 15.0000000  0  5G18G19G11G16G 6
  22874628.969    10506167.750 6   8186608.12921        15.250           0.875
  21144901.930     2343031.898 6   1825737.66122        17.000           1.813
  23119260.961    -4326070.371 6  -3370952.75821        17.500           0.875
  23440423.734    -3284713.278 5  -2559519.25521        11.000           0.500
  22977241.289    -8032999.168 6  -6176066.21021        12.500           0.656
 91  5 20 19 18 30.0000000  0  5G18G19G11G16G 6
  22884180.578    10556354.548 6   8225714.62321        15.500           0.844
  21148134.539     2360029.927 6   1838982.86022        17.000           1.750
  23120246.094    -4320895.035 6  -3366920.03121        17.250           0.844
  23441913.727    -3276884.615 5  -2553419.04521        11.000           0.313
  22971481.813    -8063225.594 6  -6199619.22121        12.250           0.656
 91  5 20 19 18 45.0000000  0  5G18G19G11G16G 6
  22893735.828    10606571.481 6   8264844.60221        15.250           0.844
  21151375.500     2377053.559 6   1852248.01422        16.500           1.875
  23121254.125    -4315596.504 6  -3362791.30721        17.250           0.938
  23443425.391    -3268955.170 5  -2547240.29321        11.250           0.375
  22965734.703    -8093463.168 6  -6223180.91521        12.750           0.625
 91  5 20 19 19  0.0000000  0  5G18G19G11G16G 6
  22903297.602    10656820.610 6   8303999.67321        15.250           0.969
  21154620.586     2394105.086 6   1865534.89922        16.250           1.781
  23122285.680    -4310172.181 6  -3358564.55721        17.250           0.969
  23444952.828    -3260922.785 5  -2540981.33021        11.250           0.469
  22959973.352    -8123709.455 6  -6246749.39721        12.750           0.625
 91  5 20 19 19 15.0000000  0  5G18G19G11G16G 6
  22912865.969    10707100.031 6   8343178.34221        15.250           0.813
  21157869.977     2411183.024 6   1878842.36322        16.750           1.781
  23123342.766    -4304623.884 6  -3354241.20721        16.750           0.750
  23446497.133    -3252789.367 5  -2534643.64321        11.000           0.344
  22954220.508    -8153966.179 6  -6270326.00421        12.750           0.688
 91  5 20 19 19 30.0000000  0  5G18G19G11G16G 6
  22922439.336    10757413.183 6   8382383.29821        15.000           0.813
  21161124.352     2428291.190 6   1892173.38522        17.000           1.906
  23124421.711    -4298947.737 6  -3349818.23621        17.000           0.906
  23448068.031    -3244551.447 5  -2528224.52421        11.000           0.375
  22948464.039    -8184229.604 6  -6293907.84921        13.000           0.750
 91  5 20 19 19 45.0000000  0  5G18G19G11G16G 6
  22932019.000    10807758.435 6   8421613.26121        14.750           0.719
  21164386.766     2445428.173 6   1905526.86122        16.750           1.844
  23125526.555    -4293145.264 6  -3345296.82021        17.000           0.844
  23449654.781    -3236210.574 5  -2521725.17721        11.000           0.375
  22942699.102    -8214501.058 6  -6317495.94621        13.500           0.688
 91  5 20 19 20  0.0000000  0  5G18G19G11G16G 6
  22941606.602    10858135.007 6   8460867.62121        15.000           0.813
  21167652.258     2462593.414 6   1918902.35422        16.750           1.781
  23126654.992    -4287217.002 6  -3340677.39421        16.750           0.781
  23451260.109    -3227766.991 5  -2515145.81021        11.000           0.438
  22936934.844    -8244781.114 6  -6341090.73721        13.500           0.750
 91  5 20 19 20 15.0000000  0  5G18G19G11G16G 6
  22951200.164    10908546.714 6   8500149.36021        14.500           0.875
  21170925.750     2479790.801 6   1932302.89622        16.500           1.781
  23127806.719    -4281159.156 6  -3335956.99521        16.500           0.875
  23452889.672    -3219217.278 5  -2508483.73621        10.750           0.469
  22931174.945    -8275065.801 6  -6364689.15221        13.250           0.750
 91  5 20 19 20 30.0000000  0  5G18G19G11G16G 6
  22960799.453    10958996.618 6   8539460.87921        14.500           0.719
  21174203.703     2497023.882 6   1945731.25322        17.000           1.781
  23128985.328    -4274968.302 6  -3331132.95221        16.250           0.875
  23454535.602    -3210558.514 5  -2501736.68921        10.750           0.375
  22925412.391    -8305351.762 6  -6388288.54521        13.250           0.719
 91  5 20 19 20 45.0000000  0  5G18G19G11G16G 6
  22970408.266    11009484.231 6   8578801.76221        14.750           0.844
  21177491.773     2514292.178 6   1959187.04722        16.500           1.875
  23130188.531    -4268644.811 6  -3326205.56121        16.250           0.875
  23456205.477    -3201791.017 5  -2494904.90921        10.750           0.281
  22919649.648    -8335639.416 6  -6411889.26421        13.250           0.719
 91  5 20 19 21  0.0000000  0  5G18G19G11G16G 6
  22980022.406    11060009.089 6   8618171.69121        14.500           0.781
  21180783.594     2531595.780 6   1972670.35422        16.750           1.906
  23131417.641    -4262188.560 6  -3321174.71121        16.250           0.813
  23457896.000    -3192914.793 5  -2487988.41421        10.750           0.469
  22913884.227    -8365928.764 6  -6435491.29421        13.250           0.656
 91  5 20 19 21 15.0000000  0  5G18G19G11G16G 6
  22989643.992    11110569.504 6   8657569.31721        14.500           0.719
  21184083.023     2548933.353 6   1986180.13622        16.500           2.000
  23132670.594    -4255601.051 6  -3316041.58721        16.250           0.906
  23459601.617    -3183931.385 5  -2480988.39621        10.750           0.406
  22908121.336    -8396221.167 6  -6459095.71821        13.500           0.719
 91  5 20 19 21 30.0000000  0  5G18G19G11G16G 6
  22999272.664    11161168.573 6   8696997.06821        14.250           0.750
  21187387.398     2566308.267 6   1999719.00922        17.000           1.969
  23133949.648    -4248878.976 6  -3310803.61421        16.250           0.906
  23461335.000    -3174837.640 5  -2473902.40121        10.750           0.344
  22902356.523    -8426513.135 6  -6482699.80021        14.000           0.688
 91  5 20 19 21 45.0000000  0  5G18G19G11G16G 6
  23008908.258    11211804.150 6   8736453.25021        14.250           0.719
  21190702.805     2583718.360 6   2013285.29722        16.500           1.844
  23135254.828    -4242024.477 6  -3305462.44321        16.500           0.906
  23463086.484    -3165635.861 5  -2466732.21721        11.000           0.406
  22896591.039    -8456806.831 6  -6506305.25821        13.750           0.656
 91  5 20 19 22  0.0000000  0  5G18G19G11G16G 6
  23018550.789    11262477.270 6   8775938.69321        14.000           0.625
  21194022.055     2601165.128 6   2026880.16122        16.500           2.063
  23136583.742    -4235036.105 6  -3300016.95921        16.250           0.875
  23464859.086    -3156324.805 5  -2459476.88021        11.000           0.375
  22890827.578    -8487100.894 6  -6529910.95721        14.000           0.688
 91  5 20 19 22 15.0000000  0  5G18G19G11G16G 6
  23028201.203    11313187.663 6   8815453.17621        13.750           0.750
  21197350.375     2618648.788 6   2040503.77022        16.250           2.000
  23137939.555    -4227913.831 6  -3294467.12521        16.250           0.875
  23466649.438    -3146904.443 5  -2452136.38621        11.000           0.406
  22885059.992    -8517395.297 6  -6553516.94021        14.250           0.750
 91  5 20 19 22 30.0000000  0  5G18G19G11G16G 6
  23037859.016    11363936.349 6   8854997.49721        13.750           0.656
  21200682.438     2636170.308 6   2054156.88522        16.500           2.063
  23139319.781    -4220656.686 6  -3288812.20921        16.250           0.875
  23468465.219    -3137373.741 5  -2444709.90721        11.000           0.438
  22879293.883    -8547688.869 6  -6577122.27921        14.000           0.781
 91  5 20 19 22 45.0000000  0  5G18G19G11G16G 6
  23047522.555    11414723.118 6   8894571.49021        13.500           0.719
  21204026.141     2653729.853 6   2067839.62522        16.250           1.938
  23140727.047    -4213264.507 6  -3283052.07321        16.500           0.906
  23470297.906    -3127732.897 5  -2437197.60521        11.000           0.406
  22873530.797    -8577981.450 6  -6600726.84321        14.250           0.719
 91  5 20 19 23  0.0000000  0  5G18G19G11G16G 6
  23057193.672    11465547.127 6   8934174.49921        13.250           0.625
  21207374.008     2671327.059 6   2081551.72022        16.000           2.031
  23142159.266    -4205737.800 6  -3277187.10721        16.750           0.969
  23472155.742    -3117982.749 5  -2429600.12721        10.750           0.313
  22867769.359    -8608273.543 6  -6624331.02321        14.250           0.719
 91  5 20 19 23 15.0000000  0  5G18G19G11G16G 6
  23066873.813    11516412.222 6   8973809.52121        13.250           0.594
  21210730.305     2688965.758 6   2095296.13822        16.000           2.125
  23143618.258    -4198072.807 6  -3271214.38921        16.750           0.906
  23474030.711    -3108119.458 5  -2421914.48521        10.750           0.344
  22862001.195    -8638561.245 6  -6647931.78821        14.250           0.625
 91  5 20 19 23 30.0000000  0  5G18G19G11G16G 6
  23076560.500    11567314.135 6   9013473.22421        13.500           0.563
  21214092.313     2706641.982 6   2109069.80422        16.500           2.094
  23145102.938    -4190273.537 6  -3265137.03821        16.500           0.938
  23475928.023    -3098147.176 5  -2414143.93421        10.750           0.469
  22856239.180    -8668848.470 6  -6671532.17921        14.250           0.688
 91  5 20 19 23 45.0000000  0  5G18G19G11G16G 6
  23086253.117    11618252.596 6   9053165.42121        13.000           0.719
  21217465.438     2724355.954 6   2122872.88622        16.250           2.094
  23146611.602    -4182339.784 6  -3258954.89421        16.750           0.906
  23477850.109    -3088066.007 5  -2406288.51321        10.750           0.406
  22850477.930    -8699135.103 6  -6695132.11921        14.250           0.625
 91  5 20 19 24  0.0000000  0  5G18G19G11G16G 6
  23095953.414    11669236.815 6   9092893.26921        13.000           0.656
  21220844.570     2742117.241 6   2136712.83422        16.250           2.000
  23148149.633    -4174262.052 6  -3252660.56321        16.750           0.844
  23479788.508    -3077866.626 5  -2398340.99321        11.000           0.375
  22844712.961    -8729411.558 6  -6718724.10621        14.000           0.688
 91  5 20 19 24 15.0000000  0  5G18G19G11G16G 6
  23105664.164    11720260.481 6   9132651.85721        13.000           0.656
  21224232.031     2759919.307 6   2150584.56022        16.250           2.156
  23149711.828    -4166046.964 6  -3246259.20121        16.750           0.906
  23481751.258    -3067555.531 5  -2390306.41621        11.000           0.406
  22838955.867    -8759684.341 6  -6742313.24421        14.000           0.688
 91  5 20 19 24 30.0000000  0  5G18G19G11G16G 6
  23115381.680    11771324.665 6   9172442.00621        13.000           0.688
  21227626.711     2777763.829 6   2164489.37022        16.250           2.188
  23151303.117    -4157692.881 6  -3239749.52921        16.750           0.938
  23483733.914    -3057131.304 5  -2382183.68021        10.750           0.375
  22833192.555    -8789951.790 6  -6765898.21621        14.000           0.688
 91  5 20 19 24 45.0000000  0  5G18G19G11G16G 6
  23125105.258    11822428.962 6   9212263.41721        12.750           0.656
  21231032.828     2795650.758 6   2178427.22322        16.000           2.063
  23152918.656    -4149200.194 6  -3233131.85721        16.750           0.906
  23485737.070    -3046594.446 5  -2373973.19321        10.750           0.438
  22827437.688    -8820214.296 6  -6789479.35921        14.000           0.750
 91  5 20 19 25  0.0000000  0  5G18G19G11G16G 6
  23134836.781    11873576.065 6   9252118.18921        12.500           0.594
  21234443.008     2813583.153 6   2192400.50122        16.500           2.125
  23154561.500    -4140565.773 6  -3226403.73821        17.000           0.938
  23487767.984    -3035942.029 5  -2365672.65121        11.000           0.406
  22821676.305    -8850468.605 6  -6813054.10021        13.750           0.656
 91  5 20 19 25 15.0000000  0  5G18G19G11G16G 6
  23144576.414    11924752.721 6   9291995.97721        12.500           0.656
  21237863.273     2831547.896 6   2206398.98722        16.250           2.094
  23156228.977    -4131802.700 6  -3219575.37921        17.000           0.906
  23489814.977    -3025187.384 5  -2357292.45621        10.750           0.344
  22815918.594    -8880727.777 6  -6836632.63021        14.000           0.781
 91  5 20 19 25 30.0000000  0  5G18G19G11G16G 6
  23154324.969    11975966.940 6   9331903.04921        12.750           0.594
  21241289.922     2849553.455 6   2220429.27322        16.250           2.063
  23157923.266    -4122902.763 6  -3212640.37021        16.750           0.813
  23491880.031    -3014322.010 5  -2348825.97721        10.750           0.313
  22810165.867    -8910983.444 6  -6860208.42421        14.250           0.813
 91  5 20 19 25 45.0000000  0  5G18G19G11G16G 6
  23164081.406    12027221.322 6   9371841.41221        13.250           0.688
  21244724.148     2867602.461 6   2234493.41722        16.500           2.063
  23159643.063    -4113863.356 6  -3205596.68621        16.750           0.813
  23493968.586    -3003343.572 5  -2340271.39821        10.500           0.438
  22804405.641    -8941233.009 6  -6883779.48821        13.500           0.719
 91  5 20 19 26  0.0000000  0  5G18G19G11G16G 6
  23173840.883    12078521.021 6   9411815.08721        12.500           0.594
  21248166.453     2885700.618 6   2248595.86222        17.500           2.156
  23161389.586    -4104678.975 6  -3198440.03221        17.000           0.938
  23496080.477    -2992246.836 5  -2331624.62421        10.500           0.406
  22798650.453    -8971470.760 6  -6907341.32221        13.500           0.688
 91  5 20 19 26 15.0000000  0  5G18G19G11G16G 6
  23183606.211    12129856.824 6   9451816.89121        12.000           0.594
  21251621.258     2903838.780 6   2262729.48122        16.500           2.125
  23163163.320    -4095358.789 6  -3191177.56421        17.500           0.813
  23498214.422    -2981040.986 5  -2322892.85121        10.250           0.375
  22792898.664    -9001705.870 6  -6930901.10221        13.500           0.750
 91  5 20 19 26 30.0000000  0  5G18G19G11G16G 6
  23193384.250    12181236.498 6   9491852.88021        12.000           0.531
  21255080.445     2922024.979 6   2276900.53122        16.500           2.156
  23164965.852    -4085894.612 6  -3183802.88821        17.750           0.938
  23500367.828    -2969718.189 5  -2314069.93121        10.500           0.438
  22787148.320    -9031930.194 6  -6954452.48621        14.000           0.781
 91  5 20 19 26 45.0000000  0  5G18G19G11G16G 6
  23203171.719    12232656.577 6   9531920.34821        12.500           0.594
  21258550.414     2940256.178 6   2291106.64822        16.500           2.125
  23166793.258    -4076289.783 6  -3176318.61621        17.750           0.813
  23502544.789    -2958281.929 5  -2305158.60821        10.500           0.344
  22781398.797    -9062146.954 6  -6977997.96321        13.750           0.688
 91  5 20 19 27  0.0000000  0  5G18G19G11G16G 6
  23212968.711    12284115.060 6   9572017.74921        13.500           0.656
  21262027.656     2958530.590 6   2305346.43522        16.250           2.063
  23168647.461    -4066546.189 6  -3168726.22221        17.500           0.969
  23504740.273    -2946733.949 5  -2296160.21921        10.250           0.313
  22775649.234    -9092357.781 6  -7001538.81621        13.500           0.813
 91  5 20 19 27 15.0000000  0  5G18G19G11G16G 6
  23222767.945    12335609.469 6   9612143.13321        13.500           0.594
  21265514.234     2976846.073 6   2319618.22622        16.250           2.094
  23170526.977    -4056665.975 6  -3161027.37021        17.500           0.906
  23506960.203    -2935076.660 5  -2287076.68021        10.500           0.438
  22769897.508    -9122564.881 6  -7025076.77021        14.000           0.781
 91  5 20 19 27 30.0000000  0  5G18G19G11G16G 6
  23232573.023    12387144.027 6   9652299.80921        13.250           0.625
  21269003.719     2995207.116 6   2333925.52022        17.000           2.156
  23172434.594    -4046644.834 6  -3153218.69721        17.750           0.906
  23509201.180    -2923305.806 5  -2277904.62321        10.250           0.375
  22764153.781    -9152763.864 6  -7048608.40521        13.750           0.813
 91  5 20 19 27 45.0000000  0  5G18G19G11G16G 6
  23242386.898    12438721.833 6   9692490.18121        12.750           0.531
  21272510.875     3013616.954 6   2348270.83922        16.250           2.094
  23174367.695    -4036479.494 6  -3145297.67521        17.500           0.938
  23511463.609    -2911418.435 5  -2268641.80921        10.250           0.344
  22758408.930    -9182951.358 6  -7072131.08921        14.000           0.781
 91  5 20 19 28  0.0000000  0  5G18G19G11G16G 6
  23252208.867    12490341.673 6   9732713.30721        12.500           0.531
  21276024.133     3032074.931 6   2362653.66622        15.750           2.094
  23176329.633    -4026170.961 6  -3137265.06421        17.500           0.875
  23513747.484    -2899415.511 5  -2259288.90921        10.750           0.344
  22752665.969    -9213128.219 6  -7095645.48021        14.000           0.719
 91  5 20 19 28 15.0000000  0  5G18G19G11G16G 6
  23262039.008    12542003.871 6   9772969.43721        12.000           0.688
  21279544.406     3050581.509 6   2377074.36522        16.000           2.125
  23178319.836    -4015718.711 6  -3129120.46421        17.500           0.844
  23516052.875    -2887296.714 5  -2249845.73321        10.500           0.406
  22746924.891    -9243293.970 6  -7119151.22121        14.250           0.750
 91  5 20 19 28 30.0000000  0  5G18G19G11G16G 6
  23271877.711    12593705.966 5   9813256.65521        11.750           0.563
  21283074.703     3069134.420 6   2391531.16522        15.250           2.031
  23180335.977    -4005125.159 6  -3120865.75821        17.500           0.844
  23518380.086    -2875064.524 5  -2240314.20621        10.500           0.375
  22741186.305    -9273450.873 6  -7142650.07021        14.500           0.719
 91  5 20 19 28 45.0000000  0  5G18G19G11G16G 6
  23281722.180    12645447.881 5   9853574.89821        11.750           0.594
  21286615.344     3087734.182 6   2406024.47522        15.750           2.063
  23182377.844    -3994389.820 6  -3112500.58021        17.750           0.844
  23520729.289    -2862718.762 5  -2230694.19321        10.500           0.438
  22735448.781    -9303598.483 6  -7166141.69521        14.000           0.656
 91  5 20 19 29  0.0000000  0  5G18G19G11G16G 6
  23291573.547    12697228.945 5   9893923.65221        11.250           0.563
  21290163.352     3106380.411 6   2420553.98822        15.500           2.156
  23184448.055    -3983513.169 6  -3104025.28421        17.500           0.906
  23523098.414    -2850259.900 5  -2220986.02621        10.250           0.500
  22729714.313    -9333736.984 6  -7189626.19721        14.250           0.750
 91  5 20 19 29 15.0000000  0  5G18G19G11G16G 6
  23301434.383    12749049.969 5   9934303.53421        11.000           0.594
  21293719.414     3125073.830 6   2435120.27222        15.750           2.063
  23186544.461    -3972494.756 6  -3095439.52121        17.750           0.938
  23525491.273    -2837687.733 5  -2211189.59721        10.250           0.500
  22723983.430    -9363865.927 6  -7213103.23221        14.250           0.719
 91  5 20 19 29 30.0000000  0  5G18G19G11G16G 6
  23311303.664    12800914.116 5   9974717.03221        11.000           0.625
  21297283.828     3143817.950 6   2449726.06622        16.500           2.125
  23188669.602    -3961330.997 6  -3086740.50821        17.500           0.813
  23527907.023    -2824998.490 5  -2201301.92321        10.500           0.406
  22718248.383    -9393981.560 6  -7236569.94121        14.500           0.781
 91  5 20 19 29 45.0000000  0  5G18G19G11G16G 6
  23321181.555    12852818.302 5  10015161.71721        11.000           0.625
  21300862.156     3162610.162 6   2464369.33122        15.750           2.031
  23190820.656    -3950024.584 6  -3077930.32521        17.750           0.813
  23530343.313    -2812195.281 5  -2191325.44921        10.250           0.438
  22712522.070    -9424086.509 6  -7260028.30421        14.250           0.750
 91  5 20 19 30  0.0000000  0  5G18G19G11G16G 6
  23331066.547    12904762.521 5  10055637.60321        11.000           0.531
  21304445.875     3181450.426 6   2479050.04122        16.250           2.125
  23192999.523    -3938575.660 6  -3069009.10521        17.750           0.844
  23532801.563    -2799278.236 5  -2181260.26521        10.250           0.438
  22706794.305    -9454180.891 6  -7283478.45121        14.250           0.813
 91  5 20 19 30 15.0000000  0  5G18G19G11G16G 6
  23340957.836    12956742.649 5  10096141.46721        11.000           0.594
  21308042.125     3200335.503 6   2493765.67122        15.750           2.063
  23195203.273    -3926987.742 6  -3059979.57521        17.500           0.781
  23535282.727    -2786251.129 5  -2171109.32621        10.250           0.438
  22701072.070    -9484268.018 6  -7306922.91621        14.500           0.813
 91  5 20 19 30 30.0000000  0  5G18G19G11G16G 6
  23350859.047    13008764.259 5  10136677.65221        11.250           0.438
  21311642.727     3219270.987 6   2508520.57922        16.000           2.125
  23197436.273    -3915255.327 6  -3050837.44821        17.500           0.875
  23537784.016    -2773108.532 5  -2160868.40521        10.500           0.531
  22695348.039    -9514342.310 6  -7330357.39621        14.500           0.781
 91  5 20 19 30 45.0000000  0  5G18G19G11G16G 6
  23360766.594    13060825.000 5  10177244.33321        11.500           0.500
  21315257.211     3238254.805 6   2523313.15422        15.750           2.219
  23199696.758    -3903380.574 6  -3041584.41421        17.750           0.844
  23540304.445    -2759852.616 5  -2150539.17121        10.250           0.469
  22689626.578    -9544405.807 6  -7353783.45121        14.750           0.813
 91  5 20 19 31  0.0000000  0  5G18G19G11G16G 6
  23370683.367    13112925.064 5  10217841.64721        11.750           0.531
  21318877.148     3257287.184 6   2538143.56622        16.000           2.063
  23201982.516    -3891363.329 6  -3032220.34221        17.500           0.875
  23542848.930    -2746483.427 5  -2140121.67921        10.000           0.406
  22683906.641    -9574458.192 6  -7377200.84621        14.500           0.781
 91  5 20 19 31 15.0000000  0  5G18G19G11G16G 6
  23380604.438    13165062.677 6  10258468.22421        12.000           0.500
  21322508.758     3276366.889 6   2553010.85622        15.750           2.094
  23204297.578    -3879204.894 6  -3022746.25221        17.750           0.875
  23545414.055    -2733002.323 5  -2129616.96921        10.000           0.406
  22678190.813    -9604500.847 6  -7400610.65621        14.500           0.813
 91  5 20 19 31 30.0000000  0  5G18G19G11G16G 6
  23390532.164    13217239.173 5  10299125.09921        11.750           0.500
  21326151.359     3295495.495 6   2567916.25522        15.500           2.188
  23206637.945    -3866903.882 6  -3013161.06521        17.500           0.844
  23547999.867    -2719408.029 5  -2119024.07621        10.000           0.438
  22672474.539    -9634532.024 6  -7424011.52021        14.750           0.813
 91  5 20 19 31 45.0000000  0  5G18G19G11G16G 6
  23400468.602    13269458.253 5  10339815.15521        11.750           0.500
  21329800.141     3314677.140 6   2582862.97522        15.750           2.031
  23209006.781    -3854456.297 6  -3003461.66621        17.750           0.844
  23550612.109    -2705696.708 5  -2108339.97521        10.000           0.375
  22666761.898    -9664547.747 6  -7447400.34321        14.500           0.781
 91  5 20 19 32  0.0000000  0  5G18G19G11G16G 6
  23410413.609    13321712.993 5  10380532.99121        11.750           0.469
  21333456.836     3333905.141 6   2597845.82022        16.000           2.031
  23211402.828    -3841868.965 6  -2993653.36621        17.750           0.813
  23553241.672    -2691875.633 5  -2097570.36921        10.250           0.469
  22661054.125    -9694554.777 6  -7470782.40721        14.750           0.813
 91  5 20 19 32 15.0000000  0  5G18G19G11G16G 6
  23420364.156    13374005.146 5  10421279.99221        11.750           0.406
  21337127.594     3353181.525 6   2612866.35422        15.500           2.063
  23213824.359    -3829139.963 6  -2983734.68121        17.750           0.938
  23555895.188    -2677942.691 5  -2086713.58421        10.000           0.406
  22655346.773    -9724551.040 6  -7494156.07921        15.000           0.750
 91  5 20 19 32 30.0000000  0  5G18G19G11G16G 6
  23430322.766    13426330.603 5  10462052.93921        11.750           0.500
  21340803.930     3372502.424 6   2627921.58322        15.750           2.125
  23216271.805    -3816273.353 6  -2973708.76921        17.750           0.938
  23558563.500    -2663902.134 5  -2075772.96021         9.750           0.438
  22649639.625    -9754540.395 6  -7517524.36221        15.000           0.844
 91  5 20 19 32 45.0000000  0  5G18G19G11G16G 6
  23440288.773    13478693.162 6  10502854.79521        12.250           0.469
  21344489.828     3391872.085 6   2643014.80722        15.750           2.031
  23218747.844    -3803265.049 6  -2963572.44421        17.750           0.875
  23561257.063    -2649749.989 5  -2064745.37221         9.750           0.375
  22643931.875    -9784518.683 6  -7540884.02821        15.000           0.781
 91  5 20 19 33  0.0000000  0  5G18G19G11G16G 6
  23450262.180    13531090.194 6  10543683.50321        12.750           0.500
  21348184.078     3411287.780 6   2658143.90422        15.750           2.031
  23221249.859    -3790117.755 6  -2953327.82221        17.750           0.875
  23563971.063    -2635489.101 5  -2053633.03521         9.750           0.531
  22638229.117    -9814488.434 6  -7564237.04621        15.000           0.750
 91  5 20 19 33 15.0000000  0  5G18G19G11G16G 6
  23460240.227    13583522.310 6  10584539.56421        13.000           0.406
  21351889.164     3430750.665 6   2673309.77322        15.750           2.000
  23223777.555    -3776830.500 6  -2942974.12821        17.500           0.844
  23566704.961    -2621118.528 5  -2042435.26121         9.500           0.469
  22632526.531    -9844448.682 6  -7587582.65121        15.250           0.750
 91  5 20 19 33 30.0000000  0  5G18G19G11G16G 6
  23470221.398    13635989.371 6  10625422.85121        12.000           0.531
  21355601.430     3450260.836 6   2688512.48822        15.750           1.875
  23226333.289    -3763403.406 6  -2932511.47621        17.500           0.813
  23569460.008    -2606638.636 5  -2031152.28021         9.500           0.531
  22626828.133    -9874399.167 6  -7610920.66121        15.250           0.938
 91  5 20 19 33 45.0000000  0  5G18G19G11G16G 6
  23480210.047    13688490.541 5  10666332.72021        11.250           0.438
  21359322.320     3469817.731 6   2703751.60522        15.750           2.000
  23228914.281    -3749837.060 6  -2921940.31121        17.500           0.813
  23572238.195    -2592050.021 5  -2019784.57321         9.250           0.469
  22621130.664    -9904340.477 6  -7634251.50121        15.500           0.813
 91  5 20 19 34  0.0000000  0  5G18G19G11G16G 6
  23490203.031    13741027.803 5  10707270.70621        10.250           0.406
  21363051.203     3489423.583 6   2719028.87622        17.000           1.938
  23231521.922    -3736129.394 6  -2911259.03021        17.000           0.875
  23575034.156    -2577350.675 5  -2008330.60921         9.250           0.438
  22615436.180    -9934270.430 6  -7657573.51621        15.250           0.844
 91  5 20 19 34 15.0000000  0  5G18G19G11G16G 6
  23500207.047    13793601.180 5  10748236.82721         9.750           0.469
  21366792.648     3509078.820 6   2734344.62522        16.500           2.031
  23234159.836    -3722280.098 6  -2900467.39221        17.000           1.000
  23577851.055    -2562540.631 5  -1996790.37221         9.500           0.281
  22609743.219    -9964188.519 6  -7680886.27121        15.000           0.750
 91  5 20 19 34 30.0000000  0  5G18G19G11G16G 6
  23510222.500    13846201.992 5  10789224.32921        10.750           0.406
  21370540.453     3528775.024 6   2749692.30522        16.500           2.031
  23236819.469    -3708297.709 6  -2889572.04921        16.500           0.750
  23580690.656    -2547628.462 5  -1985170.55721         9.250           0.375
  22604052.219    -9994103.125 6  -7704196.31121        15.000           0.781
 91  5 20 19 34 45.0000000  0  5G18G19G11G16G 6
  23520240.773    13898838.493 5  10830239.63221        11.250           0.406
  21374299.672     3548520.991 6   2765078.75222        16.250           1.938
  23239506.133    -3694173.713 6  -2878566.35821        16.500           0.781
  23583549.164    -2532605.628 5  -1973464.52021         9.250           0.375
  22598361.289   -10024005.723 6  -7727496.99721        15.000           0.813
 91  5 20 19 35  0.0000000  0  5G18G19G11G16G 6
  23530263.867    13951512.278 5  10871283.99921        11.000           0.375
  21378064.516     3568318.452 6   2780505.32322        16.750           1.906
  23242223.648    -3679906.550 6  -2867449.10821        16.000           0.906
  23586428.570    -2517470.967 5  -1961671.33921         9.500           0.375
  22592671.469   -10053894.575 6  -7750786.96921        15.000           0.906
 91  5 20 19 35 15.0000000  0  5G18G19G11G16G 6
  23540293.609    14004221.447 5  10912355.93921        10.750           0.500
  21381844.023     3588165.828 6   2795970.79222        16.500           1.875
  23244962.742    -3665497.819 6  -2856221.54721        16.500           0.781
  23589332.055    -2502226.154 5  -1949792.30921         9.000           0.438
  22586986.063   -10083771.034 6  -7774067.28721        15.000           0.813
 91  5 20 19 35 30.0000000  0  5G18G19G11G16G 6
  23550327.453    14056962.242 5  10953452.50821        10.500           0.406
  21385628.500     3608059.262 6   2811472.14622        16.250           1.906
  23247733.578    -3650951.416 6  -2844886.70021        16.750           0.875
  23592250.563    -2486875.125 5  -1937830.53021         9.250           0.469
  22581305.219   -10113639.025 6  -7797341.00921        14.750           0.813
 91  5 20 19 35 45.0000000  0  5G18G19G11G16G 6
  23560373.961    14109736.048 5  10994574.79721        11.000           0.344
  21389423.867     3628000.886 6   2827011.04922        16.250           1.813
  23250525.828    -3636265.497 6  -2833443.16021        16.250           0.938
  23595194.469    -2471415.781 5  -1925784.36421         9.250           0.406
  22575620.352   -10143496.373 6  -7820606.42621        14.750           0.781
 91  5 20 19 36  0.0000000  0  5G18G19G11G16G 6
  23570425.977    14162545.006 5  11035724.48821        11.750           0.438
  21393226.813     3647993.109 6   2842589.38522        16.500           1.844
  23253348.906    -3621437.834 6  -2821889.15321        16.500           0.813
  23598156.844    -2455846.430 5  -1913652.45121         9.000           0.469
  22569942.500   -10173340.692 6  -7843861.70121        14.750           0.844
 91  5 20 19 36 15.0000000  0  5G18G19G11G16G 6
  23580480.359    14215387.503 5  11076900.31321        11.250           0.531
  21397041.531     3668034.504 6   2858206.03922        16.000           1.750
  23256197.336    -3606469.910 6  -2810225.85021        16.750           0.875
  23601140.539    -2440168.454 5  -1901435.92221         9.000           0.344
  22564267.094   -10203173.397 6  -7867107.93021        14.500           0.875
 91  5 20 19 36 30.0000000  0  5G18G19G11G16G 6
  23590538.102    14268265.285 5  11118103.63721        10.250           0.344
  21400865.016     3688127.029 6   2873862.53322        16.500           1.875
  23259071.836    -3591359.971 6  -2798451.90521        17.000           0.844
  23604144.164    -2424380.308 5  -1889133.51421         9.000           0.438
  22558590.930   -10232992.451 6  -7890343.51621        14.500           0.875
 91  5 20 19 36 45.0000000  0  5G18G19G11G16G 6
  23600602.727    14321175.885 5  11159332.50921         9.500           0.375
  21404700.242     3708268.524 6   2889557.18622        16.250           1.781
  23261972.766    -3576110.308 6  -2786569.06121        16.250           0.938
  23607168.086    -2408484.361 5  -1876747.13421         9.000           0.375
  22552919.828   -10262800.154 6  -7913570.25321        14.750           0.844
 91  5 20 19 37  0.0000000  0  5G18G19G11G16G 6
  23610680.391    14374120.046 5  11200587.55121        10.000           0.344
  21408540.289     3728460.087 6   2905290.84022        16.500           1.813
  23264902.430    -3560720.016 6  -2774576.64721        16.750           0.781
  23610215.539    -2392479.915 5  -1864276.19521         8.750           0.438
  22547248.195   -10292595.371 6  -7936787.26621        14.750           0.906
 91  5 20 19 37 15.0000000  0  5G18G19G11G16G 6
  23620766.773    14427097.523 5  11241868.53821        11.000           0.406
  21412392.484     3748701.579 6   2921063.41322        16.250           1.875
  23267858.555    -3545189.411 6  -2762474.88721        16.500           0.781
  23613280.563    -2376367.280 5  -1851720.96821         9.000           0.438
  22541580.852   -10322378.230 6  -7959994.65321        14.750           0.969
 91  5 20 19 37 30.0000000  0  5G18G19G11G16G 6
  23630854.266    14480106.779 5  11283174.29121        11.250           0.469
  21416252.695     3768992.064 6   2936874.15522        16.500           1.781
  23270840.102    -3529519.440 6  -2750264.54721        16.750           0.844
  23616366.414    -2360147.745 5  -1839082.43121         8.750           0.469
  22535917.188   -10352149.521 6  -7983193.01721        14.500           0.938
 91  5 20 19 37 45.0000000  0  5G18G19G11G16G 6
  23640947.078    14533148.916 5  11324505.68421        11.000           0.375
  21420124.352     3789333.052 6   2952724.25822        16.250           1.750
  23273848.680    -3513708.894 6  -2737944.65921        16.750           0.906
  23619473.695    -2343820.148 5  -1826359.69421         8.750           0.469
  22530252.297   -10381907.963 6  -8006381.37621        14.750           0.938
 91  5 20 19 38  0.0000000  0  5G18G19G11G16G 6
  23651045.336    14586216.997 5  11365857.27721        10.750           0.344
  21424004.344     3809717.649 6   2968608.33322        16.250           1.875
  23276882.242    -3497764.947 6  -2725520.81721        16.750           0.906
  23622599.344    -2327391.748 5  -1813558.41821         9.000           0.406
  22524589.836   -10411660.518 6  -8029565.14421        14.750           0.969
 91  5 20 19 38 15.0000000  0  5G18G19G11G16G 6
  23661147.547    14639315.373 5  11407232.47021        10.250           0.344
  21427892.289     3830150.685 6   2984530.15422        16.500           1.844
  23279943.031    -3481682.913 6  -2712989.37021        17.000           0.875
  23625746.273    -2310857.797 5  -1800674.88621         8.750           0.500
  22518932.680   -10441402.240 6  -8052740.48121        14.500           0.875
 91  5 20 19 38 30.0000000  0  5G18G19G11G16G 6
  23671256.828    14692447.897 5  11448634.27521         9.500           0.344
  21431787.477     3850636.324 6   3000492.96122        17.250           1.750
  23283030.547    -3465458.849 6  -2700347.27621        17.000           0.938
  23628915.469    -2294214.579 5  -1787706.20621         9.000           0.375
  22513276.172   -10471129.046 6  -8075904.17121        14.750           0.906
 91  5 20 19 38 45.0000000  0  5G18G19G11G16G 6
  23681376.047    14745610.297 5  11490059.36121         9.750           0.469
  21435697.289     3871170.323 6   3016493.45622        16.250           1.781
  23286145.148    -3449096.886 6  -2687597.70721        17.000           0.781
  23632101.906    -2277466.292 5  -1774655.66421         9.000           0.406
  22507621.625   -10500844.949 6  -8099059.37521        15.250           0.813
 91  5 20 19 39  0.0000000  0  5G18G19G11G16G 6
  23691503.078    14798805.999 5  11531510.38121        10.750           0.313
  21439616.180     3891756.443 6   3032534.56422        16.250           1.906
  23289284.234    -3432593.630 6  -2674738.04321        16.750           0.750
  23635309.109    -2260609.761 5  -1761520.77821         9.000           0.438
  22501968.117   -10530546.276 6  -8122203.22421        15.250           0.938
 91  5 20 19 39 15.0000000  0  5G18G19G11G16G 6
  23701628.992    14852031.148 5  11572984.38421        10.250           0.375
  21443540.867     3912391.361 6   3048613.69922        16.500           1.875
  23292453.078    -3415952.584 6  -2661771.01921        17.000           0.813
  23638537.977    -2243648.146 5  -1748303.99921         9.250           0.375
  22496317.188   -10560236.357 6  -8145338.30921        15.250           0.969
 91  5 20 19 39 30.0000000  0  5G18G19G11G16G 6
  23711760.016    14905289.078 5  11614483.90221         9.000           0.406
  21447481.008     3933078.431 6   3064733.46922        16.250           1.813
  23295643.805    -3399170.475 6  -2648694.06721        17.000           0.688
  23641785.367    -2226578.741 5  -1735003.22621         9.250           0.469
  22490670.492   -10589911.732 6  -8168461.93921        15.250           1.000
 91  5 20 19 39 45.0000000  0  5G18G19G11G16G 6
  23721902.078    14958579.272 5  11656008.58321         9.250           0.313
  21451424.445     3953817.438 6   3080893.70922        16.500           1.781
  23298865.563    -3382247.721 6  -2635507.52321        17.500           0.844
  23645053.734    -2209402.225 5  -1721618.99421         9.250           0.375
  22485026.422   -10619572.622 6  -8191574.27521        15.250           0.938
 91  5 20 19 40  0.0000000  0  5G18G19G11G16G 6
  23732052.352    15011902.893 5  11697559.27921         9.500           0.281
  21455380.625     3974609.850 6   3097095.56422        17.250           1.906
  23302112.070    -3365182.802 6  -2622210.19621        17.500           0.844
  23648343.898    -2192117.068 5  -1708150.12121         9.500           0.375
  22479386.898   -10649217.444 6  -8214674.09421        15.250           0.906
 91  5 20 19 40 15.0000000  0  5G18G19G11G16G 6
  23742204.766    15065255.318 5  11739132.41921         9.500           0.313
  21459347.711     3995451.198 6   3113335.54922        16.250           1.750
  23305387.609    -3347980.558 6  -2608805.86321        17.250           0.781
  23651651.703    -2174727.981 5  -1694600.24021         9.500           0.281
  22473748.156   -10678850.745 6  -8237764.93721        15.250           0.938
 91  5 20 19 40 30.0000000  0  5G18G19G11G16G 6
  23752361.297    15118637.268 5  11780728.59621         9.000           0.375
  21463323.836     4016342.738 6   3129614.64022        16.000           1.875
  23308686.406    -3330639.999 6  -2595293.74721        17.250           0.688
  23654979.000    -2157234.331 5  -1680968.91121         9.500           0.344
  22468110.773   -10708471.316 6  -8260845.86621        15.250           1.031
 91  5 20 19 40 45.0000000  0  5G18G19G11G16G 6
  23762524.430    15172047.823 5  11822347.03621         9.000           0.313
  21467309.570     4037284.057 6   3145932.52322        16.500           1.875
  23312011.875    -3313161.676 6  -2581674.29021        17.000           0.719
  23658329.531    -2139636.555 5  -1667256.40621         9.500           0.531
  22462475.313   -10738079.653 6  -8283917.25621        15.500           0.938
 91  5 20 19 41  0.0000000  0  5G18G19G11G16G 6
  23772694.469    15225487.974 5  11863988.54521         9.000           0.344
  21471305.320     4058276.204 6   3162290.01222        16.000           1.844
  23315363.781    -3295544.558 6                        16.750
  23661697.891    -2121933.830 5                         9.750
  22456842.711   -10767674.435 6  -8306978.08121        15.500           0.938
 91  5 20 19 41 15.0000000  0  5G18G19G11G16G 6
  23782871.656    15278958.449 5  11905653.67021         9.250           0.313
  21475307.063     4079320.122 6   3178687.84122        16.500           1.844
  23318743.930    -3277788.078 6                        16.750
  23665087.273    -2104125.748 5                         9.250
  22451215.703   -10797255.010 6  -8330027.84521        15.750           0.938
 91  5 20 19 41 30.0000000  0  5G18G19G11G16G 6
  23793051.570    15332455.607 5  11947339.60621         9.250           0.375
  21479322.328     4100412.434 6   3195123.38022        15.750           1.844
  23322149.156    -3259895.783 6                        17.000
  23668495.742    -2086215.800 5                         9.250
  22445588.500   -10826824.622 6  -8353069.05321        15.750           0.969
 91  5 20 19 41 45.0000000  0  5G18G19G11G16G 6
  23803237.297    15385983.150 5  11989049.19921         9.250           0.406
  21483342.891     4121557.596 6   3211600.10222        16.250           1.813
  23325580.031    -3241863.379 6                        16.500
  23671923.680    -2068199.829 5                         9.500
  22439962.336   -10856378.816 6  -8376098.26421        15.750           1.031
 91  5 20 19 42  0.0000000  0  5G18G19G11G16G 6
  23813425.945    15439539.848 5  12030781.52221         9.500           0.344
  21487375.617     4142754.401 6   3228117.06322        17.250           1.875
  23329037.844    -3223692.170 6                        16.750
  23675372.133    -2050079.490 5                         9.500
  22434342.539   -10885918.800 6  -8399116.39321        15.750           0.969
 91  5 20 19 42 15.0000000  0  5G18G19G11G16G 6
  23823625.984    15493125.939 5  12072536.74121         9.750           0.344
  21491422.727     4164003.455 6   3244674.73922        16.250           1.906
  23332521.602    -3205381.833 6  -2497690.08421        16.750           0.750
  23678840.641    -2031854.492 5  -1583270.81021         9.500           0.375
  22428723.461   -10915443.952 6  -8422122.97921        15.500           1.031
 91  5 20 19 42 30.0000000  0  5G18G19G11G16G 6
  23833826.742    15546736.068 5  12114310.69521         9.250           0.406
  21495473.516     4185299.579 6   3261269.09622        16.750           1.906
  23336030.648    -3186937.623 6  -2483317.98121        16.500           0.750
  23682326.125    -2013530.012 5  -1568992.05821         9.500           0.313
  22423107.227   -10944959.224 6  -8445121.84321        15.750           0.969
 91  5 20 19 42 45.0000000  0  5G18G19G11G16G 6
  23844034.195    15600375.070 5  12156107.14621        10.000           0.375
  21499538.227     4206647.617 6   3277903.89922        16.250           1.906
  23339566.625    -3168354.869 6  -2468837.93421        16.500           0.813
  23685835.242    -1995101.554 5  -1554632.30521         9.500           0.375
  22417493.555   -10974459.975 6  -8468109.40221        15.750           1.031
 91  5 20 19 43  0.0000000  0  5G18G19G11G16G 6
  23854246.781    15654040.132 5  12197923.90921         9.750           0.344
  21503607.234     4228045.370 6   3294577.44922        16.750           1.969
  23343130.125    -3149636.130 6  -2454251.91621        16.250           0.750
  23689360.859    -1976571.982 5  -1540193.74421         9.750           0.406
  22411882.445   -11003948.315 6  -8491087.29921        15.750           0.938
 91  5 20 19 43 15.0000000  0  5G18G19G11G16G 6
  23864463.563    15707732.639 5  12239762.04021         9.750           0.406
  21507689.672     4249494.768 6   3311291.23822        16.250           1.906
  23346717.875    -3130779.574 6  -2439558.50621        16.500           0.719
  23692906.547    -1957939.367 5  -1525674.89321         9.500           0.406
  22406272.438   -11033422.306 6  -8514054.00521        15.500           0.906
 91  5 20 19 43 30.0000000  0  5G18G19G11G16G 6
  23874686.500    15761452.233 5  12281621.29021        10.000           0.375
  21511780.508     4270995.540 6   3328045.05722        16.500           1.906
  23350330.953    -3111785.680 6  -2424758.07821        16.500           0.688
  23696473.156    -1939204.235 5  -1511076.16421         9.750           0.469
  22400667.563   -11062882.307 6  -8537009.81121        15.250           1.031
 91  5 20 19 43 45.0000000  0  5G18G19G11G16G 6
  23884914.539    15815199.741 5  12323502.29721        10.000           0.344
  21515882.609     4292548.780 6   3344839.76422        16.250           1.969
  23353973.445    -3092653.621 6  -2409849.99321        16.750           0.750
  23700056.719    -1920365.940 5  -1496397.04621         9.750           0.375
  22395064.125   -11092327.080 6  -8559953.75421        15.750           1.125
 91  5 20 19 44  0.0000000  0  5G18G19G11G16G 6
  23895148.008    15868973.814 5  12365403.99321         9.750           0.313
  21519995.391     4314153.420 6   3361674.51822        16.000           2.031
  23357639.094    -3073384.609 6  -2394835.20321        15.750           0.625
  23703660.281    -1901425.753 5  -1481638.52321         9.750           0.344
  22389461.711   -11121757.809 6  -8582886.76221        15.750           1.031
 91  5 20 19 44 15.0000000  0  5G18G19G11G16G 6
  23905385.555    15922769.568 5  12407322.59121         9.750           0.406
  21524113.172     4335804.803 6   3378545.69822        16.250           2.000
  23361332.133    -3053983.423 6  -2379717.42621        16.250           0.719
  23707283.484    -1882388.635 5  -1466804.47721         9.750           0.344
  22383865.406   -11151178.861 6  -8605812.22121        15.750           1.063
 91  5 20 19 44 30.0000000  0  5G18G19G11G16G 6
  23915626.414    15976586.732 5  12449257.85521         9.750           0.375
  21528242.391     4357503.125 6   3395453.45422        16.500           1.938
  23365047.789    -3034450.253 6  -2364496.78921        15.750           0.719
  23710925.414    -1863254.986 5  -1451895.21021         9.500           0.406
  22378268.922   -11180590.181 6  -8628730.10121        15.750           1.000
 91  5 20 19 44 45.0000000  0  5G18G19G11G16G 6
  23925870.031    16030422.623 5  12491207.74021         9.000           0.438
  21532381.914     4379245.736 6   3412395.72322        16.250           2.031
  23368790.727    -3014787.932 6  -2349175.54021        15.500           0.750
  23714583.664    -1844027.596 5  -1436912.90421         9.500           0.375
  22372670.633   -11209994.428 6  -8651642.46521        16.250           1.031
 91  5 20 19 45  0.0000000  0  5G18G19G11G16G 6
  23936120.977    16084284.577 5  12533177.90721         9.500           0.406
  21536526.750     4401040.442 6   3429378.58422        16.250           2.031
  23372559.445    -2994988.708 6  -2333747.59721        16.250           0.844
  23718260.367    -1824698.797 5  -1421851.56621         9.750           0.406
  22367078.758   -11239383.623 6  -8674543.10521        16.000           1.031
 91  5 20 19 45 15.0000000  0  5G18G19G11G16G 6
  23946374.414    16138169.978 5  12575166.35321         8.750           0.344
  21540685.844     4422884.789 6   3446400.12922        16.250           1.938
  23376350.531    -2975055.287 6  -2318215.09121        16.000           0.781
  23721960.172    -1805270.996 5  -1406713.08721         9.750           0.406
  22361488.086   -11268760.248 6  -8697433.94621        16.250           1.156
 91  5 20 19 45 30.0000000  0  5G18G19G11G16G 6
  23956632.930    16192081.233 5  12617174.94621         8.500           0.250
  21544852.617     4444781.664 6   3463462.60422        16.250           1.875
  23380168.484    -2954985.016 6  -2302575.96521        15.500           0.625
  23725673.305    -1785742.059 5  -1391495.81321         9.500           0.375
  22355902.273   -11298121.442 6  -8720312.75921        16.250           1.063
 91  5 20 19 45 45.0000000  0  5G18G19G11G16G 6
  23966898.500    16246019.147 5  12659204.31721         8.750           0.375
  21549028.883     4466732.072 6   3480566.79622        16.000           2.000
  23384014.992    -2934777.086 6  -2286829.54921        16.000           0.750
  23729409.992    -1766111.386 5  -1376199.26421         9.500           0.281
  22350316.484   -11327466.227 6  -8743178.79321        16.750           1.125
 91  5 20 19 46  0.0000000  0  5G18G19G11G16G 6
  23977163.727    16299981.194 5  12701252.48521         8.000           0.250
  21553217.328     4488733.991 6   3497711.12522        16.250           2.000
  23387885.750    -2914433.795 6  -2270977.65821        16.250           0.781
  23733164.078    -1746381.040 5  -1360825.04021         9.250           0.406
  22344736.141   -11356796.754 6  -8766033.71821        16.750           1.000
 91  5 20 19 46 15.0000000  0  5G18G19G11G16G 6
  23987438.234    16353962.213 5  12743315.43921         8.750           0.344
  21557411.852     4510782.262 6   3514891.57222        16.250           1.906
  23391783.813    -2893960.435 6  -2255024.40121        15.750           0.719
  23736938.516    -1726556.783 5  -1345377.64521         9.250           0.344
  22339155.680   -11386117.916 6  -8788881.33821        16.750           0.969
 91  5 20 19 46 30.0000000  0  5G18G19G11G16G 6
  23997713.758    16407963.529 5  12785394.18821         8.000           0.375
  21561615.297     4532878.875 6   3532109.67722        17.000           1.969
  23395703.414    -2873355.216 6  -2238968.41621        15.750           0.688
  23740727.234    -1706636.774 5  -1329855.64121         9.500           0.281
  22333579.406   -11415427.774 6  -8811720.15821        17.250           1.031
 91  5 20 19 46 45.0000000  0  5G18G19G11G16G 6
  24007995.992    16461990.975 5  12827493.30721         8.250           0.344
  21565833.016     4555029.541 6   3549369.91322        16.250           1.938
  23399650.445    -2852612.634 6  -2222805.38321        15.750           0.750
  23744537.977    -1686615.470 5  -1314254.69021         9.250           0.375
  22328006.523   -11444720.401 6  -8834545.54521        17.500           1.125
 91  5 20 19 47  0.0000000  0  5G18G19G11G16G 6
  24018281.914    16516040.954 5  12869610.00221         8.250           0.250
  21570055.703     4577230.866 6   3566669.61722        16.250           1.813
  23403623.203    -2831736.458 6  -2206538.24921        15.500           0.781
  23748369.219    -1666496.557 5  -1298577.70921         9.000           0.281
  22322434.313   -11473999.473 6  -8857360.37421        17.250           1.031
 91  5 20 19 47 15.0000000  0  5G18G19G11G16G 6
  24028571.008    16570115.049 5  12911745.46321         8.250           0.313
  21574292.336     4599485.067 6   3584010.52522        16.250           2.000
  23407622.484    -2810724.605 6  -2190165.37621        15.250           0.688
  23752213.828    -1646278.510 5  -1282823.44921         9.250           0.406
  22316864.305   -11503262.536 6  -8880162.72221        17.250           1.188
 91  5 20 19 47 30.0000000  0  5G18G19G11G16G 6
  24038866.383    16624211.669 5  12953898.49121         8.500           0.344
  21578533.586     4621790.965 6   3601391.71322        16.500           1.906
  23411646.875    -2789578.417 6  -2173687.84421        16.000           0.750
  23756079.820    -1625962.641 5  -1266992.98621         9.250           0.375
  22311298.148   -11532510.897 6  -8902953.62221        17.250           0.969
 91  5 20 19 47 45.0000000  0  5G18G19G11G16G 6
  24049164.523    16678332.726 5  12996070.55421         8.000           0.375
  21582791.859     4644150.691 6   3618814.85322        16.000           1.875
  23415696.102    -2768295.962 6  -2157104.14321        16.500           0.781
  23759964.719    -1605547.179 5  -1251084.91921         9.000           0.375
  22305736.563   -11561742.296 6  -8925731.29821        17.250           1.031
 91  5 20 19 48  0.0000000  0  5G18G19G11G16G 6
  24059467.414    16732476.508 5  13038260.35121         8.500           0.313
  21587056.914     4666562.382 6   3636278.48222        16.000           1.875
  23419770.969    -2746879.251 6  -2140415.83321        15.500           0.750
  23763868.648    -1585034.120 5  -1235100.80121         9.000           0.219
  22300177.922   -11590958.515 6  -8948497.14921        17.250           0.969
 91  5 20 19 48 15.0000000  0  5G18G19G11G16G 6
  24069775.711    16786641.363 5  13080466.52321         8.000           0.281
  21591330.148     4689025.104 6   3653781.87422        16.000           1.875
  23423873.000    -2725329.439 6  -2123623.78621        15.500           0.688
  23767790.133    -1564424.883 5  -1219041.74021         8.750           0.375
  22294619.031   -11620160.503 6  -8971251.90821        17.500           1.094
 91  5 20 19 48 30.0000000  0  5G18G19G11G16G 6
  24080089.773    16840829.503 5  13122690.85321         8.750           0.250
  21595615.672     4711541.280 6   3671326.91922        16.000           1.844
  23427997.875    -2703644.444 6  -2106726.41721        15.750           0.719
  23771730.758    -1543717.284 5  -1202906.02421         9.250           0.375
  22289067.813   -11649345.707 6  -8993993.58321        16.750           1.094
 91  5 20 19 48 45.0000000  0  5G18G19G11G16G 6
  24090402.172    16895041.141 5  13164933.51721         8.000           0.406
  21599910.188     4734111.614 6   3688914.16422        16.000           1.781
  23432152.406    -2681823.774 6  -2089723.29621        15.250           0.688
  23775690.695    -1522911.125 5  -1186693.51721         9.000           0.344
  22283515.266   -11678513.647 6  -9016721.81421        17.250           1.063
 91  5 20 19 49  0.0000000  0  5G18G19G11G16G 6
  24100726.570    16949280.419 5  13207197.68821         8.750           0.250
  21604216.477     4756740.262 6   3706546.85322        16.250           1.781
  23436329.727    -2659863.489 6  -2072611.39921        15.500           0.656
  23779670.672    -1502002.118 5  -1170400.87221         8.750           0.219
  22277970.297   -11707660.050 6  -9039433.26021        17.000           1.063
 91  5 20 19 49 15.0000000  0  5G18G19G11G16G 6
  24111052.234    17003545.789 5  13249482.21721         8.250           0.219
  21608533.266     4779426.021 6   3724224.04122        16.000           1.875
  23440535.813    -2637764.906 6  -2055391.74721        16.000           0.875
  23783667.344    -1480991.839 5  -1154029.28921         9.000           0.344
  22272426.313   -11736785.986 6  -9062128.75821        17.000           1.031
 91  5 20 19 49 30.0000000  0  5G18G19G11G16G 6
  24121382.680    17057831.024 5  13291782.20421         8.750           0.281
  21612858.000     4802163.065 6   3741941.18822        16.000           1.813
  23444766.813    -2615534.224 6  -2038069.17121        16.250           0.781
  23787685.469    -1459886.954 5  -1137584.00021         8.750           0.281
  22266887.641   -11765897.231 6  -9084812.79921        17.000           1.031
 91  5 20 19 49 45.0000000  0  5G18G19G11G16G 6
  24131718.234    17112140.983 5  13334101.45621         8.750           0.281
  21617197.773     4824956.635 6   3759702.38422        15.750           1.719
  23449021.625    -2593166.388 6  -2020639.71621        16.750           0.750
  23791719.477    -1438682.240 5  -1121060.95221         8.750           0.281
  22261349.984   -11794988.664 6  -9107481.41221        16.750           1.063
 91  5 20 19 50  0.0000000  0  5G18G19G11G16G 6
  24142056.016    17166472.208 5  13376437.28921         8.750           0.344
  21621544.633     4847803.422 6   3777505.04722        16.000           1.781
  23453304.266    -2570664.902 6  -2003106.08521        17.000           0.938
  23795774.008    -1417381.383 5  -1104462.96421         8.750           0.219
  22255817.805   -11824063.433 6  -9130137.03921        16.750           1.063
 91  5 20 19 50 15.0000000  0  5G18G19G11G16G 6
  24152400.469    17220825.344 5  13418790.19721         9.000           0.281
  21625902.883     4870704.363 6   3795349.90222        16.000           1.656
  23457613.086    -2548029.138 6  -1985467.88621        16.000           0.781
  23799844.703    -1395983.492 5  -1087789.34621         8.500           0.375
  22250289.328   -11853120.598 6  -9152778.94621        16.750           1.000
 91  5 20 19 50 30.0000000  0  5G18G19G11G16G 6
  24162747.125    17275205.131 5  13461163.86321         8.500           0.406
  21630272.617     4893664.488 6   3813240.88422        16.250           1.719
  23461946.852    -2525254.317 6  -1967721.30221        15.750           0.688
  23803934.617    -1374484.105 5  -1071036.67321         8.750           0.344
  22244764.102   -11882155.040 6  -9175403.14221        16.750           1.031
 91  5 20 19 50 45.0000000  0  5G18G19G11G16G 6
  24173101.227    17329608.967 5  13503556.28021         9.000           0.250
  21634651.766     4916681.365 6                        16.250
  23466305.938    -2502343.003 6                        15.000
  23808046.219    -1352885.964 5  -1054207.02621         8.750           0.313
  22239241.820   -11911169.282 6  -9198011.59921        16.750           1.000
 91  5 20 19 51  0.0000000  0  5G18G19G11G16G 6
  24183457.969    17384040.186 5  13545970.01121         8.250           0.313
  21639040.367     4939758.847 6                        17.000
  23470693.445    -2479291.520 6                        15.250
  23812174.188    -1331185.135 5  -1037297.37021         8.750           0.219
  22233724.852   -11940159.254 6  -9220601.15621        16.750           1.031
 91  5 20 19 51 15.0000000  0  5G18G19G11G16G 6
  24193821.648    17438495.033 5  13588402.17521         8.750           0.313
  21643446.023     4962893.525 6                        16.250
  23475105.180    -2456103.506 6                        15.250
  23816323.156    -1309385.548 5  -1020310.76721         8.750           0.250
  22228212.930   -11969128.490 6  -9243174.55121        16.250           0.938
 91  5 20 19 51 30.0000000  0  5G18G19G11G16G 6
  24204189.617    17492969.707 5  13630849.78221         8.500           0.344
  21647860.219     4986081.740 6   3885254.20122        16.000           1.844
  23479543.047    -2432782.923 6  -1895665.73121        15.500           0.719
  23820490.039    -1287491.337 5  -1003250.41821         8.750           0.281
  22222703.539   -11998080.603 6  -9265734.60921        16.750           1.031
 91  5 20 19 51 45.0000000  0  5G18G19G11G16G 6
  24214559.031    17547473.277 5  13673319.88621         8.000           0.188
  21652283.461     5009332.785 6   3903371.86622        16.500           1.750
  23484007.102    -2409320.745 6  -1877383.53921        15.250           0.719
  23824675.898    -1265493.719 5   -986109.49021         8.750           0.313
  22217199.539   -12027006.198 6  -9288273.99621        16.500           1.031
 91  5 20 19 52  0.0000000  0  5G18G19G11G16G 6
  24224937.094    17601999.205 5  13715807.42921         8.000           0.313
  21656720.016     5032640.629 6   3921533.79522        16.000           1.594
  23488497.594    -2385723.217 6  -1858995.86521        14.750           0.688
  23828881.625    -1243398.958 5   -968892.88221         9.000           0.281
  22211698.961   -12055911.272 6  -9310797.38821        17.000           1.031
 91  5 20 19 52 15.0000000  0  5G18G19G11G16G 6
  24235315.711    17656549.307 5  13758313.80021         7.500           0.344
  21661165.039     5056007.327 6   3939741.57422        16.250           1.750
  23493014.352    -2361988.603 6  -1840501.38421        14.500           0.625
  23833103.281    -1221205.324 5   -951599.22121         8.750           0.375
  22206202.898   -12084793.833 6  -9333303.25621        17.250           1.063
 91  5 20 19 52 30.0000000  0  5G18G19G11G16G 6
  24245701.438    17711120.409 5  13800836.54121         7.500           0.313
  21665619.422     5079430.010 6   3957992.98122        17.000           1.688
  23497556.938    -2338120.019 6  -1821902.51121        15.000           0.625
  23837344.242    -1198915.957 5   -934230.96721         8.750           0.313
  22200710.711   -12113656.587 6  -9355793.69221        17.000           0.969
 91  5 20 19 52 45.0000000  0  5G18G19G11G16G 6
  24256090.289    17765714.434 4  13843377.12721         7.250           0.313
  21670091.516     5102910.836 6   3976289.69722        16.000           1.781
  23502123.422    -2314115.468 6  -1803197.69621        14.750           0.719
  23841607.219    -1176528.998 5   -916786.67721         8.750           0.313
  22195221.906   -12142497.347 6  -9378266.95621        17.000           1.031
 91  5 20 19 53  0.0000000  0  5G18G19G11G16G 6
  24266480.594    17820332.722 4  13885936.64321         6.750           0.281
  21674571.430     5126451.170 6   3994632.77622        15.750           1.719
  23506717.406    -2289973.871 6  -1784386.08621        14.500           0.688
  23845887.211    -1154043.524 5   -899265.61521         8.750           0.313
  22189738.281   -12171314.822 6  -9400722.14021        17.000           0.969
 91  5 20 19 53 15.0000000  0  5G18G19G11G16G 6
  24276882.750    17874975.835 4  13928515.47821         7.250           0.344
  21679062.219     5150052.203 6   4013023.15122        16.000           1.688
  23511338.438    -2265694.199 6  -1765466.90321        15.500           0.719
  23850182.313    -1131458.395 5   -881666.88621         8.750           0.281
  22184257.773   -12200107.440 6  -9423157.87721        16.250           0.906
 91  5 20 19 53 30.0000000  0  5G18G19G11G16G 6
  24287286.789    17929640.266 4  13971110.92421         7.000           0.344
  21683565.969     5173710.604 6   4031458.23422        15.250           1.781
  23515983.430    -2241280.050 6  -1746442.89921        15.500           0.750
  23854499.711    -1108777.466 5   -863993.53521         8.750           0.281
  22178783.719   -12228878.656 6  -9445576.96921        16.500           1.063
 91  5 20 19 53 45.0000000  0  5G18G19G11G16G 6
  24297692.789    17984329.835 4  14013725.98921         7.000           0.250
  21688077.055     5197430.616 6   4049941.32222        15.750           1.781
  23520656.992    -2216727.419 6  -1727311.01821        15.000           0.688
  23858833.000    -1085996.805 5   -846242.44721         9.000           0.313
  22173313.828   -12257624.416 6  -9467976.22621        16.750           1.156
 91  5 20 19 54  0.0000000  0  5G18G19G11G16G 6
  24308103.805    18039042.993 5  14056359.40021         7.500           0.344
  21692603.828     5221210.880 6   4068471.36922        15.250           1.781
  23525355.430    -2192037.918 6  -1708072.44521        16.000           0.781
  23863185.359    -1063117.859 5   -828414.78821         8.750           0.375
  22167848.047   -12286345.747 6  -9490356.46621        16.500           1.031
 91  5 20 19 54 15.0000000  0  5G18G19G11G16G 6
  24318521.352    18093781.114 4  14099012.27521         7.250           0.313
  21697141.289     5245053.259 6   4087049.80722        15.500           1.719
  23530079.273    -2167210.235 6  -1688726.21021        16.250           0.750
  23867560.063    -1040139.510 5   -810509.66421         9.000           0.219
  22162386.898   -12315041.149 6  -9512716.49821        16.500           1.031
 91  5 20 19 54 30.0000000  0  5G18G19G11G16G 6
  24328940.883    18148538.621 5  14141680.26421         7.500           0.188
  21701684.898     5268952.502 6   4105672.56422        16.500           1.813
  23534829.938    -2142249.651 6  -1669276.43021        15.000           0.688
  23871949.656    -1017067.380 5   -792531.44421         8.750           0.313
  22156930.719   -12343715.509 6  -9535060.09921        16.500           1.094
 91  5 20 19 54 45.0000000  0  5G18G19G11G16G 6
  24339365.180    18203319.864 5  14184366.74121         8.000           0.156
  21706246.922     5292913.122 6   4124343.13522        15.500           1.750
  23539606.000    -2117151.883 6  -1649719.74621        15.750           0.656
  23876361.094     -993897.079 5   -774476.77121         8.750           0.219
  22151479.039   -12372364.277 6  -9557383.77321        16.250           1.094
 91  5 20 19 55  0.0000000  0  5G18G19G11G16G 6
  24349794.242    18258124.822 5  14227071.72421         8.000           0.219
  21710818.000     5316935.018 6   4143061.46922        16.500           1.781
  23544407.125    -2091917.181 6  -1630056.36821        15.250           0.594
  23880786.328     -970628.888 5   -756345.77921         8.750           0.281
  22146033.609   -12400987.465 6  -9579687.52621        16.750           1.156
 91  5 20 19 55 15.0000000  0  5G18G19G11G16G 6
  24360225.633    18312950.467 5  14269792.79021         7.500           0.313
  21715401.898     5341015.879 6   4161825.74722        15.500           1.813
  23549233.766    -2066548.172 6  -1610288.34621        16.000           0.750
  23885233.438     -947265.800 5   -738140.85821         8.750           0.219
  22140590.398   -12429587.494 6  -9601973.25521        17.000           1.156
 91  5 20 19 55 30.0000000  0  5G18G19G11G16G 6
  24370664.750    18367797.508 5  14312530.53621         7.750           0.375
  21719994.016     5365156.826 6   4180636.83822        15.750           1.813
  23554087.234    -2041044.043 6  -1590415.01921        15.000           0.594
  23889697.945     -923806.822 5   -719861.23621         9.000           0.313
  22135151.977   -12458163.147 6  -9624239.96121        17.250           1.156
 91  5 20 19 55 45.0000000  0  5G18G19G11G16G 6
  24381106.234    18422668.250 5  14355286.75221         8.250           0.156
  21724600.969     5389360.100 6   4199496.49522        15.250           1.781
  23558967.117    -2015402.608 6  -1570434.70121        15.250           0.594
  23894180.445     -900249.752 5   -701505.15521         8.750           0.188
  22129719.695   -12486711.851 6  -9646485.64021        17.500           1.188
 91  5 20 19 56  0.0000000  0  5G18G19G11G16G 6
  24391549.625    18477561.408 5  14398060.44421         7.750           0.219
  21729216.273     5413624.750 6   4218403.98022        15.750           1.781
  23563872.734    -1989625.246 6  -1550348.44821        15.250           0.625
  23898681.328     -876596.072 5   -683073.78721         9.000           0.219
  22124292.570   -12515234.791 6  -9668711.28221        17.250           1.219
 91  5 20 19 56 15.0000000  0  5G18G19G11G16G 6
  24402001.375    18532474.261 4  14440849.49521         7.250           0.250
  21733847.742     5437948.355 6   4237357.40122        15.500           1.750
  23568803.156    -1963714.635 6  -1530158.42121        15.500           0.688
  23903201.023     -852848.702 5   -664569.43621         9.250           0.250
  22118868.617   -12543734.198 6  -9690918.57621        17.250           1.125
 91  5 20 19 56 30.0000000  0  5G18G19G11G16G 6
  24412457.383    18587412.567 5  14483658.35021         7.500           0.125
  21738489.094     5462336.893 6   4256361.42322        15.250           1.844
  23573759.492    -1937664.931 6  -1509859.94121        15.250           0.750
  23907739.227     -829001.991 5   -645987.64521         9.000           0.188
  22113451.883   -12572203.987 6  -9713102.78321        17.750           1.156
 91  5 20 19 56 45.0000000  0  4G19G11G16G 6
  21743141.234     5486786.776 6   4275413.24522        15.500           1.813
  23578742.023    -1911480.176 6  -1489456.25221        14.750           0.563
  23912295.063     -805059.692 5   -627331.39821         9.250           0.313
  22108038.414   -12600648.060 6  -9735266.96221        18.000           1.125
 91  5 20 19 57  0.0000000  0  4G19G11G16G 6
  21747804.883     5511299.857 6   4294514.31222        15.500           1.750
  23583751.984    -1885158.789 6  -1468946.10421        15.000           0.500
  23916868.695     -781020.466 5   -608599.62121         9.000           0.250
  22102630.922   -12629064.449 6  -9757409.57821        18.000           1.063
 91  5 20 19 57 15.0000000  0  4G19G11G16G 6
  21752480.234     5535872.823 6   4313662.04322        15.500           1.719
  23588786.602    -1858704.129 6  -1448332.09621        15.000           0.625
  23921463.203     -756887.950 5   -589795.15121         9.000           0.250
  22097228.680   -12657456.065 6  -9779532.90321        18.500           1.125
 91  5 20 19 57 30.0000000  0  4G19G11G16G 6
  21757167.422     5560510.435 6   4332860.15122        15.750           1.688
  23593846.867    -1832111.939 6  -1427610.93821        15.000           0.656
  23926071.570     -732657.749 5   -570914.55321         9.000           0.250
  22091830.125   -12685818.326 6  -9801633.32621        18.500           1.031
 91  5 20 19 57 45.0000000  0  4G19G11G16G 6
  21761872.773     5585212.354 6   4352108.36422        15.500           1.719
  23598932.016    -1805382.803 6  -1406783.07321        15.250           0.688
  23930701.539     -708330.633 5   -551958.44921         8.500           0.219
  22086439.336   -12714151.494 6  -9823711.08021        18.500           1.063
 91  5 20 19 58  0.0000000  0  4G19G11G16G 6
  21766582.352     5609978.832 6   4371406.88022        15.750           1.719
  23604045.906    -1778516.647 6  -1385848.42621        15.000           0.688
  23935350.938     -683906.430 5   -532926.68821         8.500           0.250
  22081053.563   -12742455.131 6  -9845765.83321        18.500           1.188
 91  5 20 19 58 15.0000000  0  4G19G11G16G 6
  21771308.313     5634807.575 6   4390753.92122        15.750           1.688
  23609183.461    -1751515.878 6  -1364808.89421        14.500           0.656
  23940016.234     -659387.761 5   -513821.29421         8.750           0.281
  22075672.727   -12770731.493 6  -9867799.33621        19.000           1.094
 91  5 20 19 58 30.0000000  0  4G19G11G16G 6
  21776046.086     5659705.792 6   4410155.09422        15.750           1.688
  23614349.055    -1724373.564 6  -1343659.07221        15.250           0.688
  23944703.328     -634767.876 5   -494637.07821         9.000           0.344
  22070298.023   -12798973.290 6  -9889805.88721        19.000           1.094
 91  5 20 19 58 45.0000000  0  4G19G11G16G 6
  21780797.141     5684668.754 6   4429606.72122        15.500           1.656
  23619540.234    -1697094.910 6  -1322403.00921        15.000           0.594
  23949404.086     -610051.884 5   -475377.94421         8.750           0.281
  22064928.539   -12827185.458 6  -9911789.37421        18.750           1.031
 91  5 20 19 59  0.0000000  0  4G19G11G16G 6
  21785557.133     5709698.321 6   4449110.24922        16.750           1.500
  23624756.758    -1669678.457 6  -1301039.58321        13.750           0.563
  23954125.570     -585238.398 5   -456042.84621         8.750           0.219
  22059568.234   -12855365.942 6  -9933748.16221        19.250           1.125
 91  5 20 19 59 15.0000000  0  4G19G11G16G 6
  21790335.344     5734790.755 6   4468662.76122        16.000           1.688
  23629998.977    -1642127.920 6  -1279571.65921        14.500           0.750
  23958867.492     -560331.240 5   -436634.75421         9.000           0.250
  22054209.531   -12883518.249 6  -9955684.99421        19.000           1.031
 91  5 20 19 59 30.0000000  0  4G19G11G16G 6
  21795121.164     5759950.751 6   4488267.92122        15.750           1.594
  23635270.164    -1614438.986 6  -1257995.86921        15.000           0.719
  23963624.750     -535326.105 5   -417150.31921         8.750           0.219
  22048858.063   -12911637.853 6  -9977596.33721        19.000           1.063
 91  5 20 19 59 45.0000000  0  4G19G11G16G 6
  21799923.273     5785178.463 6   4507925.85022        15.500           1.594
  23640563.672    -1586611.846 6  -1236312.41821        14.750           0.688
  23968400.555     -510223.142 5   -397589.65821         8.750           0.313
  22043514.148   -12939724.582 6  -9999482.08121        18.750           1.219
 91  5 20 20  0  0.0000000  0  4G19G11G16G 6
  21804735.922     5810473.602 6                        15.750
  23645884.953    -1558647.049 6  -1214521.70621        14.500           0.625
  23973197.164     -485023.212 5                         8.750
  22038174.617   -12967778.500 6 -10021342.24321        18.750           1.063
 91  5 20 20  0 15.0000000  0  4G19G11G16G 6
  21809561.914     5835838.600 6                        16.250
  23651233.586    -1530542.167 6  -1192621.82721        14.250           0.563
  23978010.375     -459724.072 5                         8.750
  22032842.945   -12995796.956 6 -10043174.77821        19.000           1.156
 91  5 20 20  0 30.0000000  0  4G19G11G16G 6
  21814401.641     5861265.237 6                        15.500
  23656608.078    -1502305.627 6  -1170619.32221        14.750           0.750
  23982844.063     -434334.004 5                         8.500
  22027517.086   -13023788.289 6 -10064986.17121        18.750           1.125
 91  5 20 20  0 45.0000000  0  4G19G11G16G 6
  21819249.883     5886754.803 6                        16.000
  23662006.109    -1473936.717 6  -1148513.70221        14.250           0.688
  23987693.477     -408852.423 5                         8.500
  22022195.625   -13051751.088 6 -10086775.33421        19.000           1.156
 91  5 20 20  1  0.0000000  0  4G19G11G16G 6
  21824113.813     5912309.093 6                        15.750
  23667429.094    -1445433.868 6  -1126303.72021        14.000           0.563
  23992557.977     -383277.730 5                         8.750
  22016880.742   -13079683.338 6 -10108540.69121        18.750           1.188
 91  5 20 20  1 15.0000000  0  4G19G11G16G 6
  21828987.625     5937925.318 6                        16.000
  23672877.992    -1416799.960 6  -1103991.60921        14.250           0.688
  23997441.578     -357613.269 5                         8.500
  22011570.383   -13107587.998 6 -10130284.55421        18.750           1.188
 91  5 20 20  1 30.0000000  0  4G19G11G16G 6
  21833875.781     5963606.631 6                        15.750
  23678353.445    -1388032.330 6  -1081575.30721        14.000           0.656
  24002343.813     -331856.163 5                         8.500
  22006266.734   -13135461.921 6 -10152004.45821        19.000           1.156
 91  5 20 20  1 45.0000000  0  4G19G11G16G 6
  21838774.672     5989350.440 6   4667020.60621        15.750           1.438
  23683852.617    -1359133.807 6  -1059057.00421        14.250           0.563
  24007261.594     -306009.015 5   -338320.43821         8.500           0.281
  22000967.406   -13163307.565 6 -10173702.33221        19.000           1.375
 91  5 20 20  2  0.0000000  0  4G19G11G16G 6
  21843686.586     6015160.674 6   4687132.44521        15.500           1.375
  23689377.539    -1330100.839 6  -1036433.92921        14.500           0.656
  24012197.563     -280068.592 5   -318107.20921         8.250           0.281
  21995674.297   -13191120.892 6 -10195375.02021        18.750           1.281
 91  5 20 20  2 15.0000000  0  4G19G11G16G 6
  21848610.477     6041037.532 6   4707296.19122        15.750           1.500
  23694927.859    -1300933.495 6  -1013706.18721        14.250           0.594
  24017152.375     -254035.019 5   -297821.39721         8.250           0.344
  21990388.250   -13218901.693 6 -10217022.36421        19.000           1.188
 91  5 20 20  2 30.0000000  0  4G19G11G16G 6
  21853547.469     6066978.625 6   4727509.99721        15.250           1.406
  23700502.883    -1271634.452 6   -990875.76421        14.000           0.688
  24022123.773     -227911.380 5   -277465.38621         8.500           0.469
  21985107.570   -13246652.267 6 -10238646.15621        19.000           1.281
 91  5 20 20  2 45.0000000  0  4G19G11G16G 6
  21858495.102     6092985.452 6   4747775.01921        15.500           1.469
  23706101.742    -1242202.369 6   -967941.67821        14.250           0.719
  24027110.984     -201696.146 5   -257038.03021         8.250           0.188
  21979832.711   -13274371.109 6 -10260245.21921        19.250           1.219
 91  5 20 20  3  0.0000000  0  4G19G11G16G 6
  21863459.398     6119058.146 6   4768091.37321        15.000           1.438
  23711728.063    -1212637.253 6   -944903.96121        13.500           0.594
  24032120.922     -175389.229 5   -236539.23521         8.500           0.219
  21974564.406   -13302057.652 6 -10281819.11621        19.250           1.313
 91  5 20 20  3 15.0000000  0  4G19G11G16G 6
  21868429.430     6145192.989 6   4788456.14921        15.750           1.406
  23717380.367    -1182943.150 6   -921765.72021        13.250           0.594
  24037143.273     -148994.896 5   -215972.30021         8.500           0.281
  21969300.102   -13329715.717 6 -10303370.82121        19.250           1.344
 91  5 20 20  4  0.0000000  0  4G19G11G16G 6
  21883427.836     6223994.807 6   4849860.05621        14.750           1.406
  23734483.461    -1093066.499 6   -851732.04121        13.750           0.500
  24052313.414      -69267.283 5   -153847.16021         8.250           0.250
  21953547.688   -13412494.505 6 -10367873.67721        19.000           1.344
 91  5 20 20  4 15.0000000  0  4G19G11G16G 6
  21888449.313     6250396.756 6   4870432.96521        15.000           1.438
  23740234.406    -1062841.370 6   -828180.03521        13.750           0.594
  24057407.398      -42508.533 5   -132996.26621         8.000           0.281
  21948310.984   -13440019.763 6 -10389321.89721        19.250           1.313
 91  5 20 20  4 30.0000000  0  4G19G11G16G 6
  21893487.563     6276862.601 6   4891055.66421        14.500           1.375
  23746010.734    -1032487.071 6   -804527.36021        13.750           0.656
  24062515.430      -15662.596 5   -112077.43721         8.000           0.250
  21943078.227   -13467514.574 6 -10410746.39721        19.500           1.250
 91  5 20 20  4 45.0000000  0  4G19G11G16G 6
  21898535.391     6303394.454 6   4911729.79522        15.000           1.500
  23751812.492    -1002001.803 6   -780772.63421        13.750           0.656
  24067637.734       11272.253 5    -91089.32721         8.000           0.250
  21937852.469   -13494976.587 6 -10432145.33221        19.500           1.344
 91  5 20 20  5  0.0000000  0  4G19G11G16G 6
  21903594.320     6329986.239 6   4932450.63022        15.000           1.500
  23757635.516     -971391.930 6   -756920.82021        13.500           0.563
  24072782.203       38289.676 5    -70036.89821         7.750           0.250
  21932632.070   -13522412.015 6 -10453523.55621        19.500           1.250
 91  5 20 20  5 15.0000000  0  4G19G11G16G 6
  21908666.531     6356640.974 6   4953220.51121        15.000           1.406
  23763486.641     -940654.747 6   -732969.80421        13.250           0.563
  24077940.328       65392.280 5    -48918.06421         8.000           0.219
  21927416.680   -13549817.615 6 -10474878.54321        19.500           1.250
 91  5 20 20  5 30.0000000  0  4G19G11G16G 6
  21913754.125     6383357.596 6   4974038.62521        14.000           1.406
  23769359.359     -909791.597 6   -708920.61021        13.500           0.531
  24083110.047       92578.597 5    -27734.01821         7.750           0.188
  21922207.008   -13577194.474 6 -10496211.13021        19.500           1.313
 91  5 20 20  5 45.0000000  0  4G19G11G16G 6
  21918847.156     6410134.615 6   4994903.79721        15.000           1.438
  23775254.750     -878804.106 6   -684774.54721        13.500           0.563
  24088301.844      119847.260 5     -6485.79121         7.750           0.344
  21917002.391   -13604543.809 6 -10517522.26621        19.750           1.219
 91  5 20 20  6  0.0000000  0  4G19G11G16G 6
  21923957.813     6436973.632 6   5015817.28022        14.000           1.531
  23781177.063     -847691.015 6   -660530.62021        13.500           0.563
  24093506.484      147199.166 5     14827.28221         8.000           0.281
  21911803.344   -13631863.928 6 -10538810.63821        19.750           1.375
 91  5 20 20  6 15.0000000  0  4G19G11G16G 6
  21929072.742     6463874.752 6   5036779.14922        14.750           1.500
  23787120.992     -816452.657 6   -636189.07021        13.500           0.469
  24098726.664      174634.016 5     36205.01321         8.000           0.313
  21906610.117   -13659154.861 6 -10560076.27021        19.750           1.313
 91  5 20 20  6 30.0000000  0  4G19G11G16G 6
  21934206.430     6490836.234 6   5057788.06322        14.000           1.500
  23793089.297     -785091.076 6   -611751.49521        13.250           0.344
  24103961.211      202149.736 5     57645.71921         8.000           0.313
  21901421.891   -13686418.177 7 -10581320.38821        20.000           1.438
 91  5 20 20  6 45.0000000  0  4G19G11G16G 6
  21939346.203     6517862.019 6   5078847.07922        14.750           1.531
  23799081.344     -753602.465 6   -587214.95621        13.250           0.563
  24109216.844      229750.272 5     79152.53921         7.750           0.281
  21896240.117   -13713649.754 6 -10602539.76121        19.750           1.406
 91  5 20 20  7  0.0000000  0  4G19G11G16G 6
  21944499.734     6544946.825 6   5099952.08422        15.000           1.531
  23805095.922     -721992.428 6   -562583.78621        13.250           0.563
  24114480.625      257429.968 5    100721.04221         7.750           0.313
  21891062.945   -13740854.927 6 -10623738.57321        19.750           1.406
 91  5 20 20  7 15.0000000  0  4G19G11G16G 6
  21949667.445     6572097.285 6   5121108.25122        14.750           1.531
  23811134.789     -690254.697 6   -537853.10321        13.500           0.656
  24119767.281      285194.529 5    122355.66821         7.750           0.313
  21885892.500   -13768026.834 6 -10644911.45821        19.500           1.406
 91  5 20 20  7 30.0000000  0  4G19G11G16G 6
  21954845.836     6599311.912 6   5142314.42422        14.750           1.531
  23817199.406     -658390.904 6   -513024.19721        13.000           0.500
  24125066.164      313042.550 5    144055.34221         8.000           0.188
  21880728.586   -13795166.924 6 -10666059.54621        19.500           1.344
 91  5 20 20  7 45.0000000  0  4G19G11G16G 6
  21960037.086     6626590.742 6   5163570.61722        14.750           1.563
  23823287.680     -626401.414 6   -488097.35821        13.250           0.500
  24130379.625      340973.721 5    165819.78021         7.750           0.250
  21875569.727   -13822275.158 7 -10687182.81121        20.000           1.375
 91  5 20 20  8  0.0000000  0  4G19G11G16G 6
  21965241.016     6653934.687 6   5184877.55022        14.750           1.500
  23829397.695     -594285.695 6   -463072.14321        13.000           0.531
  24135711.469      368988.132 5    187649.10021         8.000           0.375
  21870417.336   -13849350.556 6 -10708280.49621        19.750           1.438
 91  5 20 20  8 15.0000000  0  4G19G11G16G 6
  21970456.063     6681341.441 6   5206233.41922        14.750           1.500
  23835533.148     -562046.216 6   -437950.50021        13.500           0.531
  24141060.016      397083.486 5    209541.51221         7.750           0.219
  21865270.875   -13876395.313 6 -10729354.29822        19.750           1.500
 91  5 20 20  8 30.0000000  0  4G19G11G16G 6
  21975684.359     6708811.721 6   5227638.79622        14.750           1.563
  23841690.445     -529682.676 6   -412732.18921        13.000           0.500
  24146418.820      425260.072 5    231497.18321         8.000           0.250
  21860130.367   -13903408.496 6 -10750403.50722        19.750           1.500
 91  5 20 20  8 45.0000000  0  4G19G11G16G 6
  21980922.977     6736346.480 6   5249094.41321        14.500           1.469
  23847872.070     -497194.311 6   -387416.60421        13.750           0.469
  24151798.625      453518.361 5    253516.55221         8.000           0.188
  21854995.016   -13930389.185 6 -10771427.38521        19.000           1.406
 91  5 20 20  9  0.0000000  0  4G19G11G16G 6
  21986177.313     6763945.510 6   5270600.11022        14.000           1.500
  23854080.250     -464581.788 6   -362004.28121        12.750           0.469
  24157189.711      481857.963 5    275599.24121         7.750           0.188
  21849867.359   -13957337.514 6 -10792426.05721        19.750           1.469
 91  5 20 20  9 15.0000000  0  4G19G11G16G 6
  21991438.445     6791607.727 6   5292155.04522        14.500           1.594
  23860309.086     -431846.422 6   -336496.23421        13.500           0.563
  24162598.367      510277.341 5    297744.13421         8.000           0.250
  21844744.695   -13984254.366 6 -10813400.19622        19.000           1.531
 91  5 20 20  9 30.0000000  0  4G19G11G16G 6
  21996715.633     6819332.884 6   5313759.02922        14.250           1.500
  23866561.586     -398988.642 6   -310892.78721        13.500           0.469
  24168023.844      538776.288 5    319951.01321         8.000           0.250
  21839629.469   -14011139.843 6 -10834349.88721        19.000           1.406
 91  5 20 20  9 45.0000000  0  4G19G11G16G 6
  22002003.172     6847120.998 6   5335412.06722        14.750           1.531
  23872838.133     -366008.975 6   -285194.37421        13.250           0.500
  24173458.727      567354.143 5    342219.36721         7.750           0.188
  21834519.297   -14037994.010 6 -10855275.17922        19.500           1.531
 91  5 20 20 10  0.0000000  0  4G19G11G16G 6
  22007303.930     6874973.872 6   5357115.56122        14.500           1.531
  23879138.234     -332905.818 6   -259399.74221        12.750           0.531
  24178914.773      596012.378 5    364550.35421         8.000           0.219
  21829415.227   -14064814.940 7 -10876174.57522        20.000           1.500
 91  5 20 20 10 15.0000000  0  4G19G11G16G 6
  22012615.625     6902888.951 6   5378867.52722        14.750           1.563
  23885458.750     -299681.915 6   -233511.00421        13.000           0.531
  24184382.594      624747.810 5    386941.53121         7.750           0.281
  21824318.219   -14091605.068 6 -10897049.97221        19.750           1.406
 91  5 20 20 10 30.0000000  0  4G19G11G16G 6
  22017939.484     6930867.227 6   5400668.74421        14.500           1.438
  23891806.078     -266336.704 6   -207527.75921        12.750           0.438
  24189866.211      653561.101 5    409393.32921         7.750           0.188
  21819224.922   -14118363.465 7 -10917900.64221        20.250           1.469
 91  5 20 20 10 45.0000000  0  4G19G11G16G 6
  22023275.859     6958908.002 6   5422518.65322        14.750           1.563
  23898173.148     -232871.071 6   -181450.66721        13.000           0.563
  24195361.281      682451.440 5    431905.19121         7.750           0.219
  21814138.656   -14145090.487 7 -10938726.86621        20.000           1.469
 91  5 20 20 11  0.0000000  0  4G19G11G16G 6
  22028625.938     6987016.140 6   5444421.05922        14.250           1.563
  23904564.469     -199280.452 6   -155276.19321        13.250           0.500
  24200878.617      711423.462 5    454480.69621         8.000           0.188
  21809060.469   -14171781.081 6 -10959524.70122        19.750           1.500
 91  5 20 20 11 15.0000000  0  4G19G11G16G 6
  22033986.328     7015190.184 6   5466374.81622        14.750           1.531
  23910980.922     -165566.555 6   -129005.63221        13.000           0.438
  24206404.586      740475.483 5    477118.55121         7.750           0.188
  21803988.680   -14198436.725 7 -10980295.30322        20.000           1.500
 91  5 20 20 11 30.0000000  0  4G19G11G16G 6
  22039360.172     7043427.871 6   5488378.16622        14.750           1.500
  23917418.688     -131732.004 6   -102641.08821        13.250           0.563
  24211945.172      769604.577 5    499816.44921         7.750           0.344
  21798921.789   -14225059.567 7 -11001040.35321        20.000           1.406
 91  5 20 20 11 45.0000000  0  4G19G11G16G 6
  22044743.516     7071726.239 6   5510428.80021        14.500           1.438
  23923881.242      -97780.221 6    -76185.16521        12.750           0.469
  24217505.797      798807.315 5    522571.72021         8.000           0.188
  21793859.992   -14251652.490 6 -11021762.08222        19.750           1.500
 91  5 20 20 12  0.0000000  0  4G19G11G16G 6
  22050142.000     7100089.180 6   5532529.74721        14.000           1.469
  23930363.734      -63707.542 6    -49635.06021        13.250           0.688
  24223073.125      828087.246 5    545387.16321         7.500           0.281
  21788808.313   -14278211.620 6 -11042457.48422        19.500           1.500
 91  5 20 20 12 15.0000000  0  4G19G11G16G 6
  22055552.305     7128519.677 6   5554683.33521        14.250           1.375
  23936872.711      -29511.323 6    -22988.69821        13.250           0.500
  24228662.305      857447.132 5    568264.91521         7.500           0.188
  21783760.148   -14304733.847 6 -11063124.12321        19.250           1.344
 91  5 20 20 12 30.0000000  0  4G19G11G16G 6
  22060975.914     7157015.862 6   5576888.10821        14.000           1.375
  23943401.039        4806.303 6      3752.29021        13.250           0.406
  24234264.297      886884.649 4    591203.11321         7.250           0.156
  21778719.922   -14331220.890 6 -11083763.35021        19.500           1.406
 91  5 20 20 12 45.0000000  0  4G19G11G16G 6
  22066408.930     7185573.892 6   5599141.07921        14.250           1.344
  23949955.711       39241.258 6     30584.68721        12.750           0.594
  24239881.336      916395.753 5    614198.66921         7.500           0.219
  21773684.961   -14357676.458 6 -11104378.05021        19.500           1.406
 91  5 20 20 13  0.0000000  0  4G19G11G16G 6
  22071856.742     7214194.786 6   5621443.02921        13.750           1.344
  23956530.914       73794.122 6     57508.98421        13.000           0.469
  24245510.539      945980.859 4    637251.92221         7.250           0.344
  21768657.477   -14384099.484 6 -11124967.39221        19.500           1.469
 91  5 20 20 13 15.0000000  0  3G19G11G 6
  22077313.664     7242881.545 6   5643796.29921        14.250           1.375
  23963128.891      108467.558 6     84527.19621        12.500           0.531
  21763635.922   -14410486.937 6 -11145529.01421        19.500           1.406
 91  5 20 20 13 30.0000000  0  3G19G11G 6
  22082785.109     7271632.745 6   5666199.78621        14.000           1.375
  23969749.281      143260.020 6    111638.19121        13.000           0.531
  21758621.031   -14436839.872 6 -11166063.73921        19.750           1.375
 91  5 20 20 13 45.0000000  0  3G19G11G 6
  22088268.258     7300446.505 6   5688652.01521        14.500           1.250
  23976391.898      178169.427 6    138840.29721        12.500           0.500
  21753613.297   -14463160.065 7 -11186572.95721        20.250           1.469
 91  5 20 20 14  0.0000000  0  3G19G11G 6
  22093763.375     7329324.267 6   5711154.12421        14.000           1.344
  23983057.641      213196.843 6    166134.37021        12.750           0.563
  21748611.133   -14489446.084 7 -11207055.54822        20.500           1.500
 91  5 20 20 14 15.0000000  0  3G19G11G 6
  22099272.063     7358267.906 6   5733707.56321        14.500           1.375
  23989745.023      248343.698 6    193521.50721        12.250           0.469
  21743615.766   -14515695.847 7 -11227509.88721        20.250           1.438
 91  5 20 20 14 30.0000000  0  3G19G11G 6
  22104791.328     7387273.832 6   5756309.53821        14.250           1.250
  23996454.539      283606.033 6    220998.62921        12.250           0.469
  21738626.016   -14541912.980 7 -11247938.79721        20.250           1.406
 91  5 20 20 14 45.0000000  0  3G19G11G 6
  22110323.188     7416344.473 6   5778961.93621        14.250           1.313
  24003188.602      318985.734 6    248567.20421        12.250           0.469
  21733643.484   -14568095.088 7 -11268340.42222        20.750           1.500
 91  5 20 20 15  0.0000000  0  3G19G11G 6
  22115868.938     7445484.175 6   5801668.15221        14.250           1.281
  24009944.320      354487.002 6    276230.50621        12.000           0.563
  21728668.875   -14594237.636 7 -11288711.21921        20.750           1.375
 91  5 20 20 15 15.0000000  0  3G19G11G 6
  22121426.352     7474688.277 6   5824424.54621        14.000           1.250
  24016722.008      390105.028 6    303984.77221        12.000           0.375
  21723701.594   -14620344.991 7 -11309054.59222        20.750           1.531
 91  5 20 20 15 30.0000000  0  3G19G11G 6
  22126996.688     7503951.494 6   5847227.00221        13.750           1.188
  24023519.883      425834.111 6    331825.58321        12.250           0.438
  21718739.125   -14646422.431 7 -11329374.65621        21.000           1.469
 91  5 20 20 15 45.0000000  0  3G19G11G 6
  22132574.328     7533278.616 6   5870079.26021        14.250           1.156
  24030341.797      461678.824 6    359756.49021        12.000           0.469
  21713782.563   -14672464.986 7 -11349667.54021        21.000           1.438
 91  5 20 20 16  0.0000000  0  3G19G11G 6
  22138167.883     7562671.152 6   5892982.48621        14.000           1.094
  24037184.734      497640.192 6    387778.30021        12.250           0.344
  21708834.453   -14698471.110 7 -11369932.03322        21.500           1.500
 91  5 20 20 16 15.0000000  0  3G19G11G 6
  22143773.547     7592127.875 6   5915935.72421        14.250           1.250
  24044051.000      533716.717 5    415889.85221        11.750           0.469
  21703891.242   -14724441.968 7 -11390169.04821        20.750           1.469
 91  5 20 20 16 30.0000000  0  3G19G11G 6
  22149394.148     7621649.057 6   5938939.19521        13.750           1.219
  24050937.133      569908.378 6    444091.11921        12.000           0.438
  21698956.133   -14750377.183 7 -11410378.28322        21.250           1.563
 91  5 20 20 16 45.0000000  0  3G19G11G 6
  22155022.094     7651239.826 6   5961996.88721        14.000           1.188
  24057847.148      606220.095 5    472385.92121        11.750           0.531
  21694029.359   -14776271.343 7 -11430555.53122        21.000           1.563
 91  5 20 20 17  0.0000000  0  3G19G11G 6
  22160667.688     7680893.105 6   5985103.29121        14.000           1.281
  24064777.570      642644.483 6    500768.52921        12.000           0.500
  21689107.227   -14802131.408 7 -11450706.20922        21.250           1.531
 91  5 20 20 17 15.0000000  0  3G19G11G 6
  22166321.930     7710613.810 6   6008262.23521        14.250           1.188
  24071732.398      679186.003 5    529242.41621        11.750           0.375
  21684194.313   -14827952.429 7 -11470826.46622        21.250           1.563
 91  5 20 20 17 30.0000000  0  3G19G11G 6
  22171988.680     7740398.382 6   6031470.94521        14.500           1.219
  24078708.523      715840.965 5    557804.68521        11.750           0.469
  21679287.398   -14853737.746 7 -11490918.89622        20.500           1.594
 91  5 20 20 17 45.0000000  0  3G19G11G 6
  22177669.828     7770247.978 6   6054730.31721        14.250           1.125
  24085702.453      752609.866 6    586455.74621        12.000           0.469
  21674388.039   -14879486.286 7 -11510982.67521        21.000           1.469
 91  5 20 20 18  0.0000000  0  3G19G11G 6
  22183365.336     7800164.048 6   6078041.49521        13.500           1.156
  24092722.891      789493.877 6    615196.49021        12.000           0.375
  21669495.305   -14905196.535 7 -11531016.61822        21.000           1.563
 91  5 20 20 18 15.0000000  0  3G19G11G 6
  22189068.594     7830146.479 6   6101404.37621        14.250           1.219
  24099763.266      826492.670 5    644026.69521        11.500           0.375
  21664609.555   -14930868.304 7 -11551020.56822        21.000           1.563
 91  5 20 20 18 30.0000000  0  3G19G11G 6
  22194788.727     7860192.304 6   6124816.66321        13.500           1.156
  24106825.039      863603.163 6    672943.92221        12.000           0.438
  21659732.406   -14956504.369 7 -11570996.70322        21.250           1.531
 91  5 20 20 18 45.0000000  0  3G19G11G 6
  22200513.828     7890299.866 6   6148277.05021        14.250           1.344
  24113908.047      900823.256 5    701946.56921        11.750           0.375
  21654859.477   -14982106.317 7 -11590946.25222        21.000           1.625
 91  5 20 20 19  0.0000000  0  3G19G11G 6
  22206261.375     7920473.540 6   6171788.95921        13.250           1.156
  24121012.406      938156.967 6    731037.73421        12.000           0.438
  21649994.875   -15007669.626 7 -11610865.69122        21.250           1.594
 91  5 20 20 19 15.0000000  0  3G19G11G 6
  22212011.102     7950710.932 6   6195350.51121        14.250           1.125
  24128137.781      975601.633 6    760215.35821        12.000           0.375
  21645138.414   -15033196.550 7 -11630756.77822        21.250           1.625
 91  5 20 20 19 30.0000000  0  3G19G11G 6
  22217774.828     7981010.965 6   6218960.88021        14.500           1.188
  24135285.578     1013155.872 6    789478.37021        12.250           0.469
  21640287.680   -15058688.077 7 -11650620.28722        21.250           1.594
 91  5 20 20 19 45.0000000  0  3G19G11G 6
  22223554.375     8011376.135 6   6242621.99721        14.000           1.344
  24142452.555     1050821.662 6    818828.30821        12.500           0.313
  21635443.039   -15084141.707 7 -11670454.26022        21.250           1.688
 91  5 20 20 20  0.0000000  0  3G19G11G 6
  22229344.703     8041804.176 6   6266332.11121        14.250           1.188
  24149640.688     1088596.581 6    848263.27721        12.500           0.344
  21630605.688   -15109559.475 7 -11690260.28922        21.000           1.750
 91  5 20 20 20 15.0000000  0  3G19G11G 6
  22235148.570     8072296.670 6   6290092.44821        14.250           1.156
  24156850.703     1126482.049 6    877784.38021        12.500           0.313
  21625777.164   -15134939.521 7 -11710036.92622        20.750           1.625
 91  5 20 20 20 30.0000000  0  3G19G11G 6
  22240962.547     8102855.327 6   6313904.33621        14.000           1.188
  24164081.766     1164479.320 6    907392.62321        12.250           0.375
  21620954.141   -15160280.171 7 -11729782.86022        20.750           1.750
 91  5 20 20 20 45.0000000  0  3G19G11G 6
  22246790.555     8133477.573 6   6337765.77621        14.000           1.125
  24171332.984     1202585.493 6    937085.70121        12.250           0.406
  21616139.453   -15185583.807 7 -11749499.95422        20.500           1.656
 91  5 20 20 21  0.0000000  0  3G19G11G 6
  22252629.594     8164162.871 6   6361676.34421        13.750           1.188
  24178604.977     1240799.597 6    966862.89621        12.500           0.438
  21611331.203   -15210850.956 7 -11769188.61522        20.500           1.844
 91  5 20 20 21 15.0000000  0  3G19G11G 6
  22258480.242     8194910.708 6   6385635.63921        13.500           1.281
  24185896.883     1279120.792 6    996723.54521        12.750           0.375
  21606529.797   -15236081.849 7 -11788849.02322        20.500           1.813
 91  5 20 20 21 30.0000000  0  3G19G11G 6
  22264345.906     8225719.359 6   6409642.33221        12.750           1.000
  24193208.859     1317547.237 6   1026666.19521        12.500           0.344
  21601735.625   -15261278.049 7 -11808482.39922        20.750           1.719
 91  5 20 20 21 45.0000000  0  3G19G11G 6
  22270217.773     8256592.633 6   6433699.37521        13.500           1.031
  24200541.867     1356082.409 6   1056693.57021        12.750           0.469
  21596947.336   -15286435.648 7 -11828085.70022        20.250           1.938
 91  5 20 20 22  0.0000000  0  3G19G11G 6
  22276105.250     8287529.328 6   6457805.83621        13.500           1.156
  24207895.555     1394724.684 6   1086804.40621        12.500           0.344
  21592167.906   -15311555.751 7 -11847659.77922        20.500           1.875
 91  5 20 20 22 15.0000000  0  3G19G11G 6
  22282003.695     8318525.272 6   6481958.46721        13.750           1.188
  24215269.281     1433469.517 6   1116995.15821        12.750           0.344
  21587393.125   -15336642.450 7 -11867207.83122        20.750           1.969
 91  5 20 20 22 30.0000000  0  3G19G11G 6
  22287914.539     8349583.069 6   6506159.29321        12.750           1.156
  24222660.750     1472319.109 6   1147267.53721        12.500           0.375
  21582626.367   -15361693.158 7 -11886727.83322        21.000           1.844
 91  5 20 20 22 45.0000000  0  3G19G11G 6
  22293836.813     8380701.947 6   6530407.71821        13.250           1.219
  24230073.406     1511272.512 6   1177620.81821        12.250           0.375
  21577865.859   -15386708.163 7 -11906220.01522        21.250           1.969
 91  5 20 20 23  0.0000000  0  3G19G11G 6
  22299769.961     8411880.804 6   6554702.87321        13.250           1.156
  24237506.461     1550328.242 6   1208053.80521        12.250           0.375
  21573112.328   -15411688.554 7 -11925685.23222        22.000           2.000
 91  5 20 20 23 15.0000000  0  3G19G11G 6
  22305713.703     8443121.913 6   6579046.53621        13.500           1.031
  24244958.406     1589488.098 6   1238567.94221        12.250           0.469
  21568365.883   -15436632.075 7 -11945121.71722        22.250           1.938
 91  5 20 20 23 30.0000000  0  3G19G11G 6
  22311673.461     8474426.870 6   6603439.95421        12.750           1.094
  24252430.188     1628753.538 6   1269164.35221        12.000           0.375
  21563628.102   -15461536.892 7 -11964528.03822        22.250           2.063
 91  5 20 20 23 45.0000000  0  3G19G11G 6
  22317640.422     8505795.785 6   6627883.20521        13.000           1.125
  24259920.570     1668124.339 6   1299842.85821        12.000           0.406
  21558895.555   -15486402.634 7 -11983903.91722        22.000           2.094
 91  5 20 20 24  0.0000000  0  3G19G11G 6
  22323620.813     8537224.597 6   6652373.13721        13.250           1.125
  24267433.320     1707596.188 6   1330600.11421        12.000           0.500
  21554168.633   -15511233.314 7 -12003252.47222        21.750           1.969
 91  5 20 20 24 15.0000000  0  3G19G11G 6
  22329612.094     8568709.680 6   6676906.90821        13.500           1.000
  24274963.273     1747165.067 5   1361432.96921        11.500           0.438
  21549450.445   -15536032.314 7 -12022576.34622        22.000           1.906
 91  5 20 20 24 30.0000000  0  3G19G11G 6
  22335616.977     8600256.592 6   6701488.86121        13.000           1.063
  24282512.344     1786836.177 5   1392345.48421        11.000           0.344
  21544740.055   -15560793.902 7 -12041871.06922        21.750           2.094
 91  5 20 20 24 45.0000000  0  3G19G11G 6
  22341630.977     8631865.883 6   6726119.42421        13.500           1.000
  24290080.078     1826609.695 5   1423337.79621        11.000           0.500
  21540032.563   -15585517.583 7 -12061136.24822        21.750           2.031
 91  5 20 20 25  0.0000000  0  3G19G11G 6
  22347658.633     8663536.941 6   6750798.11721        13.000           1.000
  24297669.125     1866484.586 5   1454409.10021        10.750           0.438
  21535336.547   -15610203.807 7 -12080372.24422        21.750           1.938
 91  5 20 20 25 15.0000000  0  3G19G11G 6
  22353695.516     8695266.983 6   6775522.76721        13.250           0.969
  24305274.969     1906457.950 5   1485557.13621        10.750           0.375
  21530646.109   -15634855.104 7 -12099581.02422        21.250           2.031
 91  5 20 20 25 30.0000000  0  3G19G11G 6
  22359746.805     8727058.819 6   6800295.57421        13.000           0.938
  24312900.695     1946532.146 5   1516783.72821        10.500           0.313
  21525960.055   -15659468.514 7 -12118760.28122        21.250           1.969
 91  5 20 20 25 45.0000000  0  3G19G11G 6
  22365805.766     8758909.122 6   6825113.93621        13.750           1.031
  24320545.805     1986703.660 5   1548086.17521        10.000           0.406
  21521285.797   -15684047.168 7 -12137912.45722        22.000           1.906
 91  5 20 20 26  0.0000000  0  3G19G11G 6
  22371881.008     8790822.924 6   6849981.78521        13.500           0.969
  24328208.859     2026977.172 5   1579468.09021        10.000           0.469
  21516613.180   -15708585.970 7 -12157033.57722        22.000           1.875
 91  5 20 20 26 15.0000000  0  3G19G11G 6
  22377965.289     8822801.593 6   6874900.16821        14.000           0.969
  24335891.742     2067353.681 5   1610930.25121        10.000           0.406
  21511955.172   -15733083.477 7 -12176122.52422        22.000           1.906
 91  5 20 20 26 30.0000000  0  3G19G11G 6
  22384062.508     8854845.012 6   6899869.01421        13.500           1.000
  24343594.828     2107832.705 5   1642472.30521        10.250           0.406
  21507296.992   -15757539.652 7 -12195179.26522        22.000           1.875
 91  5 20 20 26 45.0000000  0  3G19G11G 6
  22390170.852     8886949.443 6   6924885.39521        13.750           0.938
  24351317.102     2148410.225 5   1674091.10221        10.250           0.406
  21502653.820   -15781957.949 7 -12214206.48822        22.250           1.844
 91  5 20 20 27  0.0000000  0  3G19G11G 6
  22396294.719     8919117.096 6   6949951.05121        13.250           1.063
  24359056.508     2189088.061 5   1705788.07021        10.250           0.406
  21498012.688   -15806336.037 7 -12233202.38222        22.250           1.813
 91  5 20 20 27 15.0000000  0  3G19G11G 6
  22402425.750     8951347.037 6   6975065.23621        13.500           0.969
  24366817.695     2229864.905 5   1737562.18721        10.500           0.438
  21493382.609   -15830674.788 7 -12252167.62322        22.250           1.906
 91  5 20 20 27 30.0000000  0  3G19G11G 6
  22408572.289     8983637.652 6   7000226.69521        13.000           0.969
  24374593.977     2270738.948 5   1769412.05321        10.750           0.406
  21488759.164   -15854975.496 7 -12271103.22122        22.500           1.844
 91  5 20 20 27 45.0000000  0  3G19G11G 6
  22414728.086     9015989.086 6   7025435.54621        13.500           0.969
  24382392.016     2311709.925 5   1801337.46621        10.750           0.281
  21484139.742   -15879237.970 7 -12290009.02722        22.750           1.781
 91  5 20 20 28  0.0000000  0  3G19G11G 6
  22420898.508     9048399.896 6   7050690.66821        12.750           0.906
  24390206.227     2352776.202 5   1833337.11621        10.750           0.313
  21479531.195   -15903463.356 7 -12308885.93522        23.000           1.781
 91  5 20 20 28 15.0000000  0  3G19G11G 6
  22427075.164     9080871.710 6   7075993.32721        13.250           0.969
  24398040.977     2393938.974 5   1865411.96621        11.500           0.281
  21474929.164   -15927650.112 7 -12327732.73522        23.000           1.844
 91  5 20 20 28 30.0000000  0  3G19G11G 6
  22433265.547     9113407.632 6   7101345.93521        13.500           1.063
  24405892.133     2435200.962 5   1897564.12221        11.500           0.469
  21470332.531   -15951794.845 7 -12346546.79622        23.250           1.844
 91  5 20 20 28 45.0000000  0  3G19G11G 6
  22439469.695     9146007.409 6   7126748.29821        13.250           0.969
  24413762.313     2476561.620 5   1929793.15421        11.750           0.406
  21465746.250   -15975897.697 7 -12365328.22222        23.000           1.750
 91  5 20 20 29  0.0000000  0  3G19G11G 6
  22445686.633     9178664.204 6   7152195.09621        12.250           0.906
  24421649.656     2518013.847 6   1962093.55021        12.000           0.500
  21461167.906   -15999965.298 7 -12384082.18022        23.250           1.719
 91  5 20 20 29 15.0000000  0  3G19G11G 6
  22451910.719     9211384.252 6   7177691.17421        13.000           0.906
  24429557.703     2559563.470 6   1994469.84821        12.250           0.438
  21456595.844   -16023991.319 7 -12402803.73822        23.250           1.813
 91  5 20 20 29 30.0000000  0  3G19G11G 6
  22458150.016     9244166.131 6   7203235.43521        12.000           0.969
  24437482.641     2601208.398 6   2026920.38721        12.000           0.406
  21452030.539   -16047977.152 7 -12421493.97522        23.500           1.781
 91  5 20 20 29 45.0000000  0  3G19G11G 6
  22464398.563     9277009.250 6   7228827.41521        12.500           1.063
  24445425.320     2642948.110 6   2059444.80221        12.000           0.344
  21447472.719   -16071923.078 7 -12440153.12622        23.750           1.906
 91  5 20 20 30  0.0000000  0  3G19G11G 6
  22470660.398     9309913.957 6   7254467.39221        12.750           0.938
  24453385.875     2684782.629 6   2092043.09421        12.000           0.375
  21442923.789   -16095828.510 7 -12458780.71722        23.250           1.813
 91  5 20 20 30 15.0000000  0  3G19G11G 6
  22476932.445     9342877.410 6   7280153.13321        12.750           0.938
  24461364.547     2726708.664 5   2124712.68621        11.750           0.313
  21438382.266   -16119696.196 7 -12477378.89722        23.500           1.844
 91  5 20 20 30 30.0000000  0  3G19G11G 6
  22483220.367     9375902.497 5   7305886.90621        11.750           1.000
  24469361.180     2768728.902 5   2157455.67821        11.500           0.281
  21433848.852   -16143523.082 7 -12495945.28222        23.250           1.781
 91  5 20 20 30 45.0000000  0  3G19G11G 6
  22489513.797     9408993.404 6   7331671.96121        12.500           1.000
  24477375.492     2810847.328 5   2190275.17921        11.250           0.281
  21429324.172   -16167304.545 7 -12514476.28022        23.750           1.969
 91  5 20 20 31  0.0000000  0  3G19G11G 6
  22495826.828     9442148.917 5   7357507.36421        11.750           0.938
  24485408.109     2853062.408 5   2223170.00521        10.750           0.250
  21424807.078   -16191041.751 7 -12532972.78722        23.750           1.906
 91  5 20 20 31 15.0000000  0  3G19G11G 6
  22502145.563     9475367.154 6   7383391.63421        12.500           1.031
  24493460.273     2895371.770 5   2256138.30521        10.750           0.375
  21420298.227   -16214736.485 7 -12551436.20022        23.500           1.813
 91  5 20 20 31 30.0000000  0  3G19G11G 6
  22508481.227     9508645.858 5   7409323.03821        11.750           1.031
  24501528.805     2937772.748 5   2289177.98321        10.500           0.313
  21415796.945   -16238390.858 7 -12569868.16522        23.750           1.844
 91  5 20 20 31 45.0000000  0  3G19G11G 6
  22514822.680     9541983.594 6   7435300.43621        12.500           0.906
  24509615.023     2980263.533 5   2322287.65421        10.250           0.250
  21411303.258   -16262006.229 7 -12588269.73722        23.750           2.000
 91  5 20 20 32  0.0000000  0  3G19G11G 6
  22521178.102     9575386.862 6   7461328.90121        12.500           1.031
  24517718.461     3022850.315 5   2355472.10121         9.750           0.250
  21406817.172   -16285575.917 7 -12606635.71322        23.750           1.906
 91  5 20 20 32 15.0000000  0  3G19G11G 6
  22527545.680     9608847.028 6   7487401.69421        12.500           0.938
  24525839.430     3065524.239 5   2388724.46321         9.750           0.250
  21402339.344   -16309108.311 7 -12624972.62722        23.250           2.000
 91  5 20 20 32 30.0000000  0  3G19G11G 6
  22533923.109     9642366.111 6   7513520.39321        12.500           0.969
  24533976.383     3108286.847 5   2422045.92421         9.500           0.250
  21397867.789   -16332601.290 7 -12643278.83422        23.000           1.844
 91  5 20 20 32 45.0000000  0  2G19G 6
  22540314.820     9675943.092 6   7539684.21421        12.500           0.969
  21393404.188   -16356055.475 7 -12661554.80222        23.000           1.938
 91  5 20 20 33  0.0000000  0  2G19G 6
  22546715.445     9709580.571 6   7565895.17421        12.500           0.969
  21388948.828   -16379468.377 7 -12679798.60522        22.750           1.906
 91  5 20 20 33 15.0000000  0  2G19G 6
  22553126.594     9743276.592 6   7592151.75121        12.500           0.969
  21384502.648   -16402841.566 7 -12698011.46222        22.750           1.969
 91  5 20 20 33 30.0000000  0  2G19G 6
  22559549.656     9777032.074 6   7618454.65921        12.250           0.938
  21380063.414   -16426173.969 7 -12716192.53422        22.750           1.969
 91  5 20 20 33 45.0000000  0  2G19G 6
  22565985.008     9810847.072 6   7644803.94621        12.750           1.000
  21375630.484   -16449465.363 7 -12734341.65622        22.500           1.938
 91  5 20 20 34  0.0000000  0  2G19G 6
  22572434.250     9844719.115 6   7671197.67621        12.000           0.875
  21371204.117   -16472718.081 7 -12752460.63522        22.750           1.844
 91  5 20 20 34 15.0000000  0  2G19G 6
  22578889.914     9878651.457 6   7697638.40221        12.750           1.031
  21366787.234   -16495928.634 7 -12770546.76122        22.750           1.938
 91  5 20 20 34 30.0000000  0  2G19G 6
  22585356.945     9912646.897 6   7724128.29721        12.250           0.938
  21362380.586   -16519094.016 7 -12788597.69222        23.000           1.938
 91  5 20 20 34 45.0000000  0  2G19G 6
  22591836.539     9946699.781 6   7750662.94221        12.750           0.906
  21357979.945   -16542219.794 7 -12806617.76122        22.750           1.969
 91  5 20 20 35  0.0000000  0  2G19G 6
  22598332.016     9980813.610 6   7777245.09121        12.250           0.844
  21353585.734   -16565302.253 7 -12824604.07022        23.000           2.125
 91  5 20 20 35 15.0000000  0  2G19G 6
  22604832.008    10014986.651 6   7803873.35921        12.750           0.906
  21349203.789   -16588342.992 7 -12842557.87222        23.000           2.063
 91  5 20 20 35 30.0000000  0  2G19G 6
  22611348.008    10049220.525 6   7830549.03821        12.250           0.906
  21344827.039   -16611340.174 7 -12860477.74522        23.250           2.000
 91  5 20 20 35 45.0000000  0  2G19G 6
  22617871.688    10083510.025 6   7857268.05921        12.500           0.875
  21340455.797   -16634298.841 7 -12878367.59822        23.000           1.969
 91  5 20 20 36  0.0000000  0  2G19G 6
  22624409.508    10117855.214 6   7884030.47421        12.250           0.781
  21336096.164   -16657218.626 7 -12896227.16122        22.750           2.031
 91  5 20 20 36 15.0000000  0  2G19G 6
  22630953.547    10152260.549 6   7910839.75721        12.250           0.844
  21331741.992   -16680095.055 7 -12914052.92822        22.000           2.000
 91  5 20 20 36 30.0000000  0  2G19G 6
  22637512.953    10186724.195 6   7937694.48021        12.250           0.781
  21327397.094   -16702929.676 7 -12931846.12622        21.750           2.094
 91  5 20 20 36 45.0000000  0  2G19G 6
  22644082.391    10221248.336 6   7964596.34421        12.250           0.844
  21323060.273   -16725720.116 7 -12949604.89122        21.750           2.094
 91  5 20 20 37  0.0000000  0  2G19G 6
  22650663.133    10255828.763 5   7991542.05421        11.750           0.875
  21318730.508   -16748470.552 7 -12967332.49022        21.750           2.063
 91  5 20 20 37 15.0000000  0  2G19G 6
  22657255.352    10290467.602 6   8018533.29821        12.250           0.813
  21314410.023   -16771178.642 7 -12985027.08922        21.500           2.063
 91  5 20 20 37 30.0000000  0  2G19G 6
  22663858.602    10325164.246 5   8045569.56421        11.500           0.781
  21310096.258   -16793844.740 7 -13002688.97022        21.000           2.031
 91  5 20 20 37 45.0000000  0  2G19G 6
  22670469.867    10359914.381 5   8072647.52321        11.750           0.844
  21305790.219   -16816472.974 7 -13020321.34422        21.500           2.125
 91  5 20 20 38  0.0000000  0  2G19G 6
  22677096.484    10394723.716 5   8099771.61821        11.250           0.906
  21301493.227   -16839057.405 7 -13037919.58222        21.500           2.063
 91  5 20 20 38 15.0000000  0  2G19G 6
  22683728.375    10429591.486 5   8126941.23021        11.750           0.750
  21297203.211   -16861598.662 7 -13055484.18322        21.000           2.125
 91  5 20 20 38 30.0000000  0  2G19G 6
  22690374.461    10464514.164 5   8154153.63821        11.500           0.875
  21292922.422   -16884100.005 7 -13073017.67422        21.250           2.125
 91  5 20 20 38 45.0000000  0  2G19G 6
  22697032.063    10499497.426 6   8181413.24921        12.000           0.750
  21288647.656   -16906555.431 7 -13090515.39422        22.250           2.125
 91  5 20 20 39  0.0000000  0  2G19G 6
  22703699.477    10534534.779 5   8208715.00821        11.250           0.750
  21284382.477   -16928971.419 7 -13107982.38422        22.250           2.188
 91  5 20 20 39 15.0000000  0  2G19G 6
  22710377.422    10569623.392 5   8236056.72121        11.500           0.844
  21280124.172   -16951350.439 7 -13125420.56722        22.250           2.188
 91  5 20 20 39 30.0000000  0  2G19G 6
  22717064.258    10604767.693 5   8263441.81721        11.500           0.969
  21275872.797   -16973687.798 7 -13142826.28522        22.750           2.156
 91  5 20 20 39 45.0000000  0  2G19G 6
  22723763.336    10639966.497 5   8290869.37621        11.250           0.781
  21271631.219   -16995984.718 7 -13160200.49722        22.500           2.188
 91  5 20 20 40  0.0000000  0  2G19G 6
  22730472.477    10675222.492 5   8318341.51021        11.000           0.813
  21267395.883   -17018238.319 7 -13177540.95722        22.500           2.125
 91  5 20 20 40 15.0000000  0  2G19G 6
  22737191.539    10710534.016 5   8345856.91021        11.500           0.781
  21263169.266   -17040450.132 7 -13194848.85122        23.000           2.250
 91  5 20 20 40 30.0000000  0  2G19G 6
  22743924.695    10745899.213 5   8373414.12521        10.750           0.813
  21258950.070   -17062621.583 7 -13212125.29822        22.500           2.188
 91  5 20 20 40 45.0000000  0  2G19G 6
  22750660.672    10781319.568 5   8401014.34421        11.000           0.969
  21254738.828   -17084751.145 7 -13229369.10322        22.750           2.219
 91  5 20 20 41  0.0000000  0  2G19G 6
  22757412.953    10816796.505 5   8428658.63221        11.250           0.875
  21250535.414   -17106837.050 7 -13246578.89222        22.750           2.125
 91  5 20 20 41 15.0000000  0  2G19G 6
  22764174.141    10852328.832 5   8456346.09121        11.250           0.844
  21246339.992   -17128880.349 7 -13263755.47522        22.500           2.125
 91  5 20 20 41 30.0000000  0  2G19G 6
  22770948.500    10887916.282 5   8484076.49321        10.750           0.750
  21242154.930   -17150881.101 7 -13280898.91422        22.500           2.250
 91  5 20 20 41 45.0000000  0  2G19G 6
  22777729.828    10923555.631 5   8511847.33921        11.000           0.781
  21237976.328   -17172842.287 7 -13298011.51422        22.500           2.063
 91  5 20 20 42  0.0000000  0  2G19G 6
  22784522.867    10959247.887 5   8539659.40821        10.500           0.844
  21233804.602   -17194762.816 7 -13315092.43822        22.500           2.125
 91  5 20 20 42 15.0000000  0  2G19G 6
  22791322.711    10994997.106 5   8567515.86721        11.000           0.750
  21229641.367   -17216638.301 7 -13332138.26422        22.250           2.125
 91  5 20 20 42 30.0000000  0  2G19G 6
  22798136.156    11030798.854 5   8595413.27321        11.250           0.656
  21225485.297   -17238473.116 7 -13349152.38522        22.000           2.125
 91  5 20 20 42 45.0000000  0  2G19G 6
  22804959.141    11066654.668 5   8623352.78821        11.500           0.719
  21221338.922   -17260265.400 7 -13366133.37722        22.000           2.219
 91  5 20 20 43  0.0000000  0  2G19G 6
  22811795.938    11102562.515 5   8651332.85221        11.000           0.875
  21217200.117   -17282017.061 7 -13383082.70722        22.500           2.219
 91  5 20 20 43 15.0000000  0  2G19G 6
  22818635.492    11138523.961 5   8679354.68321        11.500           0.813
  21213069.445   -17303726.156 7 -13399998.87422        22.500           2.156
 91  5 20 20 43 30.0000000  0  2G19G 6
  22825492.992    11174539.974 5   8707419.03821        10.500           0.781
  21208946.727   -17325391.653 7 -13416881.06822        22.250           2.156
 91  5 20 20 43 45.0000000  0  2G19G 6
  22832352.891    11210609.727 5   8735525.26221        11.500           0.750
  21204832.141   -17347014.032 7 -13433729.66422        22.500           2.219
 91  5 20 20 44  0.0000000  0  2G19G 6
  22839231.016    11246734.487 5   8763674.35721        10.500           0.719
  21200726.438   -17368591.928 7 -13450543.59622        22.750           2.156
 91  5 20 20 44 15.0000000  0  2G19G 6
  22846110.945    11282912.054 5   8791864.58721        11.250           0.750
  21196628.656   -17390127.265 7 -13467324.36622        22.500           2.156
 91  5 20 20 44 30.0000000  0  2G19G 6
  22853006.477    11319142.255 5   8820095.83821        11.250           0.750
  21192537.992   -17411620.118 7 -13484072.03022        23.250           2.125
 91  5 20 20 44 45.0000000  0  2G19G 6
  22859912.016    11355424.268 5   8848367.45621        11.250           0.781
  21188456.273   -17433070.997 7 -13500786.98922        23.000           2.250
 91  5 20 20 45  0.0000000  0  2G19G 6
  22866826.469    11391760.779 5   8876681.54621        11.000           0.813
  21184382.820   -17454476.904 7 -13517466.90922        23.750           2.219
 91  5 20 20 45 15.0000000  0  2G19G 6
  22873751.852    11428150.723 5   8905037.27021        11.250           0.813
  21180317.875   -17475838.727 7 -13534112.46622        23.250           2.219
 91  5 20 20 45 30.0000000  0  2G19G 6
  22880686.414    11464595.693 5   8933435.87721        11.250           0.813
  21176261.141   -17497154.718 7 -13550722.31922        23.250           2.188
 91  5 20 20 45 45.0000000  0  2G19G 6
  22887630.617    11501093.420 5   8961875.59121        10.500           0.688
  21172213.445   -17518426.949 7 -13567298.07022        23.250           2.188
 91  5 20 20 46  0.0000000  0  2G19G 6
  22894585.234    11537640.618 5   8990353.85421        10.500           0.719
  21168173.328   -17539658.597 7 -13583842.19122        23.750           2.063
 91  5 20 20 46 15.0000000  0  2G19G 6
  22901550.195    11574240.299 5   9018873.00221        10.750           0.750
  21164141.477   -17560846.210 7 -13600352.01122        23.000           2.219
 91  5 20 20 46 30.0000000  0  2G19G 6
  22908527.031    11610892.937 5   9047433.42521        10.250           0.656
  21160118.102   -17581989.022 7 -13616826.90922        22.500           2.188
 91  5 20 20 46 45.0000000  0  2G19G 6
  22915509.609    11647595.709 5   9076032.90721        10.750           0.531
  21156101.773   -17603089.583 7 -13633268.89722        23.000           2.156
 91  5 20 20 47  0.0000000  0  2G19G 6
  22922506.023    11684349.629 5   9104672.24621        10.500           0.656
  21152094.320   -17624146.894 7 -13649677.17322        22.750           2.188
 91  5 20 20 47 15.0000000  0  2G19G 6
  22929507.750    11721155.186 5   9133351.82221        10.750           0.625
  21148096.180   -17645160.239 7 -13666051.19322        22.750           2.375
 91  5 20 20 47 30.0000000  0  2G19G 6
  22936524.953    11758016.762 5   9162075.05321        10.500           0.625
  21144107.117   -17666125.032 7 -13682387.38322        22.750           2.219
 91  5 20 20 47 45.0000000  0  2G19G 6
  22943545.813    11794929.066 5   9190837.81821        10.500           0.594
  21140126.422   -17687046.393 7 -13698689.72822        22.500           2.156
 91  5 20 20 48  0.0000000  0  2G19G 6
  22950582.563    11831892.596 5   9219640.49421        10.250           0.625
  21136153.563   -17707923.460 7 -13714957.56322        22.750           2.219
 91  5 20 20 48 15.0000000  0  2G19G 6
  22957623.547    11868906.973 5   9248482.78121        10.250           0.688
  21132188.508   -17728756.427 7 -13731191.02622        22.750           2.094
 91  5 20 20 48 30.0000000  0  2G19G 6
  22964681.156    11905974.653 5   9277366.61421        10.000           0.688
  21128232.086   -17749542.546 7 -13747387.98822        22.750           2.188
 91  5 20 20 48 45.0000000  0  2G19G 6
  22971741.203    11943092.585 5   9306289.60121        10.250           0.625
  21124285.617   -17770284.529 7 -13763550.56022        22.750           2.250
 91  5 20 20 49  0.0000000  0  3G13G19G 6
  24078851.094          -0.68413                         6.000
  22978815.828    11980262.440 5   9335253.05621        10.500           0.688
  21120347.289   -17790980.441 7 -13779677.23222        22.250           2.156
 91  5 20 20 49 15.0000000  0  3G13G19G 6
  24067203.953      -61201.121 4                         6.250
  22985896.422    12017482.876 5   9364255.90521        10.000           0.625
  21116418.320   -17811631.581 7 -13795769.01822        22.500           2.219
 91  5 20 20 49 30.0000000  0  3G13G19G 6
  24055564.844     -122382.631 4                         6.750
  22992989.555    12054754.552 5   9393298.69421         9.750           0.688
  21112496.805   -17832237.083 7 -13811825.23422        22.750           2.313
 91  5 20 20 49 45.0000000  0  3G13G19G 6
  24043922.195     -183543.842 4                         6.250
  23000093.586    12092078.579 5   9422382.26921        10.500           0.750
  21108584.109   -17852795.798 7 -13827844.99922        23.750           2.344
 91  5 20 20 50  0.0000000  0  3G13G19G 6
  24032287.070     -244683.375 4                         6.250
  23007205.383    12129455.592 5   9451507.13321        10.000           0.563
  21104681.344   -17873306.577 7 -13843827.40822        23.500           2.469
 91  5 20 20 50 15.0000000  0  3G13G19G 6
  24020657.125     -305805.276 4        -0.31131         6.500           0.125
  23014327.109    12166881.211 5   9480669.87221        10.250           0.625
  21100787.484   -17893773.539 7 -13859775.67622        23.500           2.375
 91  5 20 20 50 30.0000000  0  3G13G19G 6
  24009031.336     -366909.268 4    -47613.61921         6.500           0.031
  23021461.570    12204355.303 5   9509870.39721         9.750           0.594
  21096900.055   -17914196.490 7 -13875689.64622        23.750           2.438
 91  5 20 20 50 45.0000000  0  3G13G19G 6
  23997406.195     -427993.647 4    -95211.59121         6.250           0.188
  23028599.414    12241878.906 5   9539109.48221        10.250           0.625
  21093021.969   -17934574.333 7 -13891568.46923        23.750           2.563
 91  5 20 20 51  0.0000000  0  3G13G19G 6
  23985783.352     -489060.953 4   -142796.29521         6.250           0.063
  23035751.195    12279449.404 5   9568385.12221        10.000           0.594
  21089153.547   -17954909.450 7 -13907413.99623        24.000           2.531
 91  5 20 20 51 15.0000000  0  3G13G19G 6
  23974164.992     -550108.022 4   -190365.20721         6.250           0.094
  23042907.766    12317069.311 5   9597699.26121        10.250           0.656
  21085291.930   -17975199.252 7 -13923224.21623        24.000           2.563
 91  5 20 20 51 30.0000000  0  3G13G19G 6
  23962552.117     -611134.849 3   -237918.37321         5.500           0.063
  23050074.875    12354737.981 5   9627051.38821         9.750           0.594
  21081439.055   -17995443.954 7 -13938999.29223        24.250           2.563
 91  5 20 20 51 45.0000000  0  3G13G19G 6
  23950946.250     -672138.428 3   -285453.37421         6.000           0.063
  23057254.703    12392457.967 5   9656443.50521        10.000           0.750
  21077597.008   -18015640.636 7 -13954736.95023        24.250           2.625
 91  5 20 20 52  0.0000000  0  3G13G19G 6
  23939338.883     -733121.252 3   -332972.26421         6.000           0.156
  23064439.680    12430226.250 5   9685873.25121         9.750           0.719
  21073761.820   -18035792.148 7 -13970439.40723        24.250           2.500
 91  5 20 20 52 15.0000000  0  3G13G19G 6
  23927737.680     -794084.556 3   -380475.91221         6.000           0.219
  23071634.680    12468041.515 5   9715339.61121         9.750           0.719
  21069934.172   -18055899.642 7 -13986107.56823        24.250           2.594
 91  5 20 20 52 30.0000000  0  3G13G19G 6
  23916142.125     -855022.779 4   -427960.04021         6.250           0.094
  23078842.352    12505908.881 5   9744846.56621         9.750           0.750
  21066118.391   -18075957.748 7 -14001737.24123        24.250           2.531
 91  5 20 20 52 45.0000000  0  3G13G19G 6
  23904547.695     -915941.747 4   -475429.14321         6.250           0.094
  23086059.992    12543821.889 5   9774389.08521         9.750           0.625
  21062309.391   -18095972.532 7 -14017333.15823        24.250           2.531
 91  5 20 20 53  0.0000000  0  3G13G19G 6
  23892956.477     -976843.172 4   -522884.57521         6.250           0.094
  23093283.000    12581778.554 5   9803965.62621         9.500           0.750
  21058508.516   -18115945.917 7 -14032896.81823        24.000           2.531
 91  5 20 20 53 15.0000000  0  3G13G19G 6
  23881376.367    -1037724.588 4   -570324.41521         7.000           0.188
  23100512.359    12619780.856 5   9833577.72921         9.500           0.688
  21054716.438   -18135875.655 7 -14048426.46723        24.000           2.594
 91  5 20 20 53 30.0000000  0  3G13G19G 6
  23869790.695    -1098582.960 4   -617746.31221         6.250           0.156
  23107753.273    12657831.442 5   9863227.44921         9.500           0.625
  21050931.922   -18155758.966 7 -14063919.94723        24.250           2.500
 91  5 20 20 53 45.0000000  0  3G13G19G 6
  23858219.758    -1159412.594 4   -665145.84721         7.000           0.031
  23115005.914    12695935.446 5   9892918.79821         9.500           0.750
  21047159.320   -18175590.340 7 -14079372.94722        24.250           2.469
 91  5 20 20 54  0.0000000  0  3G13G19G 6
  23846649.141    -1220221.785 4   -712529.41421         7.250           0.094
  23122265.883    12734084.111 5   9922644.96221         8.750           0.625
  21043393.789   -18195378.149 7 -14094792.00622        24.250           2.313
 91  5 20 20 54 15.0000000  0  3G13G19G 6
  23835082.828    -1281007.023 5   -759894.33221         7.750           0.063
  23129530.773    12772280.671 5   9952408.42721         9.250           0.594
  21039636.820   -18215119.165 7 -14110174.60022        23.750           2.406
 91  5 20 20 54 30.0000000  0  3G13G19G 6
  23823521.102    -1341769.741 5   -807241.69021         8.000           0.125
  23136814.063    12810523.052 5   9982207.61521         9.250           0.594
  21035888.883   -18234815.029 7 -14125522.01123        23.750           2.531
 91  5 20 20 54 45.0000000  0  3G13G19G 6
  23811958.359    -1402506.009 5   -854568.46121         7.500           0.094
  23144097.508    12848814.739 5  10012045.20121         9.500           0.625
  21032149.148   -18254462.079 7 -14140831.39322        24.250           2.406
 91  5 20 20 55  0.0000000  0  3G13G19G 6
  23800410.617    -1463210.786 5   -901870.68521         7.750           0.063
  23151392.164    12887160.186 5  10041924.68921         9.250           0.688
  21028422.266   -18274055.480 7 -14156098.96822        24.250           2.313
 91  5 20 20 55 15.0000000  0  3G13G19G 6
  23788858.500    -1523893.605 4   -949155.82621         7.250           0.250
  23158699.719    12925549.587 5  10071838.41921         9.500           0.563
  21024700.734   -18293604.903 7 -14171332.27122        24.000           2.438
 91  5 20 20 55 30.0000000  0  3G13G19G 6
  23777317.703    -1584545.841 4   -996417.05621         7.250           0.156
  23166015.453    12963991.235 5  10101792.86721         9.250           0.594
  21020992.016   -18313101.890 7 -14186524.71723        24.500           2.500
 91  5 20 20 55 45.0000000  0  3G13G19G 6
  23765780.570    -1645172.257 4  -1043658.27421         7.000           0.094
  23173338.984    13002479.727 5  10131783.80921         9.500           0.656
  21017289.781   -18332551.451 7 -14201680.21122        24.750           2.469
 91  5 20 20 56  0.0000000  0  3G13G19G 6
  23754252.055    -1705770.669 5  -1090877.59021         7.500           0.094
  23180674.047    13041016.871 5  10161812.66721         9.000           0.656
  21013598.719   -18351951.593 7 -14216797.19722        24.750           2.469
 91  5 20 20 56 15.0000000  0  3G13G19G 6
  23742724.859    -1766337.718 4  -1138072.50321         7.250           0.188
  23188016.500    13079605.696 5  10191881.78721         9.500           0.563
  21009916.695   -18371298.989 7 -14231873.08023        24.750           2.563
 91  5 20 20 56 30.0000000  0  3G13G19G 6
  23731205.641    -1826871.382 5  -1185241.42321         7.500           0.094
  23195371.078    13118247.479 5  10221992.17721         9.000           0.531
  21006245.484   -18390591.954 7 -14246906.54623        24.500           2.563
 91  5 20 20 56 45.0000000  0  3G13G19G 6
  23719691.625    -1887372.874 4  -1232385.23121         7.250           0.094
  23202731.984    13156940.916 5  10252142.82121         9.500           0.563
  21002583.711   -18409831.845 7 -14261898.65623        24.500           2.531
 91  5 20 20 57  0.0000000  0  3G13G19G 6
  23708185.773    -1947842.070 5  -1279503.90721         7.500           0.156
  23210101.977    13195685.691 5  10282333.46121         9.750           0.594
  20998933.008   -18429018.627 7 -14276849.38423        24.500           2.563
 91  5 20 20 57 15.0000000  0  3G13G19G 6
  23696684.898    -2008279.116 5  -1326597.50721         7.500           0.094
  23217488.359    13234480.892 5  10312563.40121         9.750           0.438
  20995291.352   -18448152.828 7 -14291759.14023        24.500           2.594
 91  5 20 20 57 30.0000000  0  3G13G19G 6
  23685184.297    -2068682.965 4  -1373665.24621         6.750           0.125
  23224881.953    13273327.201 5  10342833.17521         9.750           0.531
  20991660.867   -18467233.604 7 -14306627.26723        24.500           2.563
 91  5 20 20 57 45.0000000  0  3G13G19G 6
  23673700.688    -2129050.926 4  -1420705.03721         7.250           0.188
  23232280.883    13312227.132 5  10373144.70721         9.750           0.594
  20988040.203   -18486258.256 7 -14321451.65523        24.250           2.500
 91  5 20 20 58  0.0000000  0  3G13G19G 6
  23662221.625    -2189386.250 5  -1467719.37121         7.750           0.094
  23239693.102    13351176.825 5  10403495.02621         9.500           0.531
  20984430.484   -18505230.339 7 -14336235.08723        24.250           2.531
 91  5 20 20 58 15.0000000  0  3G13G19G 6
  23650743.219    -2249687.255 4  -1514706.97721         7.250           0.188
  23247117.148    13390177.265 5  10433884.88821         9.750           0.438
  20980829.750   -18524148.567 7 -14350976.55023        24.250           2.531
 91  5 20 20 58 30.0000000  0  3G13G19G 6
  23639276.867    -2309953.969 5  -1561667.88921         7.500           0.063
  23254547.109    13429228.040 5  10464313.96221         9.500           0.438
  20977241.047   -18543012.992 7 -14365676.09423        24.250           2.531
 91  5 20 20 58 45.0000000  0  3G13G19G 6
  23627817.898    -2370181.490 5  -1608598.21021         8.250           0.156
  23261988.016    13468333.407 5  10494785.59721         9.750           0.469
  20973661.266   -18561819.094 7 -14380330.18923        24.250           2.594
 91  5 20 20 59  0.0000000  0  3G13G19G 6
  23616359.625    -2430374.118 5  -1655501.38821         7.500           0.063
  23269442.406    13507488.970 5  10525296.33321         9.250           0.531
  20970093.453   -18580571.134 7 -14394942.15622        24.250           2.438
 91  5 20 20 59 15.0000000  0  3G13G19G 6
  23604912.914    -2490532.325 5  -1702377.68021         7.750           0.188
  23276902.445    13546693.846 5  10555845.49821         9.750           0.531
  20966534.203   -18599269.724 7 -14409512.48022        24.000           2.469
 91  5 20 20 59 30.0000000  0  3G13G19G 6
  23593474.430    -2550655.884 5  -1749227.03921         8.500           0.063
  23284368.156    13585947.796 5  10586432.90921         9.500           0.438
  20962987.727   -18617914.937 7 -14424041.20723        24.000           2.500
 91  5 20 20 59 45.0000000  0  3G13G19G 6
  23582034.539    -2610746.753 5  -1796050.90821         7.500           0.188
  23291845.250    13625248.384 5  10617056.64721         9.250           0.563
  20959448.516   -18636508.700 7 -14438529.84522        24.250           2.438
 91  5 20 21  0  0.0000000  0  3G13G19G 6
  23570608.445    -2670799.256 5  -1842844.90021         7.750           0.188
  23299338.914    13664600.684 5  10647720.68821         9.500           0.469
  20955921.703   -18655045.762 7 -14452974.29722        24.250           2.406
 91  5 20 21  0 15.0000000  0  3G13G19G 6
  23559189.625    -2730815.032 5  -1889610.25721         8.250           0.188
  23306833.938    13704002.521 5  10678423.32721         9.500           0.531
  20952404.242   -18673527.904 7 -14467375.95623        24.250           2.500
 91  5 20 21  0 30.0000000  0  4G13G19G 2G 6
  23547772.109    -2790794.124 5  -1936347.04121         7.500           0.156
  23314343.203    13743453.597 5  10709164.33321         9.500           0.563
  20625221.023          -0.47918                        28.250
  20948897.648   -18691955.182 7 -14481734.86522        24.250           2.469
 91  5 20 21  0 45.0000000  0  4G13G19G 2G 6
  23536369.813    -2850735.860 5  -1983054.67621         8.000           0.219
  23321858.656    13782953.983 5  10739943.75821         9.000           0.563
  20625701.125        2521.028 8                        28.500
  20945401.914   -18710327.435 7 -14496050.90022        24.500           2.438
 91  5 20 21  1  0.0000000  0  4G13G19G 2G 6
  23524966.258    -2910636.183 4  -2029730.11321         7.250           0.031
  23329389.414    13822507.351 5  10770764.47021         9.000           0.563
  20626193.234        5106.567 8        -0.15633        28.500           2.813
  20941915.570   -18728640.780 7 -14510321.02822        24.000           2.438
 91  5 20 21  1 15.0000000  0  4G13G19G 2G 6
  23513576.633    -2970498.936 5  -2076376.23021         7.750           0.156
  23336921.219    13862109.452 5  10801623.14821         9.250           0.531
  20626696.063        7751.919 8      2061.16323        28.750           2.781
  20938443.102   -18746899.149 7 -14524548.31922        24.250           2.438
 91  5 20 21  1 30.0000000  0  4G13G19G15G 6
  23502190.742    -3030320.031 5  -2122989.89821         7.500           0.094
  23344468.836    13901763.887 5  10832522.62521         9.250           0.500
  24193615.477          -0.09915                        10.000
  20934978.195   -18765098.507 7 -14538729.62422        24.250           2.469
 91  5 20 21  1 45.0000000  0  4G13G19G15G 6
  23490817.359    -3090104.613 5  -2169575.11421         7.500           0.156
  23352024.648    13941464.917 5  10863458.39121         9.000           0.563
  24189509.938      -21567.649 5                         9.750
  20931526.320   -18783244.347 7 -14552869.23022        24.000           2.469
 91  5 20 21  2  0.0000000  0  4G13G19G15G 6
  23479450.828    -3149852.545 5  -2216131.77421         7.750           0.063
  23359590.117    13981212.373 5  10894430.35021         8.750           0.531
  24185421.734      -43035.967 5                         9.500
  20928082.852   -18801336.596 7 -14566967.07623        23.750           2.500
 91  5 20 21  2 15.0000000  0  4G13G19G15G 6
  23468085.594    -3209555.444 5  -2262653.36421         8.000           0.125
  23367158.875    14021014.237 5  10925444.68221         9.000           0.500
  24181357.727      -64396.577 5                         9.500
  20924651.680   -18819367.082 7 -14581016.79722        24.000           2.438
 91  5 20 21  2 30.0000000  0  4G13G19G15G 6
  23456730.758    -3269221.367 5  -2309146.08121         7.750           0.188
  23374742.695    14060861.939 5  10956494.75521         8.750           0.531
  24177309.352      -85657.800 5        -0.02231        10.000           0.344
  20921231.563   -18837344.080 7 -14595024.83823        23.750           2.500
 91  5 20 21  2 45.0000000  0  4G13G19G15G 6
  23445387.055    -3328846.163 5  -2355606.82221         8.000           0.125
  23382335.414    14100759.109 5  10987583.36121         9.000           0.500
  24173284.484     -106815.458 5    -16486.48021        10.250           0.219
  20917820.625   -18855263.540 7 -14608988.04522        23.750           2.406
 91  5 20 21  3  0.0000000  0  4G13G19G15G 6
  23434044.695    -3388427.049 5  -2402033.30721         8.000           0.156
  23389938.555    14140708.091 5  11018712.33021         8.500           0.438
  24169280.453     -127867.025 5    -32890.25221        10.250           0.375
  20914423.539   -18873122.974 7 -14622904.47622        23.750           2.469
 91  5 20 21  3 15.0000000  0  4G13G19G15G 6
  23422714.813    -3447968.262 5  -2448428.87521         8.250           0.250
  23397549.883    14180704.176 5  11049878.00821         8.750           0.531
  24165288.227     -148817.228 5    -49215.05121        10.000           0.375
  20911034.477   -18890926.920 7 -14636777.67322        23.750           2.375
 91  5 20 21  3 30.0000000  0  4G13G19G15G 6
  23411395.344    -3507467.174 5  -2494791.52221         8.750           0.188
  23405168.063    14220749.733 5  11081082.23521         8.750           0.500
  24161324.328     -169662.632 5    -65458.18621        10.250           0.250
  20907657.898   -18908672.654 7 -14650605.50722        23.500           2.344
 91  5 20 21  3 45.0000000  0  4G13G19G15G 6
  23400078.297    -3566921.711 5  -2541119.58021         8.500           0.219
  23412795.602    14260846.145 5  11112326.10521         8.750           0.500
  24157378.172     -190401.667 5    -81618.42221        10.250           0.281
  20904292.883   -18926358.420 7 -14664386.61423        23.750           2.531
 91  5 20 21  4  0.0000000  0  4G13G19G15G 6
  23388775.500    -3626330.596 5  -2587412.03021         9.000           0.219
  23420440.281    14300994.329 5  11143610.29721         8.750           0.438
  24153453.133     -211033.208 5    -97694.89721        10.250           0.313
  20900938.063   -18943983.066 7 -14678120.10022        24.000           2.344
 91  5 20 21  4 15.0000000  0  4G13G19G15G 6
  23377477.172    -3685697.389 5  -2633671.70421         8.750           0.156
  23428085.297    14341190.381 5  11174931.79821         8.750           0.531
  24149547.141     -231560.594 5   -113690.23521        10.250           0.250
  20897596.352   -18961550.328 7 -14691808.86423        23.750           2.500
 91  5 20 21  4 30.0000000  0  4G13G19G15G 6
  23366190.344    -3745016.253 5  -2679894.03321         9.000           0.156
  23435752.969    14381439.383 5  11206294.55521         9.250           0.469
  24145660.914     -251978.292 5   -129600.07921        10.250           0.281
  20894264.086   -18979054.677 7 -14705448.60923        23.750           2.500
 91  5 20 21  4 45.0000000  0  4G13G19G15G 6
  23354910.844    -3804289.791 5  -2726081.05221         9.000           0.156
  23443410.641    14421738.385 5  11237696.27221         8.750           0.469
  24141796.328     -272289.187 5   -145426.71621        10.250           0.313
  20890944.508   -18996498.842 7 -14719041.45522        23.750           2.406
 91  5 20 21  5  0.0000000  0  4G13G19G15G 6
  23343640.273    -3863517.416 5  -2772232.25921         9.000           0.188
  23451094.008    14462087.302 5  11269136.89221         9.000           0.406
  24137953.953     -292492.745 5   -161169.69721        10.250           0.281
  20887636.625   -19013882.422 7 -14732587.09623        24.000           2.500
 91  5 20 21  5 15.0000000  0  4G13G19G15G 6
  23332378.180    -3922694.753 5  -2818344.31621         9.000           0.250
  23458788.758    14502490.232 5  11300619.59721         9.250           0.438
  24134130.234     -312584.767 5   -176825.78821        10.250           0.250
  20884340.688   -19031201.270 7 -14746082.29123        24.000           2.500
 91  5 20 21  5 30.0000000  0  4G13G19G15G 6
  23321125.328    -3981826.440 5  -2864420.79121         8.750           0.281
  23466486.055    14542942.244 5  11332140.53721         8.500           0.594
  24130327.703     -332569.763 5   -192398.47321        10.500           0.219
  20881057.969   -19048460.191 7 -14759530.79022        24.250           2.469
 91  5 20 21  5 45.0000000  0  4G13G19G15G 6
  23309879.695    -4040916.387 5  -2910464.74221         8.500           0.219
  23474188.531    14583438.972 5  11363696.33621         8.750           0.563
  24126543.125     -352451.959 5   -207891.05321        10.250           0.250
  20877783.219   -19065663.099 7 -14772935.64523        24.250           2.531
 91  5 20 21  6  0.0000000  0  4G13G19G15G 6
  23298646.422    -4099959.987 5  -2956472.58921         8.750           0.188
  23481904.633    14623984.365 5  11395290.03821         8.750           0.531
  24122782.469     -372226.727 5   -223299.92021        10.250           0.250
  20874521.453   -19082805.837 7 -14786293.61323        24.500           2.500
 91  5 20 21  6 15.0000000  0  4G13G19G15G 6
  23287416.992    -4158957.476 5  -3002444.45621         8.250           0.188
  23489626.883    14664577.728 5  11426921.12521         8.500           0.469
  24119039.125     -391894.467 5   -238625.39221        10.500           0.250
  20871271.250   -19099888.680 7 -14799604.91123        24.500           2.500
 91  5 20 21  6 30.0000000  0  4G13G19G15G 6
  23276201.922    -4217904.135 5  -3048376.76121         8.500           0.250
  23497363.570    14705223.374 5  11458592.94121         8.000           0.438
  24115316.547     -411450.335 5   -253863.69321        10.250           0.406
  20868031.344   -19116907.050 7 -14812865.96622        24.500           2.438
 91  5 20 21  6 45.0000000  0  4G13G19G15G 6
  23264992.398    -4276807.033 5  -3094274.97421         8.500           0.250
  23505101.398    14745913.874 5  11490299.71221         8.000           0.500
  24111615.750     -430901.863 5   -269020.69721        10.250           0.375
  20864805.008   -19133868.152 7 -14826082.40022        24.500           2.469
 91  5 20 21  7  0.0000000  0  4G13G19G15G 6
  23253792.695    -4335661.630 5  -3140135.52421         8.500           0.125
  23512863.297    14786653.013 5  11522044.39321         7.750           0.438
  24107931.734     -450244.502 5   -284092.86421        10.000           0.219
  20861588.664   -19150767.752 7 -14839250.91122        24.500           2.469
 91  5 20 21  7 15.0000000  0  4G13G19G15G 6
  23242601.914    -4394469.048 5  -3185959.30621         8.750           0.156
  23520622.320    14827439.382 5  11553825.86321         8.250           0.469
  24104274.914     -469479.228 5   -299080.91121         9.500           0.469
  20858383.844   -19167607.190 7 -14852372.54223        24.750           2.531
 91  5 20 21  7 30.0000000  0  4G13G19G15G 6
  23231419.352    -4453231.100 5  -3231747.76821         8.750           0.250
  23528391.508    14868271.093 5  11585642.66621         8.250           0.500
  24100631.070     -488607.897 5   -313986.31921         9.750           0.406
  20855191.898   -19184388.190 7 -14865448.63922        25.000           2.406
 91  5 20 21  7 45.0000000  0  4G13G19G15G 6
  23220248.008    -4511944.164 5  -3277498.04121         9.000           0.250
  23536164.211    14909150.726 5  11617496.81021         8.000           0.469
  24097013.961     -507627.369 5   -328806.66421         9.750           0.281
  20852008.789   -19201107.605 7 -14878476.74622        25.000           2.469
 91  5 20 21  8  0.0000000  0  4G13G19G15G 6
  23209082.250    -4570607.421 5  -3323209.50421         8.750           0.156
  23543958.398    14950078.598 4  11649388.55121         7.250           0.469
  24093413.758     -526536.882 5   -343541.30821         9.750           0.250
  20848840.047   -19217764.781 7 -14891456.34723        25.250           2.500
 91  5 20 21  8 15.0000000  0  4G13G19G15G 6
  23197929.477    -4629220.779 5  -3368882.07121         9.250           0.281
  23551758.086    14991054.495 5  11681317.70121         7.750           0.469
  24089840.664     -545336.362 5   -358190.22721         9.500           0.344
  20845680.945   -19234359.740 7 -14904387.48123        25.250           2.500
 91  5 20 21  8 30.0000000  0  4G13G19G15G 6
  23186784.656    -4687788.029 5  -3414518.75021         9.500           0.219
  23559563.789    15032074.153 4  11713280.95521         7.000           0.438
  24086276.859     -564029.727 5   -372756.44121         9.500           0.281
  20842535.297   -19250896.562 7 -14917273.30023        25.500           2.500
 91  5 20 21  8 45.0000000  0  4G13G19G15G 6
  23175649.773    -4746304.411 5  -3460115.76321         9.500           0.188
  23567376.320    15073141.853 5  11745281.65621         7.500           0.531
  24082747.055     -582612.428 5   -387236.43421        10.000           0.375
  20839399.766   -19267370.480 7 -14930110.11623        24.750           2.594
 91  5 20 21  9  0.0000000  0  4G13G19G15G 6
  23164525.227    -4804767.617 5  -3505671.33721        10.000           0.188
  23575208.789    15114259.197 4  11777321.04521         7.000           0.469
  24079229.563     -601082.588 5   -401628.73121         9.500           0.375
  20836277.195   -19283779.618 7 -14942896.44123        24.250           2.594
 91  5 20 21  9 15.0000000  0  4G13G19G15G 6
  23153407.555    -4863179.442 5  -3551186.87021        10.250           0.125
  23583034.398    15155424.270 4  11809397.59721         7.000           0.375
  24075732.867     -619441.700 5   -415934.49221         9.500           0.281
  20833166.984   -19300125.700 7 -14955633.63623        24.250           2.594
 91  5 20 21  9 30.0000000  0  4G13G19G15G 6
  23142300.227    -4921540.583 5  -3596662.91321        10.000           0.156
  23590875.352    15196635.925 4  11841510.46221         7.000           0.563
  24072261.305     -637690.649 5   -430154.41521         9.750           0.313
  20830067.164   -19316409.629 7 -14968322.40623        24.000           2.531
 91  5 20 21  9 45.0000000  0  4G13G19G15G 6
  23131206.844    -4979850.579 5  -3642099.13021        10.500           0.188
  23598728.352    15237893.977 4  11873659.46721         7.000           0.531
  24068811.828     -655829.048 5   -444288.19621         9.500           0.313
  20826981.297   -19332631.150 7 -14980962.54223        24.000           2.656
 91  5 20 21 10  0.0000000  0  4G13G19G15G 6
  23120122.242    -5038104.975 5  -3687491.97521        10.500           0.219
  23606588.352    15279202.642 4  11905847.92421         7.000           0.500
  24065380.672     -673852.469 5   -458332.40021         9.500           0.344
  20823906.445   -19348785.807 7 -14993550.58323        24.000           2.563
 91  5 20 21 10 15.0000000  0  4G13G19G15G 6
  23109046.328    -5096303.982 5  -3732841.68721        10.500           0.188
  23614453.367    15320561.378 4  11938075.37521         6.750           0.438
  24061972.758     -691761.160 5   -472287.17621         9.500           0.344
  20820845.609   -19364873.955 7 -15006086.79423        23.750           2.563
 91  5 20 21 10 30.0000000  0  4G13G19G15G 6
  23097980.063    -5154453.628 5  -3778152.93721        10.500           0.188
  23622334.328    15361963.624 4  11970336.75321         6.750           0.469
  24058584.648     -709561.405 5   -486157.47221         9.500           0.344
  20817795.164   -19380901.869 7 -15018576.06823        24.000           2.656
 91  5 20 21 10 45.0000000  0  4G13G19G15G 6
  23086926.250    -5212548.502 5  -3823421.48321        10.250           0.188
  23630231.148    15403414.031 5  12002635.65421         7.500           0.469
  24055221.773     -727247.996 5   -499939.20921         9.500           0.344
  20814757.648   -19396864.470 7 -15031014.44223        24.250           2.594
 91  5 20 21 11  0.0000000  0  4G13G19G15G 6
  23075880.023    -5270588.663 5  -3868647.41421        10.000           0.281
  23638123.164    15444912.048 4  12034971.66121         7.250           0.469
  24051876.695     -744821.288 5   -513632.62321         9.500           0.406
  20811733.516   -19412762.064 7 -15043402.16723        24.250           2.625
 91  5 20 21 11 15.0000000  0  4G13G19G15G 6
  23064846.094    -5328568.913 5  -3913826.64821        10.000           0.188
  23646026.570    15486462.494 5  12067348.49121         7.500           0.375
  24048556.055     -762275.951 5   -527233.63521         9.250           0.313
  20808720.063   -19428589.520 7 -15055735.24023        24.250           2.563
 91  5 20 21 11 30.0000000  0  4G13G19G15G 6
  23053823.063    -5386492.508 5  -3958961.74721         9.750           0.219
  23653945.117    15528061.698 4  12099763.34921         7.000           0.469
  24045256.250     -779615.373 5   -540744.82621         9.500           0.344
  20805722.031   -19444350.285 7 -15068016.34523        24.500           2.656
 91  5 20 21 11 45.0000000  0  4G13G19G15G 6
  23042812.164    -5444363.379 5  -4004055.77221        10.000           0.313
  23661872.164    15569705.216 5  12132212.71421         7.750           0.594
  24041977.273     -796843.684 5   -554169.47121         9.500           0.344
  20802733.648   -19460048.292 7 -15080248.55523        24.250           2.625
 91  5 20 21 12  0.0000000  0  4G13G19G15G 6
  23031810.188    -5502174.699 5  -4049103.37621        10.000           0.219
  23669804.273    15611399.380 5  12164701.56521         7.500           0.500
  24038719.641     -813954.148 5   -567502.24821         9.500           0.281
  20799761.266   -19475676.999 7 -15092426.75723        24.250           2.594
 91  5 20 21 12 15.0000000  0  4G13G19G15G 6
  23020821.922    -5559928.157 5  -4094105.87521        10.250           0.188
  23677754.656    15653141.952 5  12197228.11921         8.000           0.469
  24035487.664     -830948.694 5   -580744.71621         9.500           0.500
  20796799.156   -19491238.404 7 -15104552.51823        24.250           2.656
 91  5 20 21 12 30.0000000  0  4G13G19G15G 6
  23009840.648    -5617624.874 5  -4139064.19021        10.250           0.250
  23685701.008    15694931.429 5  12229791.22821         7.500           0.563
  24032274.852     -847828.516 5   -593897.79521         9.500           0.438
  20793851.172   -19506733.631 7 -15116626.71723        24.500           2.531
 91  5 20 21 12 45.0000000  0  4G13G19G15G 6
  22998870.750    -5675261.173 5  -4183975.40921        10.250           0.188
  23693662.313    15736770.899 5  12262393.28521         8.000           0.563
  24029084.094     -864590.273 5   -606958.86521         9.500           0.406
  20790915.383   -19522159.379 7 -15128646.77223        24.500           2.656
 91  5 20 21 13  0.0000000  0  4G13G19G15G 6
  22987915.352    -5732836.496 5  -4228839.11621        10.250           0.250
  23701631.313    15778660.498 5  12295034.40821         7.750           0.531
  24025916.359     -881233.373 5   -619927.47521         9.250           0.375
  20787993.148   -19537515.256 7 -15140612.37923        24.500           2.625
 91  5 20 21 13 15.0000000  0  5G13G19G15G 2G 6
  22976971.234    -5790352.334 5  -4273656.48021        10.500           0.250
  23709611.906    15820598.304 5  12327713.10621         7.750           0.594
  24022771.109     -897759.236 5   -632804.73121         9.500           0.375
  20664322.344          -0.92117                        27.500
  20785083.297   -19552802.544 7 -15152524.54123        24.250           2.531
 91  5 20 21 13 30.0000000  0  5G13G19G15G 2G 6
  22966036.773    -5847807.619 5  -4318426.67721        10.750           0.281
  23717600.445    15862585.074 5  12360429.95021         7.500           0.469
  24019652.820     -914166.933 5   -645589.91321         9.500           0.406
  20665383.664        5581.007 7                        27.500
  20782188.031   -19568020.685 7 -15164382.82523        24.250           2.563
 91  5 20 21 13 45.0000000  0  5G13G19G15G 2G 6
  22955116.492    -5905202.437 5  -4363149.73221        11.000           0.219
  23725603.617    15904620.129 5  12393184.41021         7.750           0.531
  24016549.625     -930456.708 5   -658283.19521         9.500           0.375
  20666458.117       11222.673 7        -0.11033        27.500           3.156
  20779305.727   -19583169.772 7 -15176187.30323        24.000           2.750
 91  5 20 21 14  0.0000000  0  5G13G19G15G 2G 6
  22944204.477    -5962537.281 5  -4407826.07321        11.000           0.188
  23733612.445    15946702.506 5  12425975.74421         7.750           0.500
  24013470.484     -946629.245 5   -670885.13121         9.500           0.438
  20667542.406       16923.206 7      4441.85823        27.500           3.125
  20776435.148   -19598250.583 7 -15187938.57523        23.750           2.563
 91  5 20 21 14 15.0000000  0  5G13G19G15G 2G 6
  22933305.188    -6019810.176 5  -4452454.12521        11.000           0.250
  23741627.477    15988833.836 5  12458805.23221         7.750           0.469
  24010419.164     -962682.611 5   -683394.21621         9.750           0.500
  20668639.133       22684.245 7      8930.97823        27.500           3.188
  20773578.211   -19613261.167 7 -15199635.12623        23.750           2.656
 91  5 20 21 14 30.0000000  0  5G13G19G15G 2G 6
  22922419.672    -6077019.782 5  -4497032.86421        11.250           0.281
  23749653.133    16031015.075 4  12491673.59721         7.250           0.500
  24007386.805     -978615.867 5   -695809.68821        10.000           0.406
  20669746.297       28506.860 7     13468.08123        27.250           3.094
  20770736.523   -19628200.255 7 -15211275.96423        23.750           2.625
 91  5 20 21 14 45.0000000  0  5G13G19G15G 2G 6
  22911544.594    -6134170.242 5  -4541565.55221        11.250           0.250
  23757687.508    16073241.119 4  12524576.88721         7.250           0.531
  24004376.594     -994433.093 5   -708134.75221         9.750           0.500
  20670866.234       34386.111 7     18049.30823        27.500           3.094
  20767905.172   -19643072.428 7 -15222864.66823        23.500           2.656
 91  5 20 21 15  0.0000000  0  5G13G19G15G 2G 6
  22900681.852    -6191255.827 5  -4586047.64021        11.500           0.313
  23765737.906    16115517.541 4  12557519.42221         7.250           0.469
  24001390.969    -1010128.812 5   -720365.13921        10.000           0.438
  20671996.055       40327.282 7     22678.79123        27.500           3.219
  20765089.961   -19657872.036 7 -15234396.82223        23.500           2.625
 91  5 20 21 15 15.0000000  0  5G13G19G15G 2G 6
  22889830.727    -6248279.904 5  -4630481.83121        11.750           0.313
  23773790.867    16157840.307 4  12590498.08621         7.250           0.469
  23998425.695    -1025706.454 5   -732503.51421        10.000           0.531
  20673138.609       46326.719 7     27353.67723        27.500           3.125
  20762285.813   -19672602.663 7 -15245875.22023        23.250           2.594
 91  5 20 21 15 30.0000000  0  5G13G19G15G 2G 6
  22878989.891    -6305240.065 5  -4674866.21021        11.250           0.281
  23781852.039    16200211.571 4  12623514.51821         6.750           0.438
  23995485.734    -1041163.514 5   -744547.93621        10.000           0.469
  20674290.719       52386.537 8     32075.61023        28.000           3.156
  20759497.203   -19687261.779 7 -15257297.90523        24.000           2.656
 91  5 20 21 15 45.0000000  0  5G13G19G15G 2G 6
  22868163.539    -6362135.454 5  -4719200.12021        11.500           0.313
  23789927.000    16242631.770 4  12656569.09421         7.250           0.469
  23992564.344    -1056499.375 5   -756497.91621         9.750           0.375
  20675456.023       58506.960 7     36844.76723        27.750           3.219
  20756720.711   -19701848.915 7 -15268664.49723        24.000           2.625
 91  5 20 21 16  0.0000000  0  5G13G19G15G 2G 6
  22857348.383    -6418971.931 5  -4763488.12021        11.500           0.219
  23798005.141    16285094.538 4  12689656.83521         6.750           0.375
  23989670.711    -1071720.209 5   -768358.25921        10.000           0.469
  20676630.125       64681.788 7     41656.31823        27.750           3.094
  20753957.984   -19716370.057 7 -15279979.66623        23.750           2.531
 91  5 20 21 16 15.0000000  0  5G13G19G15G 2G 6
  22846542.125    -6475743.645 5  -4807725.66121        11.500           0.219
  23806098.750    16327605.081 5  12722781.80421         7.500           0.469
  23986797.414    -1086820.380 5   -780124.56921         9.500           0.313
  20677817.227       70916.159 7     46514.27023        27.750           3.344
  20751208.148   -19730819.666 7 -15291239.08923        24.000           2.656
 91  5 20 21 16 30.0000000  0  5G13G19G15G 2G 6
  22835752.609    -6532450.990 5  -4851913.04321        11.250           0.313
  23814194.039    16370162.758 4  12755943.51121         7.000           0.406
  23983945.750    -1101800.052 5   -791797.00321        10.000           0.438
  20679014.117       77209.592 8     51418.24223        28.000           3.313
  20748472.070   -19745198.046 7 -15302443.01723        24.000           2.563
 91  5 20 21 16 45.0000000  0  5G13G19G15G 2G 6
  22824974.602    -6589092.199 5  -4896048.88921        11.500           0.344
  23822305.297    16412768.549 4  12789142.68621         7.250           0.438
  23981121.180    -1116658.115 5   -803374.66921        10.000           0.406
  20680223.500       83563.102 7     56369.02823        27.750           3.250
  20745749.328   -19759503.954 7 -15313590.46723        24.000           2.656
 91  5 20 21 17  0.0000000  0  5G13G19G15G 2G 6
  22814208.203    -6645670.490 5  -4940135.69821        11.250           0.188
  23830413.688    16455418.954 4  12822376.65321         7.000           0.438
  23978310.195    -1131397.853 5   -814860.12821        10.000           0.500
  20681443.906       89973.226 7     61363.92323        27.500           3.219
  20743040.297   -19773740.482 7 -15324683.86023        24.000           2.625
 91  5 20 21 17 15.0000000  0  5G13G19G15G 2G 6
  22803453.281    -6702185.499 5  -4984173.21721        11.250           0.281
  23838536.453    16498113.785 4  12855645.20421         7.000           0.375
  23975529.336    -1146018.944 5   -826253.14321        10.250           0.500
  20682673.648       96439.798 7     66402.80823        27.750           3.219
  20740345.836   -19787907.570 7 -15335723.14323        24.250           2.594
 91  5 20 21 17 30.0000000  0  5G13G19G15G 2G 6
  22792710.211    -6758633.167 5  -5028158.25321        11.000           0.188
  23846676.547    16540856.602 4  12888951.18721         7.000           0.375
  23972774.672    -1160517.382 5   -837550.58221        10.500           0.500
  20683915.984      102966.314 8     71488.39823        28.000           3.188
  20737661.727   -19802001.297 7 -15346705.26323        24.000           2.531
 91  5 20 21 17 45.0000000  0  5G13G19G15G 2G 6
  22781982.313    -6815013.641 5  -5072090.95021        11.250           0.188
  23854815.586    16583646.779 4  12922294.03921         6.750           0.375
  23970035.297    -1174893.601 5   -848752.78621        10.500           0.469
  20685169.219      109552.142 8     76620.21123        28.250           3.281
  20734993.984   -19816021.959 7 -15357630.44323        24.250           2.656
 91  5 20 21 18  0.0000000  0  5G13G19G15G 2G 6
  22771267.930    -6871325.043 5  -5115969.78621        11.500           0.313
  23862977.125    16626485.819 4  12955674.98021         7.000           0.438
  23967323.000    -1189145.766 5   -859858.33921        10.250           0.469
  20686433.977      116198.875 8     81799.48023        28.250           3.125
  20732341.453   -19829967.830 7 -15368497.35123        24.000           2.531
 91  5 20 21 18 15.0000000  0  5G13G19G15G 2G 6
  22760562.711    -6927568.399 5  -5159795.60921        11.250           0.250
  23871135.266    16669372.297 4  12989092.89521         7.250           0.469
  23964633.359    -1203275.116 5   -870868.18221        10.250           0.563
  20687710.492      122905.117 8     87025.11823        28.250           3.125
  20729700.477   -19843840.038 7 -15379306.85823        24.000           2.563
 91  5 20 21 18 30.0000000  0  5G13G19G15G 2G 6
  22749872.297    -6983745.817 5  -5203570.07921        11.250           0.375
  23879302.938    16712303.445 4  13022545.61521         7.250           0.438
  23961968.477    -1217283.869 5   -881784.05321        10.250           0.563
  20688997.258      129668.323 8     92295.14423        28.500           3.219
  20727075.625   -19857640.891 7 -15390060.76523        24.000           2.531
 91  5 20 21 18 45.0000000  0  5G13G19G15G 2G 6
  22739197.781    -7039851.910 5  -5247288.96021        11.500           0.313
  23887479.820    16755284.179 4  13056036.95621         7.250           0.438
  23959326.336    -1231166.945 5   -892601.99421        10.500           0.469
  20690295.820      136493.179 8     97613.20523        28.500           3.219
  20724464.039   -19871365.354 7 -15400755.14823        24.000           2.531
 91  5 20 21 19  0.0000000  0  5G13G19G15G 2G 6
  22728532.781    -7095892.531 5  -5290956.81921        11.500           0.344
  23895666.367    16798308.303 4  13089562.11721         6.500           0.469
  23956709.969    -1244930.244 5                        10.250
  20691605.688      143373.601 8    102974.56923        28.750           3.188
  20721864.094   -19885019.199 7                        24.000
 91  5 20 21 19 15.0000000  0  5G13G19G15G 2G 6
  22717880.000    -7151865.242 5  -5334571.74821        11.750           0.313
  23903867.063    16841377.645 5  13123122.50821         7.500           0.500
  23954112.492    -1258571.449 5                        10.250
  20692925.594      150311.547 8    108380.76223        28.750           3.250
  20719280.148   -19898600.198 7                        23.500
 91  5 20 21 19 30.0000000  0  5G13G19G15G 2G 6
  22707243.539    -7207768.972 6  -5378132.95221        12.000           0.344
  23912076.344    16884492.997 4  13156718.77721         7.250           0.344
  23951540.398    -1272089.546 5                        10.250
  20694256.828      157307.657 8    113832.27223        28.750           3.156
  20716710.406   -19912107.426 7 -15432502.18422        23.500           2.344
 91  5 20 21 19 45.0000000  0  5G13G19G15G 2G 6
  22696617.984    -7263602.407 6  -5421639.35021        12.000           0.313
  23920277.984    16927655.067 4  13190351.42221         7.000           0.531
  23948991.125    -1285483.241 5                        10.250
  20695600.195      164362.856 8    119329.82523        29.000           3.094
  20714153.250   -19925539.622 7 -15442968.83823        23.500           2.500
 91  5 20 21 20  0.0000000  0  5G13G19G15G 2G 6
  22686005.289    -7319367.418 6  -5465092.45721        12.000           0.344
  23928504.438    16970861.646 5  13224018.76621         7.500           0.469
  23946467.422    -1298754.753 5                        10.250
  20696952.852      171474.800 8    124871.59423        29.250           3.156
  20711611.695   -19938898.942 7 -15453378.69522        23.250           2.375
 91  5 20 21 20 15.0000000  0  5G13G19G15G 2G 6
  22675408.594    -7375061.265 6  -5508490.12221        12.250           0.313
  23936732.930    17014114.620 4  13257722.24621         7.250           0.406
  23943963.625    -1311901.844 5                        10.250
  20698317.578      178645.466 8    130459.12123        29.000           3.188
  20709084.648   -19952182.989 7 -15463729.89222        23.500           2.469
 91  5 20 21 20 30.0000000  0  5G13G19G15G 2G 6
  22664821.469    -7430684.867 6  -5551833.03121        12.250           0.250
  23944981.781    17057412.818 4  13291460.97421         7.000           0.531
  23941483.438    -1324925.237 5        -0.09931        10.250           0.531
  20699692.898      185873.899 8    136091.66423        28.750           3.344
  20706570.547   -19965392.693 7 -15474023.16022        23.250           2.469
 91  5 20 21 20 45.0000000  0  5G13G19G15G 2G 6
  22654251.461    -7486237.776 6  -5595120.86921        12.250           0.281
  23953221.227    17100756.524 4  13325235.15921         7.000           0.438
  23939028.430    -1337824.317 5    -10051.28921        10.500           0.500
  20701079.961      193160.280 8    141769.36323        28.750           3.156
  20704070.266   -19978527.462 7 -15484258.03722        23.250           2.344
 91  5 20 21 21  0.0000000  0  5G13G19G15G 2G 6
  22643693.195    -7541723.860 6  -5638356.62321        12.500           0.313
  23961479.344    17144141.098 4  13359041.18921         6.500           0.500
  23936598.797    -1350603.671 5    -20009.19721        10.250           0.469
  20702476.617      200500.076 8    147488.67923        28.500           3.094
  20701584.578   -19991591.576 7 -15494437.85822        23.500           2.406
 91  5 20 21 21 15.0000000  0  4G13G19G15G 6
  22633145.813    -7597137.724 6  -5681536.13621        12.250           0.375
  23969745.328    17187571.506 4  13392882.92821         7.250           0.469
  23934193.125    -1363257.685 5    -29869.41721        10.500           0.500
  20699112.625   -20004579.768 7 -15504558.52122        23.250           2.281
 91  5 20 21 21 30.0000000  0  4G13G19G15G 6
  22622616.406    -7652480.064 6  -5724659.86121        12.500           0.250
  23978013.078    17231046.335 3  13426759.29021         6.000           0.406
  23931806.250    -1375787.470 5    -39632.86121        10.500           0.594
  20696655.773   -20017493.103 7 -15514620.85322        23.000           2.438
 91  5 20 21 21 45.0000000  0  4G13G19G15G 6
  22612097.594    -7707751.508 6  -5767728.39621        12.500           0.250
  23986300.438    17274565.005 4  13460669.79921         6.750           0.500
  23929444.063    -1388193.718 5    -49300.00921        10.500           0.719
  20694212.055   -20030331.879 7 -15524625.08622        23.250           2.250
 91  5 20 21 22  0.0000000  0  4G13G19G15G 6
  22601595.555    -7762950.211 6  -5810740.22221        12.750           0.344
  23994586.859    17318128.860 4  13494615.53121         6.500           0.344
  23927108.672    -1400474.542 5    -58869.46221        10.500           0.500
  20691783.664   -20043094.607 7 -15534570.06622        23.250           2.344
 91  5 20 21 22 15.0000000  0  4G13G19G15G 6
  22591104.570    -7818072.608 6  -5853692.60221        12.500           0.313
  24002882.867    17361740.624 3  13528598.56521         6.000           0.438
  23924796.391    -1412626.954 5    -68338.83521        10.500           0.438
  20689370.391   -20055778.132 7 -15544453.32522        23.500           2.344
 91  5 20 21 22 30.0000000  0  4G13G19G15G 6
  22580628.797    -7873124.035 6  -5896589.69521        12.500           0.250
  24011196.680    17405394.632 3  13562614.54321         6.000           0.500
  23922504.531    -1424656.225 5    -77712.25221        10.500           0.438
  20686971.930   -20068387.812 7 -15554279.04222        24.000           2.406
 91  5 20 21 22 45.0000000  0  4G13G19G15G 6
  22570165.984    -7928101.875 6  -5939429.42221        12.250           0.375
  24019505.594    17449093.079 3  13596665.14721         5.750           0.406
  23920243.945    -1436559.810 5    -86987.73221        10.500           0.500
  20684585.688   -20080921.076 7 -15564045.21322        24.000           2.313
 91  5 20 21 23  0.0000000  0  4G13G19G15G 6
  22559719.195    -7983008.400 6  -5982213.59221        12.500           0.250
  24027832.836    17492832.791 3  13630747.90221         5.750           0.375
  23918000.398    -1448340.390 5    -96167.37521        10.250           0.563
  20682215.734   -20093380.538 7 -15573753.87622        24.500           2.344
 91  5 20 21 23 15.0000000  0  4G13G19G15G 6
  22549283.109    -8037839.627 6  -6024939.09221        12.500           0.313
  24036165.883    17536617.524 3  13664865.72321         5.750           0.406
  23915783.039    -1459994.191 5   -105248.21821        10.500           0.469
  20679857.883   -20105762.410 7 -15583402.08322        24.250           2.313
 91  5 20 21 23 30.0000000  0  4G13G19G15G 6
  22538864.914    -8092596.495 6  -6067606.64721        12.500           0.344
  24044508.664    17580446.070 3  13699017.69921         5.500           0.406
  23913587.977    -1471522.166 5   -114231.03721        10.500           0.500
  20677516.656   -20118067.539 7 -15592990.49122        24.000           2.344
 91  5 20 21 23 45.0000000  0  4G13G19G15G 6
  22528458.117    -8147277.720 6  -6110215.25421        12.500           0.438
  24052861.227    17624318.858 3  13733204.14021         6.000           0.344
  23911420.398    -1482923.198 5   -123114.91321        10.500           0.531
  20675190.313   -20130295.009 7 -15602518.38022        24.250           2.344
 91  5 20 21 24  0.0000000  0  4G13G19G15G 6
  22518069.555    -8201880.600 6  -6152762.83921        12.500           0.313
  24061217.641    17668237.946 3  13767426.67121         5.250           0.469
  23909272.406    -1494195.168 5   -131898.24521        10.250           0.563
  20672880.359   -20142442.350 7 -15611983.83522        24.250           2.375
 91  5 20 21 24 15.0000000  0  4G13G19G15G 6
  22507688.805    -8256408.443 6  -6195251.92521        12.250           0.438
  24069581.734    17712199.925 3  13801682.62421         5.750           0.438
  23907154.469    -1505341.243 5   -140583.46321        10.750           0.438
  20670582.453   -20154512.847 7 -15621389.41322        24.500           2.406
 91  5 20 21 24 30.0000000  0  4G13G19G15G 6
  22497329.461    -8310862.757 6  -6237683.73021        12.500           0.406
  24077953.984    17756203.092 3  13835970.67221         5.500           0.313
  23905054.203    -1516362.699 5   -149171.56921        10.500           0.438
  20668300.398   -20166507.950 7 -15630736.23722        24.000           2.281
 91  5 20 21 24 45.0000000  0  4G13G19G15G 6
  22486982.227    -8365241.717 6  -6280056.81521        12.500           0.344
  24086333.602    17800248.812 3  13870291.86821         5.750           0.313
  23902979.945    -1527258.023 5   -157661.41721        10.500           0.563
  20666032.414   -20178426.100 7 -15640023.10322        24.000           2.313
 91  5 20 21 25  0.0000000  0  4G13G19G15G 6
  22476645.570    -8419545.593 6  -6322371.41121        12.500           0.313
  24094722.898    17844336.130 3  13904645.48121         5.500           0.438
  23900934.234    -1538027.538 5   -166053.22321        10.500           0.406
  20663778.258   -20190267.632 7 -15649250.26722        24.250           2.313
 91  5 20 21 25 15.0000000  0  4G13G19G15G 6
  22466328.398    -8473776.071 6  -6364628.78621        12.750           0.406
  24103116.922    17888462.707 3  13939029.69021         5.500           0.313
  23898907.906    -1548673.461 5   -174348.70721        10.500           0.500
  20661538.617   -20202034.552 7 -15658419.28422        24.000           2.469
 91  5 20 21 25 30.0000000  0  5G13G19G15G 2G 6
  22456021.938    -8527928.364 6  -6406825.27321        12.750           0.406
  24111522.195    17932633.063 3  13973448.02821         5.500           0.250
  23896904.523    -1559191.306 5   -182544.40321        10.500           0.531
  20729472.867          -0.79818                        28.000
  20659315.680   -20213722.285 7 -15667526.60522        24.000           2.406
 91  5 20 21 25 45.0000000  0  5G13G19G15G 2G 6
  22445732.109    -8582001.676 6  -6448960.18521        12.750           0.438
  24119934.086    17976847.272 3  14007900.49321         5.750           0.188
  23894927.547    -1569580.585 5   -190639.92021        10.500           0.438
  20731074.078        8413.881 8                        28.000
  20657106.055   -20225330.259 7 -15676571.77522        24.250           2.281
 91  5 20 21 26  0.0000000  0  5G13G19G15G 2G 6
  22435457.977    -8635997.164 6  -6491034.46921        12.750           0.375
  24128362.805    18021103.758 3  14042385.92621         6.000           0.313
  23892977.641    -1579842.380 5   -198636.10221        10.750           0.531
  20732685.555       16884.264 8        -0.13633        28.000           2.688
  20654912.039   -20236859.733 7 -15685555.77422        24.000           2.375
 91  5 20 21 26 15.0000000  0  5G13G19G15G 2G 6
  22425196.219    -8689914.932 6  -6533048.17521        12.750           0.438
  24136794.469    18065402.155 4  14076904.01721         6.250           0.219
  23891050.484    -1589976.996 5   -206533.17921        10.750           0.500
  20734308.500       25410.049 7      6643.33523        27.750           2.719
  20652733.336   -20248310.689 7 -15694478.59122        23.750           2.219
